     2.11           OBSERVATION DATA    G (GPS)             RINEX VERSION / TYPE
teqc 2010Oct21 OPUS Account 20111028 21:09:34UTC            PGM / RUN BY / DATE
Q 1522                                                      MARKER NAME
1170                                                        MARKER NUMBER
DBPROUTY NGS                                                OBSERVER / AGENCY
4624K01634 TRIMBLE NETR5 NP 70.55 / SP 451.54               REC # / TYPE / VERS
12668881 TRM41249.00 NONE                                   ANT # / TYPE
  -738054.0980 -5496299.3771  3140268.1193                  APPROX POSITION XYZ
        2.0000        0.0000        0.0000                  ANTENNA: DELTA H/E/N
     1     1                                                WAVELENGTH FACT L1/2
     5    L1    L2    C1    P1    P2                        # / TYPES OF OBSERV
  2011     8    29     0     0    0.0000000     GPS         TIME OF FIRST OBS
                                                            END OF HEADER
 11  8 29  0  0  0.0000000  0  8G25G10G12G09G17G04G05G02
  -6992117.938 7  -5433966.103 6  23431736.055
 -19603752.59048 -15213513.45846  20938789.1024                   20938790.2504
 -18625055.035 8 -14492171.302 7  21076890.516
   1135848.47146    935318.37243  24240877.9304                   24240884.6524
  -5671138.257 7  -4372807.671 6  23556262.164
 -13359478.24747 -10343161.57445  22096097.6174                   22096099.3834
 -16156736.694 8 -12572299.443 7  21559763.484
 -21198555.93748 -16470344.00346  20606530.5474                   20606529.4574
 11  8 29  0  0 30.0000000  0  8G25G10G12G09G17G04G05G02
  -7083228.541 7  -5504961.358 6  23414397.945
 -19585553.75148 -15199332.53246  20942252.6414                   20942253.4734
 -18667491.070 8 -14525238.341 7  21068815.219
   1219680.99946   1000642.26543  24256831.1174                   24256837.6684
  -5610588.029 7  -4325625.760 6  23567784.336
 -13279516.74247 -10280853.92845  22111313.2894                   22111315.5204
 -16237838.294 8 -12635495.433 7  21544330.469
 -21192862.91548 -16465907.89346  20607613.7974                   20607612.5634
 11  8 29  0  1  0.0000000  0  8G25G10G12G09G17G04G05G02
  -7174062.047 7  -5575740.701 7  23397112.758
 -19566726.13848 -15184661.66146  20945835.0394                   20945836.4384
 -18709417.606 8 -14557908.362 7  21060837.172
   1303563.10246   1066004.80943  24272793.8674                   24272798.6334
  -5549864.379 7  -4278308.696 6  23579339.641
 -13199462.69947 -10218474.19145  22126547.3134                   22126549.8554
 -16318556.700 8 -12698392.826 7  21528970.141
 -21186906.43648 -16461266.47146  20608747.5394                   20608745.8834
 11  8 29  0  1 30.0000000  0  8G25G10G12G09G17G04G05G02
  -7264617.918 7  -5646303.724 7  23379880.898
 -19547272.41948 -15169502.91746  20949537.1644                   20949538.1094
 -18750834.903 8 -14590181.580 7  21052955.523
   1387489.46646   1131401.83043  24288765.1564                   24288769.7384
  -5488969.069 7  -4230857.872 6  23590927.531
 -13119319.78747 -10156025.19445  22141798.0944                   22141800.0634
 -16398891.199 8 -12760991.090 7  21513683.195
 -21180689.79248 -16456422.32446  20609930.5634                   20609928.9064
 11  8 29  0  2  0.0000000  0  8G25G10G12G09G17G04G05G02
  -7354892.969 7  -5716647.901 7  23362701.563
 -19527192.71048 -15153856.37846  20953357.6094                   20953359.0274
 -18791741.037 8 -14622056.498 7  21045171.508
   1471457.29246   1196831.19743  24304743.5394                   24304748.4614
  -5427901.461 6  -4183272.802 6  23602547.781
 -13039089.51047 -10093508.14945  22157065.3444                   22157067.5004
 -16478838.862 8 -12823287.902 7  21498469.484
 -21174213.57548 -16451375.90446  20611162.8054                   20611161.2274
 11  8 29  0  2 30.0000000  0  8G25G10G12G09G17G04G05G02
  -7444884.304 7  -5786770.972 7  23345577.133
 -19506487.79548 -15137722.68746  20957298.0474                   20957299.0354
 -18832133.249 8 -14653530.944 7  21037485.227
   1555463.88446   1262290.72043  24320728.4844                   24320734.7584
  -5366660.886 6  -4135552.962 6  23614202.234
 -12958773.16947 -10030924.00945  22172348.9304                   22172351.2424
 -16558396.825 8 -12885281.056 7  21483330.125
 -21167478.72948 -16446127.94846  20612444.4924                   20612442.5904
 11  8 29  0  3  0.0000000  0  8G25G10G12G09G17G04G05G02
  -7534589.762 7  -5856671.306 6  23328506.297
 -19485158.88148 -15121102.75646  20961356.9924                   20961357.9924
 -18872010.862 8 -14684604.412 7  21029896.414
   1639505.35346   1327777.44843  24336721.1024                   24336727.8954
  -5305247.577 7  -4087698.513 6  23625888.992
 -12878372.94147  -9968274.50745  22187649.2034                   22187650.4384
 -16637563.105 8 -12946969.019 7  21468264.977
 -21160486.96248 -16440679.79946  20613774.5634                   20613773.5634
 11  8 29  0  3 30.0000000  0  8G25G10G12G09G17G04G05G02
  -7624006.895 7  -5926346.969 7  23311490.969
 -19463206.88448 -15103997.30246  20965534.5554                   20965535.3984
 -18911372.354 8 -14715275.692 7  21022406.016
   1723578.11846   1393288.58643  24352719.9534                   24352725.9454
  -5243661.229 6  -4039709.255 6  23637608.555
 -12797890.80947  -9905561.18445  22202964.1724                   22202966.2034
 -16716335.078 8 -13008349.697 7  21453275.086
 -21153239.74148 -16435032.61146  20615153.6884                   20615152.5864
 11  8 29  0  4  0.0000000  0  8G25G10G12G09G17G04G05G02
  -7713132.953 7  -5995795.813 7  23294530.078
 -19440632.40147 -15086406.80146  20969829.9064                   20969831.1994
 -18950215.847 8 -14745543.330 7  21015014.711
   1807678.96546   1458821.54743  24368724.2274                   24368730.5274
  -5181901.304 6  -3991584.735 6  23649360.453
 -12717328.19447  -9842785.13145  22218294.6094                   22218296.2974
 -16794710.323 8 -13069421.249 7  21438360.672
 -21145738.08348 -16429187.14746  20616581.3674                   20616579.8554
 11  8 29  0  4 30.0000000  0  8G25G10G12G09G17G04G05G02
  -7801964.680 7  -6065015.306 6  23277626.617
 -19417435.90647 -15068331.60246  20974243.9614                   20974244.7234
 -18988539.048 8 -14775405.567 7  21007721.914
   1891805.52146   1524374.55043  24384732.7734                   24384739.8634
  -5119967.602 6  -3943324.796 6  23661146.367
 -12636686.39947  -9779947.42345  22233640.3444                   22233642.5594
 -16872685.523 8 -13130181.092 7  21423522.703
 -21137982.40348 -16423143.73546  20618057.4224                   20618055.7234
 11  8 29  0  5  0.0000000  0  8G25G10G12G09G17G04G05G02
  -7890500.000 7  -6134003.850 6  23260779.492
 -19393618.74248 -15049772.77046  20978776.1884                   20978777.4534
 -19026340.911 8 -14804861.557 7  21000528.484
   1975954.08146   1589944.71143  24400746.6724                   24400752.6994
  -5057860.078 6  -3894929.426 6  23672965.797
 -12555967.42247  -9717049.56745  22249000.8674                   22249002.7934
 -16950258.721 8 -13190627.680 7  21408760.734
 -21129974.65748 -16416903.90946  20619580.9924                   20619579.5984
 11  8 29  0  5 30.0000000  0  8G25G10G12G09G17G04G05G02
  -7978736.200 7  -6202759.277 7  23243988.125
 -19369181.83247 -15030731.03246  20983426.5784                   20983428.0394
 -19063619.459 8 -14833909.765 7  20993434.883
   2060121.06546   1655529.20343  24416762.8524                   24416769.3874
  -4995578.208 6  -3846398.226 6  23684817.109
 -12475173.05247  -9654092.96245  22264375.6804                   22264377.2734
 -17027427.767 8 -13250759.341 7  21394075.977
 -21121715.89048 -16410468.49146  20621152.7034                   20621151.5824
 11  8 29  0  6  0.0000000  0  8G25G10G12G09G17G04G05G02
  -8066670.449 7  -6271279.417 7  23227254.758
 -19344125.55147 -15011206.65645  20988194.5864                   20988195.6054
 -19100373.139 8 -14862549.000 7  20986440.602
   2144303.71646   1721125.89343  24432782.7424                   24432788.7624
  -4933121.354 6  -3797730.606 6  23696702.164
 -12394304.45147  -9591078.51045  22279764.1724                   22279765.9844
 -17104189.552 8 -13310573.662 7  21379468.766
 -21113206.77348 -16403837.99246  20622771.8054                   20622770.3554
 11  8 29  0  6 30.0000000  0  8G25G10G12G09G17G04G05G02
  -8154299.738 7  -6339561.941 7  23210579.242
 -19318450.77547 -14991200.32446  20993080.4694                   20993081.4884
 -19136600.137 8 -14890777.832 7  20979546.859
   2228499.31846   1786732.70143  24448804.6024                   24448810.7624
  -4870489.367 6  -3748926.597 6  23708620.977
 -12313363.21947  -9528007.44845  22295166.9694                   22295168.4614
 -17180541.412 8 -13370068.547 7  21364939.438
 -21104448.40148 -16397013.27646  20624438.5474                   20624437.1174
 11  8 29  0  7  0.0000000  0  8G25G10G12G09G17G04G05G02
  -8241622.136 7  -6407605.280 7  23193962.188
 -19292158.95847 -14970713.19646  20998083.3444                   20998084.2894
 -19172299.283 8 -14918595.344 7  20972753.250
   2312703.73046   1852346.38743  24464828.3834                   24464835.0434
  -4807682.434 6  -3699986.182 6  23720572.789
 -12232351.58147  -9464881.53445  22310582.8204                   22310584.5904
 -17256481.211 8 -13429242.358 7  21350488.281
 -21095442.59648 -16389995.74346  20626152.5554                   20626151.1214
 11  8 29  0  7 30.0000000  0  8G25G10G12G09G17G04G05G02
  -8328634.416 7  -6475407.010 7  23177404.602
 -19265250.71347 -14949745.72145  21003204.3524                   21003205.2704
 -19207468.450 8 -14945999.891 7  20966060.750
   2396914.26646   1917964.77542  24480853.0704                   24480860.3204
  -4744699.585 6  -3650908.744 6  23732558.203
 -12151270.26147  -9401701.31645  22326012.0704                   22326014.1604
 -17332006.208 8 -13488092.947 7  21336116.055
 -21086190.03948 -16382785.93846  20627913.0004                   20627911.9264
 11  8 29  0  8  0.0000000  0  8G25G10G12G09G17G04G05G02
  -8415333.737 7  -6542964.879 7  23160906.164
 -19237726.93547 -14928298.60846  21008441.3834                   21008442.7854
 -19242105.865 8 -14972990.090 7  20959469.344
   2481127.90746   1983585.60742  24496878.3444                   24496885.5944
  -4681540.540 7  -3601693.965 6  23744576.734
 -12070121.01847  -9338468.17944  22341454.3674                   22341456.5704
 -17407113.699 8 -13546618.208 7  21321823.758
 -21076691.45848 -16375384.43946  20629720.5394                   20629718.9924
 11  8 29  0  8 30.0000000  0  8G25G10G12G09G17G04G05G02
  -8501717.885 7  -6610277.134 6  23144467.680
 -19209589.18147 -14906373.09446  21013795.6724                   21013797.0554
 -19276210.379 8 -14999565.052 7  20952979.594
   2565341.22246   2049206.26142  24512903.8284                   24512911.1954
  -4618205.629 7  -3552342.171 6  23756629.445
 -11988905.61547  -9275183.50344  22356909.3204                   22356911.0314
 -17481801.606 8 -13604816.511 7  21307611.414
 -21066948.38148 -16367792.41146  20631574.6094                   20631573.0824
 11  8 29  0  9  0.0000000  0  8G25G10G12G09G17G04G05G02
  -8587784.238 7  -6677341.805 6  23128089.992
 -19180838.43748 -14883969.91446  21019267.1954                   21019268.3554
 -19309780.693 8 -15025723.743 7  20946591.523
   2649551.26945   2114824.21742  24528927.8134                   24528935.2304
  -4554694.324 7  -3502852.911 6  23768715.055
 -11907625.88547  -9211848.69544  22372376.4384                   22372378.3014
 -17556067.593 8 -13662686.052 7  21293478.969
 -21056962.41448 -16360011.13046  20633475.1644                   20633473.3914
 11  8 29  0  9 30.0000000  0  8G25G10G12G09G17G04G05G02
  -8673529.906 7  -6744156.582 7  23111773.219
 -19151475.39147 -14861089.60646  21024854.6804                   21024855.8984
 -19342814.834 7 -15051464.637 7  20940305.602
   2733755.03846   2180437.34642  24544951.7664                   24544960.2584
  -4491005.941 6  -3453225.699 6  23780834.445
 -11826282.94647  -9148464.63445  22387855.3754                   22387857.1134
 -17629908.881 8 -13720224.655 7  21279427.477
 -21046734.19148 -16352041.07946  20635421.3594                   20635419.9144
 11  8 29  0 10  0.0000000  0  8G25G10G12G09G17G04G05G02
  -8758952.839 7  -6810719.884 7  23095517.430
 -19121502.19448 -14837733.86746  21030558.1884                   21030559.9024
 -19375312.041 8 -15076787.137 7  20934121.461
   2817948.54146   2246042.52942  24560973.6254                   24560981.0314
  -4427141.157 6  -3403460.999 6  23792987.102
 -11744878.86447  -9085032.91745  22403346.1564                   22403348.5204
 -17703323.756 8 -13777430.996 7  21265456.766
 -21036265.35848 -16343883.55346  20637413.2504                   20637412.5434
 11  8 29  0 10 30.0000000  0  8G25G10G12G09G17G04G05G02
  -8844049.450 7  -6877028.927 6  23079324.359
 -19090918.72047 -14813902.57946  21036378.1334                   21036379.3094
 -19407269.607 8 -15101689.131 7  20928039.922
   2902129.67246   2311638.02443  24576993.4844                   24576999.8674
  -4363098.917 6  -3353558.049 6  23805174.609
 -11663414.55547  -9021554.28444  22418848.6564                   22418850.4774
 -17776308.812 8 -13834302.405 7  21251568.258
 -21025556.24048 -16335538.78546  20639451.4384                   20639450.1804
 11  8 29  0 11  0.0000000  0  8G25G10G12G09G17G04G05G02
  -8928817.570 7  -6943081.961 6  23063193.664
 -19059726.59647 -14789597.01346  21042313.8834                   21042315.2544
 -19438686.868 8 -15126170.126 7  20922061.594
   2986294.83246   2377221.08143  24593008.9694                   24593017.3874
  -4298879.229 6  -3303516.812 6  23817394.641
 -11581891.70547  -8958030.01944  22434361.4304                   22434363.4884
 -17848861.976 8 -13890837.287 7  21237761.766
 -21014608.44748 -16327008.03146  20641534.4454                   20641533.1374
 11  8 29  0 11 30.0000000  0  8G25G10G12G09G17G04G05G02
  -9013254.410 7  -7008876.887 6  23047125.492
 -19027926.98747 -14764818.09746  21048365.1724                   21048366.5234
 -19469562.126 8 -15150228.770 7  20916186.266
   3070441.01846   2442789.36343  24609022.2814                   24609029.8914
  -4234481.889 6  -3253337.153 6  23829650.367
 -11500311.72947  -8894461.24344  22449884.9844                   22449887.6524
 -17920980.865 8 -13947033.765 7  21224038.180
 -21003422.87248 -16318291.98846  20643663.2504                   20643661.9454
 11  8 29  0 12  0.0000000  0  8G25G10G12G09G17G04G05G02
  -9097357.244 7  -7074411.570 6  23031121.094
 -18995520.83547 -14739566.54046  21054531.9534                   21054533.3054
 -19499893.881 8 -15173863.901 7  20910414.641
   3154565.58446   2508340.79943  24625029.9924                   24625037.7384
  -4169906.266 6  -3203018.563 6  23841938.492
 -11418676.12447  -8830849.13244  22465420.4534                   22465422.3914
 -17992663.052 8 -14002889.952 7  21210397.078
 -20992000.76548 -16309391.64146  20645836.5704                   20645835.5944
 11  8 29  0 12 30.0000000  0  8G25G10G12G09G17G04G05G02
  -9181124.410 7  -7139684.640 6  23015181.305
 -18962510.53247 -14713844.22446  21060813.2664                   21060814.7504
 -19529681.405 8 -15197074.949 7  20904745.781
   3238664.17546   2573872.02743  24641034.2114                   24641040.8794
  -4105153.092 6  -3152561.643 6  23854259.992
 -11336987.36147  -8767195.59044  22480965.8594                   22480967.8134
 -18063906.757 8 -14058404.488 7  21196840.070
 -20980344.13248 -16300308.54946  20648054.7504                   20648053.1954
 11  8 29  0 13  0.0000000  0  8G25G10G12G09G17G04G05G02
  -9264552.097 7  -7204693.229 7  22999305.391
 -18928896.23447 -14687651.26146  21067210.3754                   21067211.6254
 -19558922.723 8 -15219860.381 7  20899181.648
   3322735.04046   2639381.60043  24657031.3054                   24657039.9574
  -4040221.228 6  -3101965.489 6  23866615.930
 -11255245.39247  -8703500.58144  22496520.2974                   22496522.3794
 -18134709.203 8 -14113575.164 7  21183366.563
 -20968452.70548 -16291042.50046  20650318.0234                   20650316.3634
 11  8 29  0 13 30.0000000  0  8G25G10G12G09G17G04G05G02
  -9347638.512 7  -7269435.867 7  22983494.453
 -18894679.82647 -14660989.11446  21073721.2504                   21073722.7584
 -19587616.989 8 -15242219.546 7  20893721.242
   3406774.51346   2704866.82643  24673024.9774                   24673031.6994
  -3975111.370 6  -3051230.628 6  23879006.820
 -11173452.94047  -8639766.24544  22512085.0944                   22512087.3754
 -18205068.644 8 -14168400.642 7  21169977.789
 -20956328.70948 -16281595.22446  20652624.9774                   20652623.8714
 11  8 29  0 14  0.0000000  0  8G25G10G12G09G17G04G05G02
  -9430380.695 7  -7333910.254 7  22967748.977
 -18859862.26948 -14633858.55146  21080346.9534                   21080348.1564
 -19615762.477 8 -15264151.078 7  20888365.133
   3490779.47246   2770324.99742  24689010.5234                   24689017.1884
  -3909822.623 6  -3000356.364 6  23891430.922
 -11091610.85847  -8575993.23745  22527659.3594                   22527660.8674
 -18274981.975 8 -14222878.512 7  21156673.656
 -20943972.74648 -16271967.19046  20654976.1484                   20654974.7584
 11  8 29  0 14 30.0000000  0  8G25G10G12G09G17G04G05G02
  -9512775.667 7  -7398114.081 6  22952069.555
 -18824444.60847 -14606260.35546  21087086.7114                   21087088.0904
 -19643357.495 8 -15285653.673 8  20883114.086
   3574747.38246   2835754.41142  24704989.0704                   24704996.1844
  -3844354.861 6  -2949342.615 6  23903888.625
 -11009720.37147  -8512182.50344  22543242.4774                   22543244.6374
 -18344446.738 8 -14277006.840 7  21143455.078
 -20931385.83848 -16262159.20346  20657371.1024                   20657369.7544
 11  8 29  0 15  0.0000000  0  8G25G10G12G09G17G04G05G02
  -9594821.276 7  -7462045.707 6  22936456.867
 -18788428.82748 -14578196.11146  21093939.8754                   21093941.6174
 -19670401.324 8 -15306726.766 7  20877967.930
   3658674.78445   2901152.16742  24720960.5314                   24720966.7894
  -3778708.124 6  -2898189.428 6  23916381.086
 -10927783.43447  -8448335.60145  22558834.4454                   22558836.7114
 -18413461.176 8 -14330784.282 7  21130321.570
 -20918569.62948 -16252172.54546  20659810.0234                   20659808.5314
 11  8 29  0 15 30.0000000  0  8G25G10G12G09G17G04G05G02
  -9676514.307 7  -7525702.571 6  22920911.375
 -18751815.88948 -14549666.55146  21100907.3054                   21100908.9304
 -19696892.280 8 -15327369.061 7  20872926.789
   3742559.18445   2966516.46242  24736923.3054                   24736929.9804
  -3712881.713 6  -2846896.207 6  23928907.023
 -10845800.71947  -8384453.01644  22574435.7504                   22574437.5514
 -18482022.490 8 -14384208.621 7  21117275.000
 -20905524.34948 -16242007.40246  20662292.4534                   20662291.1484
 11  8 29  0 16  0.0000000  0  8G25G10G12G09G17G04G05G02
  -9757853.092 7  -7589083.411 6  22905433.070
 -18714608.35747 -14520673.67345  21107987.9064                   21107988.9884
 -19722829.621 8 -15347579.954 7  20867990.820
   3826396.59045   3031844.21142  24752877.0634                   24752884.1764
  -3646876.017 6  -2795463.270 6  23941467.828
 -10763774.59347  -8320536.61244  22590044.5554                   22590046.8164
 -18550129.764 8 -14437279.178 7  21104314.297
 -20892252.24348 -16231665.50346  20664817.6954                   20664816.6684
 11  8 29  0 16 30.0000000  0  8G25G10G12G09G17G04G05G02
  -9838834.008 7  -7652185.379 7  22890022.625
 -18676805.96247 -14491217.26846  21115181.1644                   21115182.7234
 -19748211.600 8 -15367358.107 7  20863160.906
   3910185.20045   3097133.85442  24768819.7734                   24768829.4804
  -3580690.073 6  -2743889.901 6  23954062.445
 -10681705.34147  -8256586.59544  22605661.3754                   22605663.9104
 -18617779.101 8 -14489992.894 7  21091440.844
 -20878753.32148 -16221146.87346  20667386.6564                   20667385.5664
 11  8 29  0 17  0.0000000  0  8G25G10G12G09G17G04G05G02
  -9919454.743 7  -7715006.663 7  22874680.992
 -18638410.76347 -14461298.94046  21122487.3834                   21122488.6764
 -19773036.954 8 -15386702.543 7  20858436.984
 -55872038.33755 -43486417.18652  24784755.1724                   24784764.6724
  -3514324.113 6  -2692176.283 6  23966691.555
 -10599594.79747  -8192604.41044  22621286.7974                   22621289.2504
 -18684968.588 8 -14542348.278 7  21078655.672
 -20865029.17748 -16210452.74846  20669998.4064                   20669997.1374
 11  8 29  0 17 30.0000000  0  8G25G10G12G09G17G04G05G02
  -9999714.527 7  -7777546.686 7  22859407.836
 -18599426.13647 -14430921.30345  21129906.2424                   21129907.3834
 -19797306.310 8 -15405613.732 7  20853818.914
 -55788358.89445 -43421212.61142  24800678.6174                   24800689.8634
  -3447779.764 6  -2640323.624 6  23979354.414
 -10517445.96547  -8128592.35744  22636919.2344                   22636921.2974
 -18751698.098 8 -14594345.248 7  21065956.797
 -20851082.82048 -16199585.46046  20672652.5084                   20672651.0554
 11  8 29  0 18  0.0000000  0  8G25G10G12G09G17G04G05G02
 -10079608.984 7  -7839802.030 7  22844204.641
 -18559851.63348 -14400084.03746  21137437.3444                   21137438.1134
 -19821016.561 8 -15424089.246 7  20849306.805
 -55704737.435 5                  24816591.625
  -3381055.025 6  -2588330.420 6  23992052.766
 -10435258.45447  -8064550.21144  22652558.8984                   22652561.6254
 -18817963.671 8 -14645980.689 7  21053346.852
 -20836913.06848 -16188544.10146  20675348.6024                   20675347.2774
 11  8 29  0 18 30.0000000  0  8G25G10G12G09G17G04G05G02
 -10159135.923 7  -7901771.017 7  22829071.055
 -18519689.23947 -14368788.67646  21145079.6414                   21145080.5124
 -19844166.777 8 -15442128.375 7  20844901.289
 -55621177.729 5                  24832492.969
  -3314150.083 6  -2536196.785 6  24004784.219
 -10353034.16247  -8000479.37144  22668205.7114                   22668207.8324
 -18883763.382 8 -14697253.142 7  21040826.063
 -20822521.72148 -16177330.07746  20678087.0474                   20678085.8404
 11  8 29  0 19  0.0000000  0  8G25G10G12G09G17G04G05G02
 -10238278.761 7  -7963440.688 7  22814010.938
 -18478926.44647 -14337025.46945  21152836.2194                   21152837.4734
 -19866742.633 8 -15459719.965 7  20840604.992
 -55537668.518 6                  24848385.383
  -3247050.776 6  -2483911.710 6  24017552.938
 -10270760.11047  -7936369.77445  22683861.8984                   22683865.2584
 -18949081.077 8 -14748149.999 7  21028396.438
 -20807895.93248 -16165933.36146  20680870.1804                   20680869.2274
 11  8 29  0 19 30.0000000  0  7G25G10G12G17G04G05G02
 -10317063.195 7  -8024831.108 7  22799019.055
 -18437593.13348 -14304817.70045  21160702.0004                   21160703.1724
 -19888770.687 8 -15476884.706 7  20836412.945
  -3179785.166 6  -2431497.049 6  24030352.602
 -10188466.34147  -7872244.81244  22699522.3834                   22699525.2384
 -19013942.915 8 -14798691.628 7  21016053.484
 -20793065.11148 -16154376.89046  20683692.5554                   20683691.2974
 11  8 29  0 20  0.0000000  0  7G25G10G12G17G04G05G02
 -10395471.501 7  -8085928.437 7  22784097.914
 -18395675.62247 -14272154.72345  21168678.7194                   21168679.3554
 -19910234.903 8 -15493610.078 7  20832328.609
  -3112338.096 6  -2378940.979 6  24043187.266
 -10106138.60847  -7808093.38544  22715188.9694                   22715191.7814
 -19078331.328 8 -14848864.362 7  21003800.961
 -20778014.99648 -16142649.53946  20686557.1564                   20686555.2854
 11  8 29  0 20 30.0000000  0  7G25G10G12G17G04G05G02
 -10473502.570 7  -8146731.811 7  22769249.367
 -18353177.27048 -14239039.12345  21176766.1414                   21176766.7194
 -19931135.525 8 -15509896.302 7  20828351.336
  -3044710.939 6  -2326244.565 6  24056056.906
 -10023779.86947  -7743917.79344  22730860.9144                   22730864.0084
 -19142246.105 8 -14898668.050 7  20991637.930
 -20762748.35848 -16130753.45146  20689461.3834                   20689460.1994
 11  8 29  0 21  0.0000000  0  7G25G10G12G17G04G05G02
 -10551153.470 7  -8207238.956 7  22754472.875
 -18310099.37847 -14205471.94645  21184963.1804                   21184964.5204
 -19951471.010 8 -15525742.156 7  20824481.703
  -2976903.050 6  -2273407.356 6  24068960.414
  -9941391.01547  -7679718.74044  22746539.2734                   22746542.3524
 -19205684.420 8 -14948100.444 7  20979566.016
 -20747265.68648 -16118689.04446  20692407.8524                   20692406.8794
 11  8 29  0 21 30.0000000  0  7G25G10G12G17G04G05G02
 -10628421.665 7  -8267447.903 7  22739769.219
 -18266443.58147 -14171454.46445  21193270.9694                   21193271.8444
 -19971240.568 8 -15541147.025 7  20820720.031
  -2908914.283 6  -2220429.190 5  24081898.305
  -9858973.32747  -7615497.23244  22762222.7274                   22762225.6564
 -19268644.323 8 -14997160.060 7  20967585.148
 -20731568.26248 -16106457.30446  20695395.1564                   20695394.1214
 11  8 29  0 22  0.0000000  0  7G25G10G12G17G04G05G02
 -10705304.078 7  -8327356.242 7  22725138.625
 -18222210.58947 -14136987.20146  21201687.9224                   21201689.2664
 -19990442.707 8 -15556109.757 7  20817066.172
  -2840743.948 6  -2167309.519 6  24094870.188
  -9776527.49347  -7551253.74944  22777911.2344                   22777914.3714
 -19331123.069 8 -15045844.744 7  20955695.695
 -20715656.72648 -16094058.71646  20698422.7114                   20698421.7304
 11  8 29  0 22 30.0000000  0  7G25G10G12G17G04G05G02
 -10781798.842 7  -8386962.559 7  22710581.992
 -18177403.13047 -14102072.30645  21210214.5784                   21210215.6524
 -20009076.807 8 -15570629.849 7  20813520.148
  -2772392.738 6  -2114048.936 6  24107877.430
  -9694055.39847  -7486989.83344  22793605.3134                   22793608.1294
 -19393119.450 8 -15094153.567 7  20943898.461
 -20699532.73648 -16081494.57746  20701491.6174                   20701490.3284
 11  8 29  0 23  0.0000000  0  7G25G10G12G17G04G05G02
 -10857903.007 7  -8446264.483 7  22696100.266
 -18132022.59547 -14066710.87345  21218850.2664                   21218851.3054
 -20027142.010 8 -15584706.657 7  20810082.141
  -2703859.983 6  -2060646.855 6  24120919.250
  -9611557.82047  -7422706.03644  22809304.8984                   22809306.7154
 -19454630.724 8 -15142084.373 7  20932193.000
 -20683196.97148 -16068765.40946  20704600.2814                   20704598.2154
 11  8 29  0 23 30.0000000  0  7G25G10G12G17G04G05G02
 -10933614.543 7  -8505260.465 7  22681692.664
 -18086071.20348 -14030904.59745  21227594.1954                   21227595.8594
 -20044637.445 8 -15598339.479 7  20806753.008
  -2635146.187 6  -2007103.748 6  24133995.039
  -9529036.73647  -7358403.93044  22825008.0004                   22825009.8754
 -19515655.681 8 -15189636.236 7  20920580.352
 -20666650.89648 -16055872.35146  20707748.9064                   20707747.0164
 11  8 29  0 24  0.0000000  0  7G25G10G12G17G04G05G02
 -11008930.562 7  -8563948.239 7  22667360.055
 -18039550.16148 -13994654.43745  21236447.2114                   21236447.8324
 -20061561.880 8 -15611527.359 7  20803532.547
  -2566250.823 6  -1953419.101 6  24147105.508
  -9446492.91247  -7294084.10144  22840715.3204                   22840717.4964
 -19576191.921 8 -15236807.291 7  20909060.422
 -20649895.19548 -16042815.96246  20710937.0084                   20710935.5824
 11  8 29  0 24 30.0000000  0  7G25G10G12G17G04G05G02
 -11083848.847 7  -8622326.121 7  22653103.250
 -17992461.93848 -13957962.32245  21245407.7584                   21245408.9264
 -20077914.922 8 -15624269.995 7  20800420.797
  -2497174.338 6  -1899593.344 6  24160250.266
  -9363927.68647  -7229747.59944  22856426.9454                   22856429.5234
 -19636237.661 8 -15283596.119 7  20897634.375
 -20632931.54348 -16029597.53146  20714165.1804                   20714163.9264
 11  8 29  0 25  0.0000000  0  7G25G10G12G17G04G05G02
 -11158366.555 7  -8680391.857 7  22638923.125
 -17944807.47448 -13920828.99045  21254476.0474                   21254477.3714
 -20093695.400 8 -15636566.476 7  20797417.891
  -2427916.101 6  -1845625.975 6  24173429.133
  -9281341.91747  -7165395.08844  22872142.4454                   22872144.8554
 -19695790.421 8 -15330000.823 7  20886301.844
 -20615760.38848 -16016217.40246  20717433.1024                   20717431.6094
 11  8 29  0 25 30.0000000  0  7G25G10G12G17G04G05G02
 -11232481.889 7  -8738144.063 7  22624819.195
 -17896589.63747 -13883256.65545  21263651.8834                   21263653.0044
 -20108902.831 8 -15648416.421 7  20794523.859
  -2358476.624 6  -1791517.383 6  24186643.789
  -9198737.75447  -7101028.28544  22887861.8524                   22887864.6374
 -19754849.090 8 -15376020.513 7  20875063.063
 -20598383.46248 -16002676.93446  20720739.6174                   20720737.5824
 11  8 29  0 26  0.0000000  0  7G25G10G12G17G04G05G02
 -11306192.270 7  -8795580.702 7  22610793.164
 -17847810.10747 -13845246.64445  21272933.9064                   21272935.4844
 -20123536.560 7 -15659819.325 7  20791739.320
  -2288856.061 6  -1737267.663 6  24199891.977
  -9116116.13947  -7036647.87544  22903583.7194                   22903586.6024
 -19813412.039 8 -15421653.942 7  20863919.297
 -20580802.12947 -15988977.18246  20724085.0944                   20724083.8674
 11  8 29  0 26 30.0000000  0  7G25G10G12G17G04G05G02
 -11379494.753 7  -8852699.501 7  22596844.398
 -17798470.26947 -13806800.03245  21282323.2664                   21282324.4224
 -20137595.258 8 -15670774.161 7  20789063.992
  -2219053.863 6  -1682876.379 6  24213174.930
  -9033477.72447  -6972254.37044  22919309.7974                   22919312.5124
 -19871476.556 8 -15466898.966 7  20852869.953
 -20563016.55748 -15975118.29346  20727469.3984                   20727468.1524
 11  8 29  0 27  0.0000000  0  7G25G10G12G17G04G05G02
 -11452387.211 7  -8909498.807 7  22582973.281
 -17748572.53047 -13767918.68545  21291818.3984                   21291819.6684
 -20151078.506 8 -15681280.580 7  20786498.070
  -2149070.289 7  -1628343.829 6  24226492.555
  -8950824.29447  -6907849.16644  22935038.1804                   22935040.8554
 -19929041.129 8 -15511754.433 7  20841915.281
 -20545028.37048 -15961101.50146  20730892.7344                   20730891.4534
 11  8 29  0 27 30.0000000  0  7G25G10G12G17G04G05G02
 -11524867.559 7  -8965976.998 7  22569180.633
 -17698119.00247 -13728604.25145  21301419.3754                   21301420.7504
 -20163985.931 8 -15691338.305 7  20784041.680
  -2078905.463 7  -1573670.002 6  24239844.398
  -8868156.87847  -6843433.05744  22950769.2194                   22950772.2274
 -19986103.914 8 -15556218.895 7  20831056.922
 -20526838.86248 -15946927.83946  20734353.8054                   20734352.5864
 11  8 29  0 28  0.0000000  0  7G25G10G12G17G04G05G02
 -11596932.824 7  -9022131.715 7  22555467.367
 -17647111.15847 -13688857.89845  21311125.9694                   21311127.0234
 -20176316.241 8 -15700946.333 7  20781695.180
  -2008558.622 7  -1518854.313 6  24253231.344
  -8785476.22847  -6779006.62544  22966502.6254                   22966505.6374
 -20042662.949 8 -15600290.813 7  20820293.945
 -20508448.65048 -15932597.78546  20737853.6804                   20737851.9024
 11  8 29  0 28 30.0000000  0  7G25G10G12G17G04G05G02
 -11668580.415 7  -9077960.981 7  22541832.523
 -17595550.60947 -13648680.85445  21320937.2584                   21320938.7504
 -20188068.372 8 -15710103.828 7  20779459.609
  -1938029.968 7  -1463896.975 6  24266652.242
  -8702783.67047  -6714570.92344  22982239.0784                   22982241.1294
 -20098716.059 8 -15643968.517 7  20809627.141
 -20489858.53048 -15918111.95346  20741390.8364                   20741389.7234
 11  8 29  0 29  0.0000000  0  7G25G10G12G17G04G05G02
 -11739807.603 7  -9133462.683 7  22528279.125
 -17543439.05947 -13608074.46145  21330853.9454                   21330854.9804
 -20199242.159 8 -15718810.665 7  20777332.820
  -1867319.434 6  -1408797.933 6  24280108.188
  -8620079.64047  -6650126.27644  22997976.7584                   22997979.4534
 -20154261.277 8 -15687250.458 7  20799057.500
 -20471069.50848 -15903471.14446  20744966.5704                   20744964.7734
 11  8 29  0 29 30.0000000  0  7G25G10G12G17G04G05G02
 -11810613.406 7  -9188636.004 7  22514804.922
 -17490780.22747 -13567041.61346  21340874.8984                   21340876.5204
 -20209837.784 8 -15727066.996 7  20775316.492
  -1796427.986 6  -1353557.903 6  24293597.742
  -8537366.78247  -6585674.76144  23013716.3594                   23013719.2814
 -20209297.810 8 -15730136.020 7  20788584.117
 -20452083.96648 -15888677.20246  20748579.4844                   20748577.5664
 11  8 29  0 30  0.0000000  0  7G25G10G12G17G04G05G02
 -11880994.651 7  -9243478.502 7  22501411.445
 -17437575.45347 -13525583.34645  21350999.0084                   21351000.4964
 -20219853.690 8 -15734871.585 7  20773410.672
  -1725354.783 7  -1298176.248 6  24307122.828
  -8454645.32946  -6521216.51544  23029458.1884                   23029460.5434
 -20263823.243 8 -15772623.315 7  20778208.367
 -20432902.20848 -15873730.37146  20752229.7274                   20752227.6094
 11  8 29  0 30 30.0000000  0  7G25G10G12G17G04G05G02
 -11950948.775 7  -9297988.186 7  22488099.633
 -17383826.35347 -13483700.93845  21361226.8204                   21361228.3364
 -20229289.333 8 -15742224.032 8  20771614.734
  -1654099.961 6  -1242653.066 6  24320682.148
  -8371916.47646  -6456752.53644  23045201.0004                   23045203.8594
 -20317836.124 8 -15814711.230 8  20767929.797
 -20413525.08348 -15858631.28946  20755916.8754                   20755915.0704
 11  8 29  0 31  0.0000000  0  7G25G10G12G17G04G05G02
 -12020473.878 7  -9352163.575 7  22474869.797
 -17329535.54447 -13441396.41245  21371558.5784                   21371559.7384
 -20238144.377 8 -15749124.054 7  20769930.000
  -1582663.787 6  -1186988.591 6  24334276.227
  -8289181.52347  -6392283.77044  23060944.6484                   23060947.4384
 -20371335.124 8 -15856398.718 8  20757749.641
 -20393953.73748 -15843380.88146  20759641.0314                   20759639.7464
 11  8 29  0 31 30.0000000  0  7G25G10G12G17G04G05G02
 -12089567.934 7  -9406003.067 7  22461720.359
 -17274705.49347 -13398671.70545  21381992.0554                   21381993.6524
 -20246419.418 8 -15755572.138 7  20768354.930
  -1511046.841 7  -1131183.243 6  24347905.609
  -8206442.01546  -6327811.45044  23076689.7194                   23076692.4024
 -20424318.816 8 -15897684.656 7  20747666.836
 -20374189.99848 -15827980.55946  20763402.1094                   20763400.3634
 11  8 29  0 32  0.0000000  0  8G25G10G12G29G17G04G05G02
 -12158227.773 7  -9459504.218 7  22448655.836
 -17219337.44747 -13355527.77845  21392528.7894                   21392529.7814
 -20254112.550 8 -15761566.791 7  20766890.969
   -672484.54416   -510903.62316  24642753.086
  -1439248.348 6  -1075236.407 6  24361567.289
  -8123698.13247  -6263335.74244  23092435.4384                   23092437.9884
 -20476784.513 8 -15938566.969 7  20737682.984
 -20354233.93848 -15812430.37346  20767199.7734                   20767197.5744
 11  8 29  0 32 30.0000000  0  8G25G10G12G29G17G04G05G02
 -12226446.263 7  -9512661.481 7  22435674.344
 -17163428.64847 -13311962.47545  21403167.5084                   21403169.1094
 -20261218.679 8 -15767104.015 7  20765538.789
   -753142.249 6   -573753.696 5  24627403.063
  -1367263.361 6  -1019144.256 6  24375265.836
  -8040946.30447  -6198853.83544  23108182.5944                   23108185.1954
 -20528725.997 8 -15979040.803 8  20727798.891
 -20334082.18948 -15796727.70046  20771034.4534                   20771032.5594
 11  8 29  0 33  0.0000000  0  8G25G10G12G29G17G04G05G02
 -12294231.527 7  -9565481.120 7  22422775.641
 -17106991.72947 -13267985.66745  21413906.9694                   21413908.3164
 -20267747.748 8 -15772191.600 7  20764296.641
   -833876.312 7   -636663.317 5  24612040.039
  -1295102.377 6   -962915.001 6  24388998.063
  -7958197.81247  -6134374.53844  23123929.7034                   23123932.1884
 -20580151.720 8 -16019112.757 8  20718012.844
 -20313745.72348 -15780881.09546  20774904.0164                   20774902.2974
 11  8 29  0 33 30.0000000  0  8G25G10G12G29G17G04G05G02
 -12361575.287 7  -9617956.767 7  22409960.398
 -17050022.92247 -13223594.39745  21424748.1094                   21424749.5234
 -20273693.286 8 -15776824.489 7  20763165.273
   -914680.092 6   -699627.278 6  24596663.711
  -1222759.704 6   -906544.161 6  24402763.641
  -7875448.01946  -6069894.23444  23139675.9844                   23139678.6254
 -20631054.136 8 -16058776.930 8  20708326.242
 -20293219.58048 -15764886.69746  20778810.1884                   20778808.2854
 11  8 29  0 34  0.0000000  0  8G25G10G12G29G17G04G05G02
 -12428476.203 7  -9670087.344 7  22397229.688
 -16992525.23647 -13178791.02045  21435689.5314                   21435691.0044
 -20279055.845 8 -15781003.108 7  20762144.578
   -995553.919 6   -762645.797 6  24581273.633
  -1150236.470 6   -850032.599 6  24416565.273
  -7792698.76546  -6005414.30243  23155423.1884                   23155424.7734
 -20681432.969 8 -16098033.115 7  20698739.430
 -20272505.99448 -15748746.25046  20782751.7424                   20782749.7034
 11  8 29  0 34 30.0000000  0  8G25G10G12G29G17G04G05G02
 -12494931.064 7  -9721870.300 7  22384583.719
 -16934500.07647 -13133576.61745  21446731.6724                   21446732.3984
 -20283834.069 8 -15784726.410 7  20761234.953
  -1076496.560 6   -825717.912 6  24565870.063
  -1077531.669 6   -793379.543 6  24430400.023
  -7709950.08446  -5940934.85343  23171169.0084                   23171172.0744
 -20731285.454 8 -16136879.148 7  20689252.844
 -20251604.82948 -15732459.62546  20786729.5704                   20786727.6524
 11  8 29  0 35  0.0000000  0  8G25G10G12G29G17G04G05G02
 -12560938.318 7  -9773304.515 7  22372022.969
 -16875950.06347 -13087953.23545  21457873.2194                   21457874.5704
 -20288028.496 7 -15787994.803 7  20760437.406
  -1157508.107 6   -888843.779 6  24550455.156
  -1004646.112 5   -736585.620 6  24444268.414
  -7627203.73146  -5876457.19443  23186914.3364                   23186917.1804
 -20780611.108 8 -16175314.684 7  20679866.586
 -20230518.12448 -15716028.42346  20790742.1174                   20790740.3554
 11  8 29  0 35 30.0000000  0  8G25G10G12G29G17G04G05G02
 -12626495.810 7  -9824388.243 7  22359547.516
 -16816877.94947 -13041923.03545  21469114.2814                   21469115.4224
 -20291639.084 8 -15790808.262 7  20759749.984
  -1238588.029 6   -952022.917 6  24535026.039
   -931580.020 5   -679651.084 6  24458173.648
  -7544460.90246  -5811982.31843  23202660.4384                   23202663.5394
 -20829408.206 8 -16213338.359 8  20670580.602
 -20209247.08648 -15699453.59346  20794789.4844                   20794788.1844
 11  8 29  0 36  0.0000000  0  8G25G10G12G29G17G04G05G02
 -12691601.643 7  -9875120.028 7  22347158.000
 -16757286.12847 -12995487.86445  21480454.0314                   21480455.2664
 -20294665.267 8 -15793166.325 7  20759174.258
  -1319735.756 6  -1015254.849 6  24519584.148
   -858333.696 6   -622576.119 6  24472112.859
  -7461722.83547  -5747511.12944  23218404.8364                   23218407.7034
 -20877675.674 8 -16250949.321 7  20661395.570
 -20187792.77448 -15682735.95646  20798872.4844                   20798870.5944
 11  8 29  0 36 30.0000000  0  8G25G10G12G29G17G04G05G02
 -12756253.447 7  -9925498.040 7  22334855.055
 -16697176.79847 -12948649.42445  21491892.2894                   21491893.8524
 -20297107.108 8 -15795069.076 7  20758709.586
  -1400950.829 6  -1078539.263 6  24504129.734
   -784907.211 6   -565360.711 5  24486084.406
  -7378990.40647  -5683044.31644  23234149.0084                   23234151.4414
 -20925411.618 8 -16288146.119 8  20652311.766
 -20166156.30848 -15665876.37946  20802989.4384                   20802987.9884
 11  8 29  0 37  0.0000000  0  8G25G10G12G29G17G04G05G02
 -12820448.188 7  -9975519.883 7  22322639.031
 -16636551.47647 -12901408.92645  21503428.9064                   21503430.3284
 -20298963.668 7 -15796515.764 7  20758356.680
  -1482232.015 6  -1141875.195 6  24488662.320
   -711300.213 6   -508004.685 5  24500092.344
  -7296263.76147  -5618582.03944  23249891.3054                   23249894.0474
 -20972614.121 8 -16324927.245 8  20643329.016
 -20144337.71948 -15648874.89046  20807141.1094                   20807140.1094
 11  8 29  0 37 30.0000000  0  8G25G10G12G29G17G04G05G02
 -12884169.329 7 -10025172.717 7  22310513.648
 -16575398.26647 -12853757.08145  21515065.9614                   21515067.1294
 -20300220.032 8 -15797494.767 7  20758117.453
  -1563563.931 6  -1205250.634 6  24473185.242
   -637498.055 6   -450496.571 6  24514136.008
  -7213529.64347  -5554113.95644  23265635.3134                   23265638.1724
 -21019267.426 8 -16361280.425 8  20634451.570
 -20122323.82848 -15631721.21746  20811330.4144                   20811328.9964
 11  8 29  0 38  0.0000000  0  7G25G10G12G29G04G05G02
 -12947444.542 7 -10074478.058 7  22298472.914
 -16513749.18147 -12805718.85245  21526797.8834                   21526799.0354
 -20300906.093 8 -15798029.374 7  20757986.820
  -1644976.188 6  -1268688.625 6  24457692.875
  -7130818.60547  -5489663.86144  23281374.4774                   23281377.1174
 -21065399.460 8 -16397227.424 8  20625673.031
 -20100145.38448 -15614439.33046  20815550.9384                   20815549.6884
 11  8 29  0 38 30.0000000  0  7G25G10G12G29G04G05G02
 -13010256.162 7 -10123422.160 7  22286519.836
 -16451591.26947 -12757284.11845  21538625.9844                   21538627.0944
 -20301006.298 8 -15798107.471 7  20757967.258
  -1726452.579 6  -1332176.619 5  24442188.039
  -7048116.40747  -5425220.65844  23297111.7504                   23297115.8484
 -21110993.962 8 -16432755.552 8  20616996.391
 -20077788.16848 -15597018.13346  20819805.3984                   20819804.0274
 11  8 29  0 39  0.0000000  0  7G25G10G12G29G04G05G02
 -13072603.042 8 -10172004.124 7  22274656.086
 -16388927.69847 -12708455.38045  21550550.4694                   21550551.7894
 -20300521.420 8 -15797729.670 7  20758059.992
  -1807993.311 6  -1395714.737 6  24426670.805
  -6965424.89047  -5360785.76244  23312848.0084                   23312850.7304
 -21156050.415 8 -16467864.424 8  20608422.602
 -20055254.11648 -15579459.13246  20824093.4384                   20824092.0474
 11  8 29  0 39 30.0000000  0  7G25G10G12G29G04G05G02
 -13134481.929 8 -10220221.436 7  22262880.398
 -16325759.70547 -12659233.58445  21562570.8054                   21562571.9224
 -20299450.052 8 -15796894.865 7  20758263.758
  -1889596.695 7  -1459301.713 5  24411142.523
  -6882744.11547  -5296359.24944  23328581.7424                   23328584.8014
 -21200566.303 8 -16502552.084 8  20599951.039
 -20032542.67548 -15561761.91346  20828415.3054                   20828413.9344
 11  8 29  0 40  0.0000000  0  7G25G10G12G29G04G05G02
 -13195891.168 8 -10268072.792 7  22251194.758
 -16262089.98847 -12609620.82245  21574686.3674                   21574687.8484
 -20297792.954 7 -15795603.633 7  20758579.516
  -1971262.519 7  -1522937.400 5  24395602.922
  -6800075.15447  -5231941.95944  23344313.3054                   23344316.2504
 -21244540.926 8 -16536817.976 8  20591583.305
 -20009655.56948 -15543927.82346  20832770.6334                   20832769.6094
 11  8 29  0 40 30.0000000  0  7G25G10G12G29G04G05G02
 -13256828.468 7 -10315556.404 7  22239599.273
 -16197921.06647 -12559619.08045  21586897.6954                   21586898.7584
 -20295549.547 8 -15793855.545 7  20759006.203
  -2052990.067 6  -1586621.177 5  24380049.664
  -6717418.84447  -5167534.51644  23360042.1954                   23360045.1884
 -21287972.773 8 -16570660.928 8  20583318.266
 -19986593.54448 -15525957.42246  20837158.7894                   20837157.5784
 11  8 29  0 41  0.0000000  0  7G25G10G12G29G04G05G02
 -13317291.958 8 -10362670.816 7  22228093.016
 -16133255.21947 -12509230.11545  21599203.2894                   21599203.7584
 -20292720.276 8 -15791650.930 7  20759544.531
  -2134778.777 6  -1650352.602 6  24364485.945
  -6634776.27247  -5103137.77744  23375768.2424                   23375771.5984
 -21330860.569 8 -16604079.954 7  20575157.328
 -19963358.10548 -15507851.88846  20841580.5084                   20841579.4224
 11  8 29  0 41 30.0000000  0  7G25G10G12G29G04G05G02
 -13377279.508 8 -10409414.345 7  22216678.156
 -16068095.50847 -12458456.32345  21611603.0554                   21611603.8484
 -20289305.143 8 -15788989.819 7  20760194.602
  -2216627.776 6  -1714130.978 6  24348910.625
  -6552148.47146  -5038752.55944  23391492.9304                   23391495.4414
 -21373203.166 8 -16637074.135 8  20567099.531
 -19939949.95148 -15489611.78446  20846035.0864                   20846033.3674
 11  8 29  0 42  0.0000000  0  7G25G10G12G29G04G05G02
 -13436789.104 8 -10455785.463 7  22205354.000
 -16002444.04747 -12407299.35945  21624095.5704                   21624097.0784
 -20285304.128 8 -15785872.157 7  20760955.852
  -2298536.408 6  -1777955.897 6  24333324.297
  -6469536.15247  -4974379.38843  23407212.8674                   23407215.9024
 -21414999.466 8 -16669642.647 8  20559145.938
 -19916370.18248 -15471237.93946  20850522.2274                   20850521.1884
 11  8 29  0 42 30.0000000  0  7G25G10G12G29G04G05G02
 -13495818.566 7 -10501782.438 7  22194120.828
 -15936303.07147 -12355760.95445  21636681.7274                   21636682.9344
 -20280717.307 8 -15782298.024 7  20761828.602
  -2380504.230 6  -1841826.925 6  24317725.531
  -6386940.28246  -4910019.02743  23422930.1724                   23422932.5634
 -21456248.218 8 -16701784.490 8  20551296.539
 -19892619.92348 -15452731.23846  20855041.8134                   20855040.1804
 11  8 29  0 43  0.0000000  0  7G25G10G12G29G04G05G02
 -13554365.905 8 -10547403.743 7  22182979.453
 -15869675.23547 -12303843.16145  21649361.2274                   21649362.2704
 -20275544.360 8 -15778267.174 7  20762813.156
  -2462530.250 6  -1905743.237 6  24302117.438
  -6304361.70146  -4845672.13543  23438643.9304                   23438646.9454
 -21496948.201 8 -16733498.717 8  20543551.445
 -19868699.70548 -15434092.11446  20859593.6334                   20859592.1094
 11  8 29  0 43 30.0000000  0  7G25G10G12G29G04G05G02
 -13612428.493 8 -10592647.305 7  22171930.484
 -15802562.44147 -12251547.48845  21662131.9144                   21662133.3754
 -20269785.033 8 -15773779.412 7  20763908.977
  -2544613.061 6  -1969703.820 6  24286497.023
  -6221800.62246  -4781338.90243  23454355.6484                   23454358.1414
 -21537097.565 8 -16764783.904 8  20535911.508
 -19844610.09948 -15415321.00346  20864177.2664                   20864176.2894
 11  8 29  0 44  0.0000000  0  7G25G10G12G29G04G05G02
 -13670005.952 8 -10637512.854 7  22160973.914
 -15734968.93447 -12198877.22545  21674994.5864                   21674995.5944
 -20263441.466 8 -15768836.387 7  20765116.289
  -2626753.849 6  -2033709.669 6  24270865.758
  -6139259.46846  -4717021.20843  23470063.0004                   23470065.3244
 -21576696.999 8 -16795640.576 8  20528375.852
 -19820353.84348 -15396420.02546  20868793.3524                   20868792.2154
 11  8 29  0 44 30.0000000  0  7G25G10G12G29G04G05G02
 -13727094.806 8 -10681997.664 7  22150110.156
 -15666895.44547 -12145832.96045  21687948.4614                   21687950.1644
 -20256511.998 8 -15763436.817 7  20766434.859
  -2708950.132 6  -2097758.641 6  24255224.469
  -6056737.87046  -4652718.72243  23485765.4844                   23485769.0784
 -21615743.746 8 -16826066.586 8  20520945.305
 -19795930.21448 -15377388.63046  20873441.3364                   20873440.0004
 11  8 29  0 45  0.0000000  0  7G25G10G12G29G04G05G02
 -13783694.682 8 -10726101.459 7  22139339.758
 -15598346.24147 -12092417.99145  21700993.1174                   21700994.5164
 -20248998.439 8 -15757582.120 7  20767864.836
  -2791202.622 7  -2161851.441 6  24239572.594
  -5974238.19847  -4588433.32644  23501465.3364                   23501468.0164
 -21654238.432 8 -16856062.398 8  20513619.984
 -19771341.89448 -15358228.89546  20878120.0784                   20878118.4804
 11  8 29  0 45 30.0000000  0  7G25G10G12G29G04G05G02
 -13839802.547 8 -10769821.861 7  22128662.672
 -15529322.98347 -12038633.66145  21714128.0004                   21714128.8834
 -20240900.039 8 -15751271.698 8  20769405.797
  -2873509.695 7  -2225986.803 6  24223910.469
  -5891759.88647  -4524164.57943  23517160.1254                   23517163.0234
 -21692178.987 8 -16885626.429 8  20506400.281
 -19746588.76547 -15338940.74546  20882830.0084                   20882828.8874
 11  8 29  0 46  0.0000000  0  7G25G10G12G29G04G05G02
 -13895415.947 8 -10813156.967 7  22118079.414
 -15459827.38047 -11984481.24445  21727353.0084                   21727353.7814
 -20232216.440 8 -15744505.279 7  20771058.109
  -2955870.139 7  -2290163.699 6  24208237.789
  -5809303.55047  -4459912.95344  23532851.0084                   23532853.6454
 -21729563.714 8 -16914757.337 8  20499286.172
 -19721671.17148 -15319524.44046  20887572.2114                   20887570.9184
 11  8 29  0 46 30.0000000  0  7G25G10G12G29G04G05G02
 -13950533.459 8 -10856105.662 7  22107591.586
 -15389862.68148 -11929963.30845  21740666.3134                   21740667.6134
 -20222948.464 8 -15737283.512 7  20772821.766
  -3038283.418 6  -2354381.814 6  24192554.313
  -5726870.27147  -4395679.27844  23548538.1954                   23548540.8754
 -21766391.987 8 -16943454.667 8  20492277.586
 -19696590.55948 -15299981.10346  20892345.1334                   20892343.6644
 11  8 29  0 47  0.0000000  0  7G25G10G12G29G04G05G02
 -14005153.626 8 -10898666.803 7  22097197.078
 -15319431.87247 -11875082.15845  21754068.5554                   21754070.3094
 -20213096.612 8 -15729606.767 8  20774696.805
  -3120749.344 6  -2418640.944 6  24176862.039
  -5644461.59547  -4331464.80144  23564220.0084                   23564222.8594
 -21802663.324 8 -16971717.992 8  20485375.820
 -19671348.34648 -15280311.84846  20897148.0784                   20897146.8754
 11  8 29  0 47 30.0000000  0  7G25G10G12G29G04G05G02
 -14059272.553 8 -10940837.384 7  22086898.492
 -15248535.45348 -11819838.20545  21767559.8914                   21767561.2304
 -20202659.433 8 -15721473.936 7  20776682.852
  -3203265.125 6  -2482938.860 6  24161159.289
  -5562076.06047  -4267268.34644  23579897.3364                   23579899.6374
 -21838375.225 8 -16999545.400 8  20478579.156
 -19645943.51448 -15260515.88346  20901982.4454                   20901981.4494
 11  8 29  0 48  0.0000000  0  7G25G10G12G29G04G05G02
 -14112889.776 8 -10982617.006 7  22076695.781
 -15177177.68747 -11764234.75545  21781138.6724                   21781140.4104
 -20191638.652 8 -15712886.339 7  20778780.117
  -3285831.429 6  -2547276.167 6  24145447.023
  -5479715.97047  -4203091.69444  23595569.8284                   23595573.3014
 -21873527.782 8 -17026936.957 8  20471890.648
 -19620378.30848 -15240594.94346  20906847.4844                   20906846.4024
 11  8 29  0 48 30.0000000  0  7G25G10G12G29G04G05G02
 -14166003.173 8 -11024004.053 7  22066588.250
 -15105360.80247 -11708273.56545  21794804.5784                   21794806.3244
 -20180034.444 8 -15703844.133 7  20780988.172
  -3368447.034 7  -2611651.869 6  24129726.008
  -5397381.61846  -4138935.11744  23611237.7034                   23611241.4304
 -21908119.955 8 -17053891.854 8  20465307.430
 -19594653.35248 -15220549.52246  20911743.0704                   20911741.4844
 11  8 29  0 49  0.0000000  0  7G25G10G12G29G04G05G02
 -14218611.134 8 -11064997.239 7  22056577.484
 -15033087.70547 -11651956.87945  21808557.8984                   21808559.6334
 -20167847.463 8 -15694347.807 7  20783307.391
  -3451111.286 6  -2676065.475 6  24113995.555
  -5315074.15946  -4074799.52143  23626899.8834                   23626903.3634
 -21942150.970 8 -17080409.490 8  20458832.008
 -19568769.82148 -15200380.53846  20916668.2344                   20916666.9494
 11  8 29  0 49 30.0000000  0  7G25G10G12G29G04G05G02
 -14270712.158 8 -11105595.417 7  22046663.352
 -14960361.44847 -11595287.08845  21822397.4144                   21822399.2584
 -20155078.542 8 -15684398.016 7  20785737.430
  -3533823.773 6  -2740516.662 6  24098255.070
  -5232794.72046  -4010685.74043  23642556.6954                   23642561.3674
 -21975620.049 8 -17106489.249 8  20452462.664
 -19542729.00248 -15180088.99346  20921623.5394                   20921622.5004
 11  8 29  0 50  0.0000000  0  7G25G10G12G29G04G05G02
 -14322304.595 8 -11145797.293 7  22036845.727
 -14887184.65047 -11538266.21745  21836322.4064                   21836324.1484
 -20141728.138 8 -15673995.129 7  20788277.688
  -3616583.751 6  -2805004.882 6  24082507.063
  -5150544.12846  -3946594.44643  23658209.4774                   23658213.2194
 -22008526.749 8 -17132130.797 8  20446201.008
 -19516532.04748 -15159675.78146  20926608.8834                   20926607.5594
 11  8 29  0 50 30.0000000  0  7G25G10G12G29G04G05G02
 -14373385.512 8 -11185600.577 7  22027124.906
 -14813558.83647 -11480895.48445  21850333.6174                   21850334.3324
 -20127795.453 8 -15663138.504 7  20790929.133
  -3699389.293 6  -2869528.608 6  24066749.859
  -5068322.05546  -3882525.39443  23673855.5164                   23673859.2034
 -22040869.293 8 -17157332.747 8  20440046.102
 -19490178.57148 -15139140.62146  20931624.0944                   20931622.2704
 11  8 29  0 51  0.0000000  0  7G25G10G12G29G04G05G02
 -14423954.790 8 -11225005.188 7  22017502.008
 -14739488.16947 -11423178.08045  21864428.4304                   21864429.9104
 -20113282.841 8 -15651829.998 7  20793690.516
  -3782240.859 6  -2934088.194 6  24050983.578
  -4986130.62746  -3818480.19943  23689496.0784                   23689499.5394
 -22072648.450 8 -17182095.683 8  20433998.781
 -19463670.96848 -15118485.33146  20936667.9694                   20936666.4304
 11  8 29  0 51 30.0000000  0  7G25G10G12G29G04G05G02
 -14474009.713 8 -11264009.017 7  22007976.984
 -14664974.73347 -11365115.67045  21878607.5704                   21878609.2154
 -20098189.713 8 -15640069.137 7  20796562.805
  -3865136.874 6  -2998682.425 6  24035209.344
  -4903969.63446  -3754458.71743  23705131.0474                   23705134.8444
 -22103862.304 8 -17206418.125 8  20428059.359
 -19437009.21648 -15097709.93546  20941741.7814                   20941739.9574
 11  8 29  0 52  0.0000000  0  7G25G10G12G29G04G05G02
 -14523548.487 8 -11302610.644 7  21998549.664
 -14590020.67347 -11306709.92445  21892871.4694                   21892872.1454
 -20082516.607 8 -15627856.327 7  20799545.586
  -3948076.430 7  -3063310.604 6  24019427.023
  -4821839.79246  -3690461.50043  23720758.4304                   23720762.8204
 -22134510.232 8 -17230299.594 8  20422226.969
 -19410194.17948 -15076815.10346  20946844.4694                   20946842.8834
 11  8 29  0 52 30.0000000  0  7G25G10G12G29G04G05G02
 -14572569.029 8 -11340808.449 7  21989221.867
 -14514628.67847 -11247962.93645  21907217.7974                   21907219.5634
 -20066263.589 8 -15615191.650 7  20802638.055
  -4031058.270 7  -3127971.707 6  24003634.852
  -4739741.59446  -3626488.98143  23736382.5944                   23736386.0474
 -22164591.182 8 -17253739.253 8  20416502.672
 -19383226.46748 -15055801.30946  20951975.9774                   20951974.8324
 11  8 29  0 53  0.0000000  0  7G25G10G12G29G04G05G02
 -14621070.235 8 -11378601.565 7  21979992.180
 -14438801.94847 -11188877.19245  21921647.2894                   21921648.5434
 -20049432.124 8 -15602076.231 7  20805840.984
  -4114081.933 7  -3192665.386 6  23987835.602
  -4657676.07046  -3562541.85743  23751999.1954                   23752002.7424
 -22194104.926 8 -17276736.951 8  20410886.391
 -19356107.45048 -15034669.61146  20957136.8284                   20957135.3554
 11  8 29  0 53 30.0000000  0  7G25G10G12G29G04G05G02
 -14669050.239 8 -11415988.568 7  21970861.953
 -14362543.04947 -11129454.69645  21936159.0004                   21936160.3204
 -20032022.853 8 -15588510.563 7  20809153.813
  -4197146.168 7  -3257390.696 6  23972028.859
  -4575643.81647  -3498620.63943  23767609.6564                   23767612.8014
 -22223050.526 8 -17299291.934 8  20405377.984
 -19328837.83948 -15013420.57046  20962326.0164                   20962324.4574
 11  8 29  0 54  0.0000000  0  7G25G10G12G29G04G05G02
 -14716508.180 8 -11452968.759 7  21961830.742
 -14285855.48547 -11069698.17045  21950751.9694                   21950753.8714
 -20014036.637 8 -15574495.337 7  20812576.742
  -4280251.130 7  -3322147.723 6  23956215.023
  -4493646.31346  -3434726.56243  23783213.6414                   23783216.2304
 -22251428.280 8 -17321404.429 8  20399978.094
 -19301419.41848 -14992055.57146  20967543.4774                   20967541.9184
 11  8 29  0 54 30.0000000  0  7G25G10G12G29G04G05G02
 -14763441.311 8 -11489539.990 7  21952899.828
 -14208740.85447 -11009608.87745  21965426.2894                   21965427.9144
 -19995473.757 8 -15560030.772 7  20816108.773
  -4363394.810 7  -3386934.971 6  23940393.180
  -4411683.02546  -3370859.10143  23798810.5474                   23798813.1054
 -22279236.529 8 -17343073.165 8  20394686.320
 -19273851.89048 -14970574.37846  20972789.3674                   20972788.0204
 11  8 29  0 55  0.0000000  0  7G25G10G12G29G04G05G02
 -14809847.816 8 -11525700.907 7  21944069.148
 -14131201.84347 -10949188.86845  21980181.5234                   21980182.8324
 -19976334.583 8 -15545117.131 7  20819751.289
  -4446575.962 7  -3451751.389 6  23924564.297
  -4329754.38147  -3307018.62644  23814400.7114                   23814403.8554
 -22306474.406 8 -17364297.444 8  20389503.398
 -19246135.40248 -14948977.12446  20978063.4534                   20978062.0784
 11  8 29  0 55 30.0000000  0  7G25G10G12G29G04G05G02
 -14855726.392 8 -11561450.430 7  21935338.359
 -14053241.43847 -10888440.52245  21995016.8754                   21995018.4494
 -19956619.465 8 -15529754.711 7  20823502.734
  -4529793.669 6  -3516596.300 6  23908728.688
  -4247861.45746  -3243206.00743  23829984.8914                   23829987.1684
 -22333141.553 8 -17385077.004 8  20384428.375
 -19218271.43748 -14927264.95346  20983366.1954                   20983364.4574
 11  8 29  0 56  0.0000000  0  7G25G10G12G29G04G05G02
 -14901075.538 8 -11596787.428 7  21926708.703
 -13974862.29647 -10827365.89845  22009931.5474                   22009933.3014
 -19936329.602 8 -15513944.446 7  20827364.109
  -4613047.068 6  -3581469.008 6  23892886.625
  -4166004.71246  -3179421.56243  23845561.6884                   23845564.8834
 -22359237.614 8 -17405411.565 8  20379462.516
 -19190260.97848 -14905438.60946  20988696.7734                   20988694.9964
 11  8 29  0 56 30.0000000  0  7G25G10G12G29G04G05G02
 -14945892.312 8 -11631709.602 7  21918180.555
 -13896065.71547 -10765965.97145  22024926.3984                   22024927.7624
 -19915464.411 8 -15497685.861 7  20831334.594
  -4696333.950 6  -3646367.832 6  23877036.961
  -4084183.56447  -3115664.87843  23861131.6484                   23861135.1374
 -22384760.581 8 -17425299.556 8  20374605.750
 -19162103.40448 -14883497.65846  20994054.4384                   20994052.8444
 11  8 29  0 57  0.0000000  0  7G25G10G12G29G04G05G02
 -14990178.786 8 -11666218.520 7  21909752.992
 -13816858.09347 -10704245.75645  22039998.9224                   22040000.6024
 -19894028.492 8 -15480982.555 7  20835413.547
  -4779656.732 7  -3711294.622 6  23861180.648
  -4002402.24946  -3051939.20543  23876693.4614                   23876697.1054
 -22409713.564 8 -17444743.407 8  20369856.984
 -19133803.20348 -14861445.56746  20999439.8834                   20999438.3874
 11  8 29  0 57 30.0000000  0  7G25G10G12G29G04G05G02
 -15033930.366 8 -11700310.678 7  21901427.289
 -13737239.43247 -10642205.25645  22055149.7664                   22055151.0164
 -19872019.711 8 -15463832.856 7  20839601.563
  -4863011.702 7  -3776246.492 6  23845318.844
  -3920658.17846  -2988242.58643  23892249.6804                   23892253.0474
 -22434093.164 8 -17463740.470 8  20365218.023
 -19105358.01948 -14839280.49046  21004852.9454                   21004851.4964
 11  8 29  0 58  0.0000000  0  7G25G10G12G29G04G05G02
 -15077146.619 8 -11733985.674 7  21893204.023
 -13657213.48847 -10579847.39645  22070378.4774                   22070380.2274
 -19849439.557 8 -15446237.959 7  20843898.852
  -4946398.312 6  -3841223.011 6  23829450.531
  -3838953.01646  -2924576.27243  23907797.5234                   23907801.4384
 -22457900.160 8 -17482291.351 8  20360687.477
 -19076769.74348 -14817003.90346  21010292.7814                   21010291.5514
 11  8 29  0 58 30.0000000  0  7G25G10G12G29G04G05G02
 -15119825.785 8 -11767242.187 7  21885082.172
 -13576782.54947 -10517173.97045  22085684.0234                   22085685.9614
 -19826288.564 8 -15428198.229 7  20848303.930
  -5029816.007 7  -3906223.811 6  23813577.438
  -3757287.11846  -2860940.51743  23923337.9844                   23923340.9494
 -22481133.516 8 -17500395.230 8  20356266.563
 -19048038.92548 -14794616.25946  21015760.3984                   21015758.9224
 11  8 29  0 59  0.0000000  0  7G25G10G12G29G04G05G02
 -15161967.094 8 -11800079.585 7  21877063.016
 -13495950.26847 -10454187.80645  22101065.8984                   22101067.5314
 -19802568.840 8 -15409715.339 7  20852817.438
  -5113264.019 7  -3971248.168 6  23797697.563
  -3675661.82946  -2797336.49443  23938871.0394                   23938874.7894
 -22503793.460 8 -17518052.305 8  20351954.375
 -19019167.17748 -14772118.78946  21021254.3284                   21021252.8484
 11  8 29  0 59 30.0000000  0  7G25G10G12G29G04G05G02
 -15203567.902 8 -11832495.805 7  21869146.547
 -13414718.27747 -10390890.19445  22116523.6254                   22116525.5704
 -19778280.328 8 -15390789.237 7  20857439.656
  -5196740.335 7  -4036294.653 6  23781812.680
  -3594076.33146  -2733763.42743  23954395.8834                   23954399.3134
 -22525878.784 8 -17535261.616 8  20347751.992
 -18990153.70748 -14749510.89746  21026775.6954                   21026774.1454
 11  8 29  1  0  0.0000000  0  7G25G10G12G29G04G05G02
 -15244628.056 8 -11864490.726 7  21861332.820
 -13333090.47447 -10327284.13745  22132056.8754                   22132059.1054
 -19753424.537 8 -15371421.117 7  20862169.352
  -5280244.921 7  -4101363.123 6  23765922.500
  -3512532.59146  -2670222.89943  23969912.8754                   23969916.9774
 -22547390.129 8 -17552023.677 8  20343658.133
 -18961000.86848 -14726794.39546  21032323.1174                   21032321.9064
 11  8 29  1  0 30.0000000  0  7G25G10G12G29G04G05G02
 -15285145.312 8 -11896062.624 7  21853622.734
 -13251069.21247 -10263371.48445  22147665.2734                   22147667.0234
 -19728002.106 8 -15351611.455 7  20867007.445
  -5363775.768 6  -4166452.093 6  23750026.750
  -3431030.27346  -2606714.61743  23985422.7344                   23985426.0784
 -22568326.333 8 -17568337.566 8  20339673.742
 -18931708.56547 -14703969.23446  21037897.3594                   21037896.0664
 11  8 29  1  1  0.0000000  0  7G25G10G12G29G04G05G02
 -15325118.914 8 -11927210.898 7  21846016.102
 -13168657.58247 -10199154.66745  22163348.1174                   22163349.1524
 -19702014.595 8 -15331361.473 7  20871952.703
  -5447332.741 7  -4231561.401 6  23734127.008
  -3349570.33846  -2543239.39843  24000924.8984                   24000926.5434
 -22588687.710 8 -17584203.550 8  20335799.305
 -18902278.15348 -14681036.45046  21043497.4454                   21043495.9734
 11  8 29  1  1 30.0000000  0  7G25G10G12G29G04G05G02
 -15364545.466 8 -11957932.889 7  21838513.391
 -13085856.54847 -10134634.41645  22179104.3054                   22179105.9654
 -19675461.089 8 -15310670.458 7  20877005.797
  -5530912.736 7  -4296688.619 6  23718221.008
  -3268151.53446  -2479796.16743  24016417.4144                   24016420.7854
 -22608472.273 8 -17599620.051 8  20332034.453
 -18872708.08148 -14657994.83046  21049124.4304                   21049123.0634
 11  8 29  1  2  0.0000000  0  7G25G10G12G29G04G05G02
 -15403425.711 8 -11988229.209 7  21831114.727
 -13002670.89547 -10069814.46645  22194933.6334                   22194935.8594
 -19648344.383 7 -15289540.584 7  20882165.508
  -5614516.444 7  -4361834.288 6  23702312.414
  -3186776.31946  -2416386.94443  24031902.1954                   24031906.6024
 -22627681.478 8 -17614588.244 8  20328379.008
 -18843001.46547 -14634846.82646  21054777.4924                   21054776.3874
 11  8 29  1  2 30.0000000  0  7G25G10G12G29G04G05G02
 -15441758.238 8 -12018098.716 7  21823820.258
 -12919103.25547 -10004696.85645  22210836.6804                   22210837.4304
 -19620665.708 8 -15267972.827 7  20887432.703
  -5698142.529 7  -4426997.472 6  23686398.727
  -3105445.10846  -2353012.04143  24047379.3594                   24047383.3554
 -22646315.473 8 -17629108.206 8  20324833.102
 -18813159.09748 -14611593.02546  21060456.3284                   21060454.9224
 11  8 29  1  3  0.0000000  0  7G25G10G12G29G04G05G02
 -15479542.195 8 -12047540.763 7  21816630.219
 -12835156.95947  -9939284.19245  22226810.6954                   22226812.8324
 -19592426.266 8 -15245968.109 7  20892806.664
  -5781790.739 7  -4492177.894 6  23670481.227
  -3024158.83946  -2289672.10343  24062847.6644                   24062851.8164
 -22664374.165 8 -17643179.891 8  20321396.539
 -18783181.84548 -14588234.12746  21066160.7274                   21066159.2504
 11  8 29  1  3 30.0000000  0  7G25G10G12G29G04G05G02
 -15516775.350 8 -12076553.628 7  21809544.977
 -12750833.92847  -9873577.94045  22242857.4774                   22242858.7624
 -19563626.615 8 -15223526.842 7  20898287.078
  -5865458.716 7  -4557373.745 6  23654559.578
  -2942917.16146  -2226366.94843  24078307.9384                   24078311.6484
 -22681856.425 8 -17656802.402 8  20318069.875
 -18753069.65148 -14564770.08046  21071891.0164                   21071889.6524
 11  8 29  1  4  0.0000000  0  7G25G10G12G29G04G05G02
 -15553456.754 8 -12105136.534 7  21802564.961
 -12666137.47747  -9807580.73245  22258973.9694                   22258976.0354
 -19534268.208 8 -15200650.185 7  20903873.828
  -5949145.518 7  -4622584.264 6  23638634.773
  -2861720.65646  -2163096.97743  24093758.7734                   24093762.6254
 -22698762.214 8 -17669975.712 8  20314852.766
 -18722823.42348 -14541201.59746  21077646.9384                   21077645.0634
 11  8 29  1  4 30.0000000  0  7G25G10G12G29G04G05G02
 -15589584.609 8 -12133288.133 7  21795689.570
 -12581069.75047  -9741294.24245  22275162.3204                   22275163.7624
 -19504351.508 8 -15177338.494 7  20909566.641
  -6032849.763 7  -4687808.355 6  23622705.805
  -2780569.27146  -2099862.15243  24109201.6334                   24109205.3054
 -22715090.970 8 -17682699.391 8  20311745.367
 -18692443.42548 -14517528.87646  21083427.8134                   21083426.6054
 11  8 29  1  5  0.0000000  0  7G25G10G12G29G04G05G02
 -15625157.563 8 -12161007.316 7  21788920.359
 -12495633.61247  -9674720.67444  22291419.9534                   22291421.6374
 -19473877.536 8 -15153592.557 7  20915365.656
  -6116569.637 7  -4753044.587 6  23606774.992
  -2699463.33246  -2036662.71143  24124635.1254                   24124639.0784
 -22730842.718 8 -17694973.453 8  20308747.992
 -18661930.15448 -14493752.29846  21089234.2814                   21089232.8364
 11  8 29  1  5 30.0000000  0  7G25G10G12G29G04G05G02
 -15660175.303 8 -12188293.876 7  21782256.742
 -12409832.63147  -9607862.78644  22307747.1884                   22307749.2114
 -19442848.254 8 -15129413.930 7  20921270.359
  -6200305.204 7  -4818293.067 6  23590840.555
  -2618404.18046  -1973499.76843  24140060.1804                   24140064.1604
 -22746017.868 8 -17706798.217 8  20305860.016
 -18631285.03948 -14469872.99346  21095066.1334                   21095064.4694
 11  8 29  1  6  0.0000000  0  7G25G10G12G29G04G05G02
 -15694637.188 8 -12215147.305 7  21775698.969
 -12323670.15647  -9540723.24745  22324143.9694                   22324145.7424
 -19411265.623 8 -15104804.102 7  20927280.602
  -6284055.901 7  -4883553.332 6  23574903.555
  -2537392.89646  -1910374.13443  24155476.9384                   24155480.2114
 -22760617.154 8 -17718174.264 8  20303082.008
 -18600509.48448 -14445892.04046  21100922.0784                   21100921.1524
 11  8 29  1  6 30.0000000  0  7G25G10G12G29G04G05G02
 -15728540.380 8 -12241565.397 7  21769247.602
 -12237147.36947  -9473302.92244  22340608.7424                   22340610.2464
 -19379129.354 8 -15079762.874 7  20933395.977
  -6367818.820 7  -4948823.092 6  23558963.344
  -2456428.02846  -1847284.63043  24170882.8284                   24170887.2234
 -22774638.914 8 -17729100.276 8  20300413.867
 -18569602.35848 -14421808.56246  21106803.6024                   21106802.1844
 11  8 29  1  7  0.0000000  0  7G25G10G12G29G04G05G02
 -15761884.763 8 -12267548.028 7  21762902.172
 -12150268.35147  -9405605.00744  22357140.6954                   22357143.0784
 -19346441.693 8 -15054291.994 7  20939616.266
  -6451593.365 6  -5014101.912 6  23543021.070
  -2375511.11846  -1784232.51943  24186281.6724                   24186285.6214
 -22788084.001 8 -17739576.938 8  20297855.148
 -18538565.52647 -14397624.01746  21112709.9224                   21112708.8204
 11  8 29  1  7 30.0000000  0  7G25G10G12G29G04G05G02
 -15794669.237 8 -12293094.374 7  21756663.508
 -12063035.69747  -9337631.55044  22373740.7814                   22373742.6644
 -19313203.705 7 -15028392.279 7  20945941.352
  -6535378.626 7  -5079389.075 6  23527077.461
  -2294642.59146  -1721218.09843  24201670.9694                   24201674.2584
 -22800952.596 8 -17749604.393 8  20295406.461
 -18507399.53447 -14373338.83346  21118640.2734                   21118639.3134
 11  8 29  1  8  0.0000000  0  7G25G10G12G29G04G05G02
 -15826891.826 8 -12318202.876 7  21750532.047
 -11975451.33447  -9269384.03344  22390407.7664                   22390409.0664
 -19279416.104 7 -15002064.295 7  20952370.492
  -6619172.342 6  -5144682.823 6  23511131.852
  -2213821.83946  -1658240.92343  24217049.6254                   24217053.7424
 -22813243.512 8 -17759181.690 8  20293067.484
 -18476104.16147 -14348952.82646  21124595.7894                   21124594.1024
 11  8 29  1  8 30.0000000  0  7G25G10G12G29G04G05G02
 -15858552.315 8 -12342873.389 7  21744506.922
 -11887518.98347  -9200865.35144  22407140.8674                   22407142.2344
 -19245081.157 7 -14975309.800 7  20958904.344
  -6702974.002 6  -5209982.800 6  23495185.000
  -2133050.06046  -1595301.93243  24232419.8754                   24232424.2704
 -22824957.828 8 -17768309.712 8  20290838.586
 -18444680.98347 -14324467.22946  21130575.5864                   21130574.2034
 11  8 29  1  9  0.0000000  0  7G25G10G12G29G04G05G02
 -15889650.257 8 -12367105.559 7  21738589.305
 -11799241.97747  -9132078.09744  22423938.7814                   22423940.8284
 -19210200.479 8 -14948130.071 7  20965541.836
  -6786782.982 7  -5275288.506 6  23479237.281
  -2052328.34046  -1532401.88243  24247781.6884                   24247784.5634
 -22836096.297 8 -17776989.017 8  20288718.859
 -18413130.83347 -14299882.69746  21136579.0314                   21136577.7894
 11  8 29  1  9 30.0000000  0  7G25G10G12G29G04G05G02
 -15920183.444 8 -12390897.636 7  21732778.602
 -11710622.16447  -9063023.71744  22440803.0864                   22440804.8324
 -19174774.559 8 -14920525.459 7  20972283.031
  -6870597.176 7  -5340598.215 6  23463287.570
  -1971655.83446  -1469540.23743  24263133.1724                   24263136.6214
 -22846657.846 8 -17785218.770 8  20286709.211
 -18381453.37248 -14275198.96746  21142607.0084                   21142605.5124
 11  8 29  1 10  0.0000000  0  7G25G10G12G29G04G05G02
 -15950151.792 8 -12414249.586 7  21727076.305
 -11621663.33947  -8993705.17344  22457731.1414                   22457732.6454
 -19138805.833 8 -14892497.893 7  20979127.773
  -6954415.926 7  -5405911.504 6  23447337.852
  -1891033.79046  -1406717.84643  24278474.8984                   24278478.2304
 -22856643.448 8 -17792999.722 8  20284808.609
 -18349650.33147 -14250417.38246  21148658.5474                   21148657.7934
 11  8 29  1 10 30.0000000  0  7G25G10G12G29G04G05G02
 -15979553.445 8 -12437159.949 7  21721481.375
 -11532367.45047  -8924123.98644  22474723.7114                   22474725.1414
 -19102294.566 8 -14864047.598 7  20986075.969
  -7038237.069 7  -5471226.648 6  23431387.258
  -1810461.71346  -1343934.45143  24293807.8754                   24293810.9104
 -22866052.390 8 -17800331.346 8  20283018.242
 -18317721.16548 -14225537.51646  21154734.9774                   21154733.5204
 11  8 29  1 11  0.0000000  0  8G25G10G12G29G26G04G05G02
 -16008389.365 8 -12459629.489 7  21715994.063
 -11442739.35547  -8854283.93244  22491779.4224                   22491781.2154
 -19065244.273 8 -14835177.261 7  20993126.328
  -7122061.322 7  -5536544.185 6  23415435.703
    -95584.10156    -33596.26252  24807711.8674                   24807718.9384
  -1729941.86046  -1281191.68843  24309130.7814                   24309133.6724
 -22874886.799 8 -17807215.278 8  20281337.156
 -18285668.81347 -14200561.66446  21160833.9144                   21160833.3284
 11  8 29  1 11 30.0000000  0  8G25G10G12G29G26G04G05G02
 -16036659.158 8 -12481657.875 7  21710614.461
 -11352782.27447  -8784187.53744  22508897.6564                   22508899.7424
 -19027656.824 8 -14805888.359 7  21000278.859
  -7205887.599 7  -5601863.327 7  23399484.016
   -189916.95346   -107102.17643  24789761.6414                   24789767.6374
  -1649474.97346  -1218490.26643  24324441.2424                   24324445.4224
 -22883147.367 8 -17813652.053 8  20279764.836
 -18253494.00348 -14175490.40046  21166957.1804                   21166955.7274
 11  8 29  1 12  0.0000000  0  8G25G10G12G29G26G04G05G02
 -16064357.664 8 -12503241.133 7  21705343.594
 -11262494.92447  -8713833.79744  22526079.1094                   22526080.3714
 -18989529.527 8 -14776178.805 7  21007534.508
  -7289710.363 7  -5667179.699 6  23383532.711
   -284368.41646   -180700.49243  24771788.4694                   24771793.2074
  -1569057.19346  -1155827.09843  24339744.0554                   24339748.8444
 -22890830.042 8 -17819638.530 8  20278303.055
 -18221192.98647 -14150320.78746  21173103.6334                   21173102.6844
 11  8 29  1 12 30.0000000  0  8G25G10G12G29G26G04G05G02
 -16091486.039 8 -12524380.109 7  21700181.063
 -11171882.17646  -8643226.47944  22543321.8134                   22543323.7774
 -18950865.819 8 -14746051.241 7  21014891.945
  -7373530.351 7  -5732493.916 6  23367582.492
   -378937.59346   -254390.51343  24753791.4924                   24753797.3014
  -1488690.76546  -1093203.93543  24355037.6804                   24355041.6804
 -22897937.085 8 -17825176.460 8  20276950.211
 -18188768.79448 -14125055.18546  21179273.7034                   21179272.7894
 11  8 29  1 13  0.0000000  0  8G25G10G12G29G26G04G05G02
 -16118044.144 8 -12545074.713 7  21695127.250
 -11080947.79347  -8572368.57644  22560625.8674                   22560627.9224
 -18911668.387 8 -14715507.812 7  21022350.852
  -7457347.071 6  -5797805.595 6  23351632.805
   -473622.17846   -328170.44343  24735774.5314                   24735779.3244
  -1408376.83346  -1030621.74843  24370321.3914                   24370325.3754
 -22904469.686 8 -17830266.772 8  20275707.734
 -18156222.44748 -14099694.38246  21185467.2344                   21185466.1374
 11  8 29  1 13 30.0000000  0  8G25G10G12G29G26G04G05G02
 -16144030.696 8 -12565323.962 7  21690182.406
 -10989694.02647  -8501261.79944  22577991.6804                   22577992.9224
 -18871938.258 8 -14684549.293 7  21029911.648
  -7541158.738 7  -5863113.341 6  23335683.586
   -568418.84046   -402037.72743  24717734.6024                   24717739.6884
  -1328115.26046   -968080.30943  24385594.3204                   24385598.4304
 -22910427.479 8 -17834909.183 8  20274573.586
 -18123553.92947 -14074238.40846  21191683.6804                   21191682.7464
 11  8 29  1 14  0.0000000  0  8G25G10G12G29G26G04G05G02
 -16169445.362 8 -12585127.593 7  21685345.734
 -10898124.27646  -8429908.76944  22595416.6174                   22595418.4414
 -18831677.389 8 -14653177.234 7  21037572.680
  -7624964.543 6  -5928416.470 6  23319736.336
   -663325.14846   -475990.47943  24699674.6644                   24699679.7734
  -1247906.80447   -905580.29243  24400858.4144                   24400861.4734
 -22915811.579 8 -17839104.568 8  20273549.234
 -18090764.44547 -14048688.17546  21197923.4774                   21197922.2074
 11  8 29  1 14 30.0000000  0  8G25G10G12G29G26G04G05G02
 -16194287.244 8 -12604484.910 7  21680618.930
 -10806241.02347  -8358311.45744  22612901.9384                   22612902.7384
 -18790886.798 8 -14621392.370 7  21045334.852
  -7708762.449 7  -5993713.495 6  23303790.430
   -758337.89446   -550026.13643  24681593.6724                   24681599.5234
  -1167751.53246   -843121.68543  24416111.2584                   24416114.8284
 -22920621.545 8 -17842852.572 8  20272633.430
 -18057854.66947 -14023044.20746  21204186.0314                   21204184.8204
 11  8 29  1 15  0.0000000  0  8G25G10G12G29G26G04G05G02
 -16218555.508 8 -12623395.240 7  21676000.695
 -10714047.25047  -8286472.17844  22630445.4774                   22630447.1294
 -18749568.661 8 -14589196.424 7  21053197.313
  -7792551.291 7  -6059003.447 6  23287845.188
   -853454.28746   -624142.60843  24663494.0234                   24663499.0204
  -1087649.61846   -780704.71043  24431354.1954                   24431358.4144
 -22924858.136 8 -17846153.781 8  20271827.516
 -18024824.60247 -13997306.50446  21210471.5704                   21210470.2304
 11  8 29  1 15 30.0000000  0  8G25G10G12G29G26G04G05G02
 -16242249.422 8 -12641858.037 7  21671492.016
 -10621546.00147  -8214393.30044  22648047.5314                   22648049.3754
 -18707724.539 8 -14556590.632 7  21061160.492
  -7876329.743 6  -6124285.261 6  23271903.102
   -948671.02946   -698337.21043  24645374.4384                   24645379.8984
  -1007601.67646   -718329.80043  24446586.7034                   24446590.4964
 -22928521.875 8 -17849008.621 8  20271130.633
 -17991675.18647 -13971475.81246  21216779.7194                   21216778.8204
 11  8 29  1 16  0.0000000  0  8G25G10G12G29G26G04G05G02
 -16265367.923 8 -12659872.425 7  21667092.445
 -10528739.66147  -8142076.70844  22665708.2894                   22665710.0554
 -18665355.563 8 -14523575.835 7  21069222.523
  -7960095.982 6  -6189557.587 6  23255962.117
  -1043984.96246   -772607.57243  24627235.2734                   24627241.5864
   -927607.06046   -655996.37243  24461808.1484                   24461813.3244
 -22931612.811 8 -17851417.115 8  20270542.266
 -17958406.13047 -13945551.87146  21223110.3914                   21223109.2074
 11  8 29  1 16 30.0000000  0  8G25G10G12G29G26G04G05G02
 -16287910.888 8 -12677438.360 7  21662802.961
 -10435631.46247  -8069524.89244  22683425.9774                   22683427.7274
 -18622464.201 8 -14490154.004 7  21077384.578
  -8043849.300 6  -6254819.862 6  23240024.148
  -1139393.44546   -846951.62943  24609080.5004                   24609086.3524
   -847667.03046   -593705.50242  24477021.5634                   24477025.0664
 -22934131.866 8 -17853379.989 8  20270063.117
 -17925018.83848 -13919535.80946  21229464.0554                   21229462.5004
 11  8 29  1 17  0.0000000  0  8G25G10G12G29G26G04G05G02
 -16309878.035 8 -12694555.605 7  21658622.656
 -10342225.17147  -7996740.79644  22701200.3204                   22701202.5944
 -18579052.281 8 -14456326.542 7  21085645.578
  -8127588.581 7  -6320071.190 6  23224089.211
  -1234893.90046   -921367.38243  24590907.4694                   24590911.9304
   -767781.83146   -531457.37543  24492223.5084                   24492227.0554
 -22936079.800 8 -17854897.824 8  20269692.461
 -17891514.14948 -13893428.26846  21235839.6644                   21235838.4494
 11  8 29  1 17 30.0000000  0  8G25G10G12G29G26G04G05G02
 -16331268.694 8 -12711223.649 7  21654551.938
 -10248523.41547  -7923726.46644  22719031.3834                   22719033.4534
 -18535122.021 8 -14422095.175 7  21094005.289
  -8211312.016 6  -6385310.155 6  23208157.766
  -1330483.57346   -995852.65443  24572717.6254                   24572722.3594
   -687951.74746   -469252.20043  24507413.7274                   24507418.0274
 -22937457.012 8 -17855970.962 8  20269429.922
 -17857892.67648 -13867229.72346  21242237.7814                   21242236.5044
 11  8 29  1 18  0.0000000  0  8G25G10G12G29G26G04G05G02
 -16352081.786 8 -12727441.633 7  21650591.078
 -10154528.28847  -7850483.52444  22736918.2664                   22736919.5984
 -18490674.337 8 -14387460.630 7  21102463.484
  -8295017.905 7  -6450535.476 6  23192229.195
  -1426158.49446  -1070404.30343  24554510.2274                   24554515.8794
   -608176.73946   -407089.92243  24522594.9224                   24522598.8554
 -22938263.608 8 -17856599.445 8  20269276.266
 -17824154.28548 -13840940.09046  21248658.1954                   21248656.8634
 11  8 29  1 18 30.0000000  0  8G25G10G12G29G26G04G05G02
 -16372316.852 8 -12743209.213 7  21646740.727
 -10060243.09247  -7777014.55944  22754860.0084                   22754861.9454
 -18445711.435 8 -14352424.608 7  21111019.430
  -8378704.889 7  -6515746.060 6  23176303.469
  -1521916.07946  -1145020.40942  24536287.6884                   24536293.6094
   -528457.03846   -344970.72043  24537765.8444                   24537769.1604
 -22938500.264 8 -17856783.833 8  20269231.594
 -17790299.57948 -13814559.81746  21255100.1484                   21255099.1954
 11  8 29  1 19  0.0000000  0  8G25G10G12G29G26G04G05G02
 -16391973.157 8 -12758525.794 7  21643000.617
  -9965670.19847  -7703321.44144  22772856.3834                   22772858.9454
 -18400234.444 8 -14316988.006 7  21119673.523
  -8462371.152 7  -6580940.526 6  23160382.875
  -1617752.99146  -1219698.32742  24518051.1334                   24518056.2934
   -448792.66546   -282894.66543  24552925.0004                   24552928.9414
 -22938167.293 8 -17856524.354 8  20269294.578
 -17756328.86047 -13788089.14546  21261564.6094                   21261563.2584
 11  8 29  1 19 30.0000000  0  8G25G10G12G29G26G04G05G02
 -16411050.692 8 -12773391.393 7  21639369.797
  -9870813.21747  -7629406.97044  22790907.6334                   22790909.6294
 -18354245.912 8 -14281152.810 7  21128424.805
  -8546015.841 7  -6646118.174 6  23144465.242
  -1713666.54446  -1294435.95643  24499799.7584                   24499804.2934
   -369184.36746   -220862.24043  24568073.3754                   24568077.5004
 -22937265.939 8 -17855821.978 8  20269466.375
 -17722243.14748 -13761528.85346  21268050.9224                   21268049.3954
 11  8 29  1 20  0.0000000  0  8G25G10G12G29G26G04G05G02
 -16429548.362 8 -12787805.155 7  21635849.984
  -9775674.29047  -7555272.76144  22809012.1414                   22809013.8554
 -18307747.276 8 -14244920.162 7  21137273.477
  -8629637.106 7  -6711277.544 6  23128552.758
  -1809653.18346  -1369230.57242  24481533.8134                   24481538.3554
   -289631.59646   -158873.14043  24583212.4924                   24583216.3524
 -22935796.158 8 -17854676.679 8  20269745.930
 -17688042.42848 -13734878.95246  21274559.4844                   21274557.7774
 11  8 29  1 20 30.0000000  0  8G25G10G12G29G26G04G05G02
 -16447465.914 8 -12801766.870 7  21632440.539
  -9680256.60947  -7480921.36944  22827169.1644                   22827171.3404
 -18260740.404 8 -14208291.459 7  21146218.375
  -8713233.611 7  -6776417.676 6  23112645.016
  -1905709.91846  -1444079.83542  24463254.0944                   24463259.6604
   -210134.89546    -96927.76343  24598339.5394                   24598344.2194
 -22933758.886 8 -17853089.179 8  20270133.742
 -17653727.24047 -13708139.84946  21281089.0704                   21281087.9104
 11  8 29  1 21  0.0000000  0  8G25G10G12G29G26G04G05G02
 -16464803.031 8 -12815276.295 7  21629141.492
  -9584563.57747  -7406355.40344  22845379.3524                   22845381.3364
 -18213227.604 8 -14171268.539 7  21155260.305
  -8796804.044 7  -6841537.454 6  23096742.250
  -2001833.96546  -1518981.55943  24444962.2504                   24444967.0124
   -130694.66746    -35026.29943  24613456.4614                   24613461.1094
 -22931155.002 8 -17851060.148 8  20270629.008
 -17619298.32248 -13681312.13446  21287640.9304                   21287639.7274
 11  8 29  1 21 30.0000000  0  8G25G10G12G29G26G04G05G02
 -16481559.780 8 -12828333.502 7  21625952.461
  -9488597.88446  -7331576.98144  22863640.8524                   22863642.2814
 -18165210.752 8 -14133852.813 7  21164397.227
  -8880346.889 7  -6906635.779 6  23080843.664
  -2098022.48146  -1593933.48443  24426658.7194                   24426662.5514
    -51311.32546     26830.71042  24628563.3594                   24628566.8164
 -22927985.605 8 -17848590.484 8  20271232.328
 -17584756.35748 -13654396.32546  21294213.7584                   21294212.9264
 11  8 29  1 22  0.0000000  0  8G25G10G12G29G26G04G05G02
 -16497736.060 8 -12840938.391 7  21622874.117
  -9392362.83446  -7256588.69644  22881953.8674                   22881956.2704
 -18116692.717 8 -14096046.569 7  21173629.570
  -8963861.310 7  -6971711.931 6  23064952.555
  -2194272.71346  -1668933.48943  24408342.6804                   24408346.0824
     28014.38146     88642.96143  24643658.6094                   24643663.4614
 -22924251.653 8 -17845680.888 8  20271942.625
 -17550102.30948 -13627393.17946  21300808.2504                   21300807.3714
 11  8 29  1 22 30.0000000  0  8G25G10G12G29G26G04G05G02
 -16513329.845 8 -12853089.404 7  21619906.758
  -9295859.59946  -7181391.41744  22900317.6724                   22900320.0354
 -18067673.193 8 -14057849.556 7  21182958.008
  -9047343.817 7  -7036763.236 6  23049066.281
  -2290579.89046  -1743977.90743  24390016.4384                   24390019.9224
    107284.04446    150411.45842  24658742.6644                   24658746.7274
 -22919951.783 8 -17842330.330 8  20272761.109
 -17515335.07948 -13600301.83746  21307424.1954                   21307422.6414
 11  8 29  1 23  0.0000000  0  8G25G10G12G29G26G04G05G02
 -16528340.238 8 -12864785.826 7  21617050.383
  -9199090.54246  -7105987.01844  22918732.7974                   22918734.2894
 -18018154.386 8 -14019263.488 7  21192381.227
  -9130792.544 7  -7101788.195 6  23033185.914
  -2386940.33946  -1819063.82543  24371678.8054                   24371682.8754
    186498.19246    212136.77042  24673817.4064                   24673821.2074
 -22915087.119 8 -17838539.667 8  20273686.828
 -17480454.31748 -13573122.03346  21314061.6724                   21314060.6724
 11  8 29  1 23 30.0000000  0  7G25G10G12G29G26G05G02
 -16542771.164 8 -12876030.716 7  21614304.555
  -9102062.74247  -7030380.98244  22937196.4534                   22937198.2664
 -17968141.960 8 -13980292.787 7  21201898.203
  -9214210.165 7  -7166788.904 6  23017311.984
  -2483355.10446  -1894192.08643  24353332.3594                   24353335.6684
 -22909662.248 8 -17834312.471 8  20274719.125
 -17445464.74348 -13545857.42746  21320720.0394                   21320718.4614
 11  8 29  1 24  0.0000000  0  7G25G10G12G29G26G05G02
 -16556618.945 8 -12886821.223 7  21611668.922
  -9004775.75347  -6954572.99944  22955709.6884                   22955711.8954
 -17917634.556 8 -13940936.391 7  21211509.555
  -9297591.651 7  -7231761.420 6  23001444.406
  -2579817.59146  -1969357.46843  24334974.6024                   24334979.0004
 -22903674.421 8 -17829646.626 8  20275858.398
 -17410363.34548 -13518505.70046  21327399.4614                   21327398.3754
 11  8 29  1 24 30.0000000  0  7G25G10G12G29G26G05G02
 -16569884.122 8 -12897157.739 7  21609144.977
  -8907233.39147  -6878566.02644  22974271.4454                   22974273.2814
 -17866635.107 8 -13901196.592 7  21221214.617
  -9380936.170 7  -7296705.163 6  22985585.063
  -2676325.48046  -2044558.27643  24316610.1884                   24316613.8914
 -22897125.479 8 -17824543.528 8  20277104.758
 -17375151.48248 -13491067.88046  21334100.3444                   21334098.9924
 11  8 29  1 25  0.0000000  0  7G25G10G12G29G26G05G02
 -16582567.244 8 -12907040.702 7  21606730.914
  -8809439.02847  -6802362.66044  22992881.2504                   22992883.1604
 -17815146.610 8 -13861075.716 7  21231012.367
  -9464243.147 7  -7361619.682 6  22969732.570
  -2772876.29246  -2119792.53743  24298237.4064                   24298241.1564
 -22890017.019 8 -17819004.456 8  20278457.336
 -17339830.22948 -13463544.83546  21340821.8054                   21340820.6914
 11  8 29  1 25 30.0000000  0  7G25G10G12G29G26G05G02
 -16594666.773 8 -12916468.921 7  21604428.758
  -8711394.19047  -6725964.11744  23011538.1254                   23011540.4454
 -17763169.462 8 -13820574.053 7  21240903.352
  -9547509.353 7  -7426502.378 6  22953887.047
  -2869465.54146  -2195056.68543  24279856.3204                   24279860.1884
 -22882348.647 8 -17813029.075 8  20279916.813
 -17304398.61248 -13435935.78546  21347563.9924                   21347562.7154
 11  8 29  1 26  0.0000000  0  7G25G10G12G29G26G05G02
 -16606183.043 8 -12925442.638 7  21602237.484
  -8613102.37547  -6649373.14144  23030242.4384                   23030244.9264
 -17710706.677 8 -13779693.980 7  21250886.734
  -9630733.668 7  -7491352.423 6  22938050.398
  -2966090.78346  -2270348.90043  24261469.6334                   24261472.8164
 -22874121.608 8 -17806618.384 8  20281482.500
 -17268857.85648 -13408241.69046  21354327.4774                   21354325.9454
 11  8 29  1 26 30.0000000  0  7G25G10G12G29G26G05G02
 -16617115.985 8 -12933961.825 7  21600156.930
  -8514566.60447  -6572592.07244  23048993.4694                   23048995.5984
 -17657760.179 8 -13738436.992 7  21260962.352
  -9713914.845 7  -7556168.905 7  22922221.102
  -3062748.59546  -2345666.56143  24243075.7114                   24243079.6524
 -22865337.299 8 -17799773.447 8  20283153.984
 -17233208.40548 -13380462.90546  21361111.0164                   21361109.8014
 11  8 29  1 27  0.0000000  0  7G25G10G12G29G26G05G02
 -16627465.261 8 -12942026.209 7  21598187.453
  -8415789.37546  -6495622.81744  23067789.6254                   23067791.9304
 -17604331.747 8 -13696804.468 7  21271129.539
  -9797051.016 7  -7620950.258 6  22906400.617
  -3159435.66646  -2421006.96043  24224676.4384                   24224680.9804
 -22855996.093 8 -17792494.567 8  20284931.492
 -17197450.16348 -13352599.32846  21367915.5864                   21367914.4614
 11  8 29  1 27 30.0000000  0  7G25G10G12G29G26G05G02
 -16637230.705 8 -12949635.653 7  21596329.242
  -8316773.43547  -6418467.57244  23086631.4844                   23086634.6644
 -17550423.896 8 -13654798.392 7  21281387.555
  -9880140.421 7  -7685695.201 7  22890589.586
  -3256148.64846  -2496367.59643  24206272.7734                   24206276.6054
 -22846098.847 8 -17784782.413 8  20286814.789
 -17161583.50648 -13324651.28346  21374740.9924                   21374739.5904
 11  8 29  1 28  0.0000000  0  7G25G10G12G29G26G05G02
 -16646412.497 8 -12956790.310 7  21594581.852
  -8217521.98246  -6341128.83244  23105518.4224                   23105521.5004
 -17496038.897 8 -13612420.493 7  21291736.609
  -9963181.549 7  -7750402.516 6  22874787.039
  -3352884.66346  -2571746.11443  24187864.2034                   24187868.8054
 -22835647.040 8 -17776638.136 8  20288803.617
 -17125609.02448 -13296619.22746  21381586.4304                   21381585.1174
 11  8 29  1 28 30.0000000  0  7G25G10G12G29G26G05G02
 -16655010.516 8 -12963490.083 7  21592945.820
  -8118037.84146  -6263608.71343  23124449.1954                   23124452.1484
 -17441178.502 8 -13569672.154 7  21302175.938
 -10046172.822 7  -7815070.982 6  22858994.016
  -3449640.22246  -2647139.88043  24169451.5084                   24169456.5234
 -22824641.622 8 -17768062.468 8  20290898.117
 -17089527.16748 -13268503.49746  21388452.7664                   21388451.5394
 11  8 29  1 29  0.0000000  0  7G25G10G12G29G26G05G02
 -16663025.444 8 -12969735.502 7  21591420.984
  -8018324.26346  -6185909.85043  23143424.9844                   23143426.8324
 -17385845.793 8 -13526555.785 7  21312705.844
 -10129113.343 7  -7879699.912 7  22843211.445
  -3546412.75146  -2722546.95143  24151036.6724                   24151040.8364
 -22813084.142 8 -17759056.633 8  20293097.383
 -17053338.75848 -13240304.72846  21395339.1254                   21395338.0704
 11  8 29  1 29 30.0000000  0  7G25G10G12G29G26G05G02
 -16670457.113 8 -12975526.427 7  21590006.469
  -7918384.03846  -6108034.37044  23162443.0164                   23162445.6764
 -17330043.059 8 -13483073.160 7  21323324.531
 -10212001.188 7  -7944287.788 7  22827438.758
  -3643198.96546  -2797964.62243  24132618.7814                   24132624.0514
 -22800975.583 8 -17749621.371 8  20295401.383
 -17017044.41848 -13212023.43446  21402246.0784                   21402244.6334
 11  8 29  1 30  0.0000000  0  7G25G10G12G29G26G05G02
 -16677302.255 8 -12980860.316 7  21588704.281
  -7818216.56547  -6029981.83744  23181504.1414                   23181506.1764
 -17273769.371 8 -13439223.552 7  21334033.031
 -10294831.354 7  -8008830.717 6  22811676.109
  -3739992.22346  -2873387.84743  24114199.4924                   24114203.9494
 -22788313.730 8 -17739754.983 8  20297810.680
 -16980640.97348 -13183657.12546  21409173.1094                   21409172.1884
 11  8 29  1 30 30.0000000  0  7G25G10G12G29G26G05G02
 -16683569.978 8 -12985744.263 7  21587511.422
  -7717833.87046  -5951761.55044  23200606.1414                   23200608.5204
 -17217035.743 7 -13395015.547 7  21344829.055
 -10377611.206 7  -8073334.448 6  22795923.711
  -3836798.25346  -2948821.00843  24095777.8754                   24095781.8204
 -22775108.781 8 -17729465.395 8  20300323.758
 -16944137.49148 -13155212.85146  21416119.7974                   21416118.4774
 11  8 29  1 31  0.0000000  0  7G25G10G12G29G26G05G02
 -16689251.155 8 -12990171.158 7  21586430.375
  -7617229.57447  -5873368.61444  23219750.7894                   23219753.2974
 -17159835.182 7 -13350443.715 7  21355714.250
 -10460329.845 7  -8137790.490 6  22780183.047
  -3933604.66746  -3024254.47143  24077357.0004                   24077361.5664
 -22761352.498 8 -17718746.201 8  20302941.234
 -16907525.26748 -13126683.84646  21423086.6724                   21423085.5744
 11  8 29  1 31 30.0000000  0  7G25G10G12G29G26G05G02
 -16694349.529 8 -12994143.920 7  21585460.055
  -7516410.07547  -5794807.97944  23238936.6254                   23238938.5124
 -17102173.704 7 -13305512.720 7  21366687.031
 -10542989.173 7  -8202200.358 6  22764453.375
  -4030411.86046  -3099688.50243  24058935.0944                   24058937.5204
 -22747049.858 8 -17707601.267 8  20305663.398
 -16870808.33148 -13098073.25046  21430073.7734                   21430072.0704
 11  8 29  1 32  0.0000000  0  7G25G10G12G29G26G05G02
 -16698864.155 8 -12997661.807 7  21584601.234
  -7415377.30847  -5716081.16144  23258163.0004                   23258164.1994
 -17044052.559 7 -13260223.553 7  21377746.641
 -10625586.560 7  -8266561.916 6  22748735.844
  -4127215.06946  -3175119.44543  24040513.3134                   24040516.2114
 -22732200.802 8 -17696030.569 8  20308488.492
 -16833986.00148 -13069380.53146  21437080.3674                   21437079.3134
 11  8 29  1 32 30.0000000  0  7G25G10G12G29G26G05G02
 -16702795.948 8 -13000725.529 7  21583852.750
  -7314134.57847  -5637190.72744  23277427.9694                   23277430.1334
 -16985474.571 7 -13214578.405 7  21388894.438
 -10708120.865 7  -8330874.363 7  22733029.875
  -4224011.97046  -3250545.49743  24022093.4454                   24022096.9844
 -22716807.360 8 -17684035.664 8  20311417.820
 -16797059.29148 -13040606.47346  21444107.3984                   21444106.5084
 11  8 29  1 33  0.0000000  0  7G25G10G12G29G26G05G02
 -16706144.995 8 -13003335.163 7  21583215.430
  -7212684.67847  -5558138.86344  23296733.5394                   23296735.6844
 -16926442.464 7 -13168579.369 7  21400127.719
 -10790590.317 7  -8395136.274 6  22717336.344
  -4320799.08047  -3325963.90143  24003676.1644                   24003679.3014
 -22700870.598 8 -17671617.396 8  20314450.625
 -16760028.54348 -13011751.34846  21451154.5234                   21451153.2114
 11  8 29  1 33 30.0000000  0  7G25G10G12G29G26G05G02
 -16708911.469 8 -13005490.856 7  21582689.180
  -7111030.20246  -5478927.60543  23316077.9924                   23316079.6954
 -16866957.886 7 -13122227.777 7  21411447.133
 -10872993.076 7  -8459346.207 6  22701655.672
  -4417572.86546  -3401371.93743  23985259.4384                   23985263.4304
 -22684391.811 8 -17658776.758 8  20317586.406
 -16722893.65848 -12982815.09546  21458220.9534                   21458219.8754
 11  8 29  1 34  0.0000000  0  7G25G10G12G29G26G05G02
 -16711095.949 8 -13007193.026 7  21582273.094
  -7009174.35547  -5399559.45344  23335460.1094                   23335462.2504
 -16807024.049 7 -13075526.105 7  21422852.156
 -10955327.660 7  -8523502.977 7  22685987.508
  -4514330.60346  -3476767.41243  23966846.6174                   23966851.6914
 -22667372.454 8 -17645514.900 8  20320825.141
 -16685655.34148 -12953798.23446  21465307.1174                   21465306.5164
 11  8 29  1 34 30.0000000  0  7G25G10G12G29G26G05G02
 -16712698.402 8 -13008441.678 7  21581968.547
  -6907119.87047  -5320036.45244  23354879.8054                   23354882.6054
 -16746642.582 7 -13028475.644 7  21434342.508
 -11037591.802 7  -8587604.893 6  22670333.617
  -4611068.28546  -3552147.31443  23948438.2274                   23948442.7664
 -22649813.614 8 -17631832.673 8  20324166.531
 -16648313.60948 -12924700.78346  21472412.5634                   21472411.8794
 11  8 29  1 35  0.0000000  0  7G25G10G12G29G26G05G02
 -16713719.176 8 -13009237.070 7  21581774.055
  -6804869.35347  -5240360.76244  23374338.1024                   23374339.9344
 -16685816.781 7 -12981078.912 7  21445916.953
 -11119784.099 7  -8651650.849 7  22654692.820
  -4707782.75946  -3627509.13543  23930034.3594                   23930038.2234
 -22631716.578 8 -17617731.075 8  20327610.219
 -16610868.84548 -12895523.06546  21479538.2974                   21479537.7194
 11  8 29  1 35 30.0000000  0  7G25G10G12G29G26G05G02
 -16714158.190 8 -13009579.128 7  21581690.273
  -6702425.09747  -5160534.06044  23393832.7274                   23393834.6174
 -16624547.973 8 -12933337.024 7  21457576.313
 -11201902.385 7  -8715639.097 7  22639065.914
  -4804470.25547  -3702849.90243  23911635.6724                   23911639.7274
 -22613082.202 8 -17603210.762 8  20331156.195
 -16573320.88748 -12866264.93546  21486683.3284                   21486682.7734
 11  8 29  1 36  0.0000000  0  7G25G10G12G29G26G05G02
 -16714016.239 8 -13009468.505 7  21581717.430
  -6599790.40847  -5080558.99743  23413363.0634                   23413365.5824
 -16562839.121 7 -12885252.225 7  21469318.688
 -11283945.369 7  -8779568.665 6  22623453.195
  -4901127.90746  -3778167.43043  23893241.9304                   23893245.2704
 -22593912.280 8 -17588273.136 8  20334803.984
 -16535670.54448 -12836927.01746  21493848.0004                   21493847.1564
 11  8 29  1 36 30.0000000  0  7G25G10G12G29G26G05G02
 -16713293.990 8 -13008905.698 7  21581855.469
  -6496968.28347  -5000437.87043  23432929.9304                   23432931.1884
 -16500693.037 8 -12836826.718 7  21481144.734
 -11365911.183 7  -8843438.085 6  22607855.656
  -4997752.51746  -3853459.22243  23874855.1174                   23874858.5314
 -22574208.372 8 -17572919.424 8  20338553.602
 -16497918.08748 -12807509.53346  21501032.3914                   21501031.3554
 11  8 29  1 37  0.0000000  0  7G25G10G12G29G26G05G02
 -16711991.788 8 -13007890.989 7  21582102.734
  -6393961.09747  -4920172.51643  23452530.7734                   23452533.2464
 -16438112.150 8 -12788062.425 7  21493053.563
 -11447798.030 7  -8907246.001 7  22592273.266
  -5094340.56146  -3928722.49343  23856473.8364                   23856478.2034
 -22553971.956 8 -17557150.769 8  20342404.648
 -16460063.78048 -12778012.67845  21508235.4064                   21508235.1454
 11  8 29  1 37 30.0000000  0  7G25G10G12G29G26G05G02
 -16710109.496 8 -13006424.252 7  21582460.922
  -6290771.38847  -4839764.98743  23472168.1564                   23472169.2464
 -16375098.387 8 -12738960.811 7  21505044.695
 -11529603.849 7  -8970990.765 7  22576706.773
  -5190888.12546  -4003954.20743  23838101.9304                   23838105.6844
 -22533203.600 8 -17540967.618 8  20346356.281
 -16422107.39948 -12748436.28945  21515458.6414                   21515457.4884
 11  8 29  1 38  0.0000000  0  7G25G10G12G29G26G05G02
 -16707647.838 7 -13004506.073 7  21582929.523
  -6187402.39547  -4759217.74944  23491837.8754                   23491840.3834
 -16311654.154 8 -12689523.779 7  21517117.664
 -11611326.837 7  -9034670.985 7  22561155.414
  -5287392.08146  -4079151.96643  23819738.3524                   23819742.1804
 -22511905.042 8 -17524371.333 8  20350409.711
 -16384049.41848 -12718780.71645  21522700.8444                   21522699.6174
 11  8 29  1 38 30.0000000  0  7G25G10G12G29G26G05G02
 -16704608.195 8 -13002137.519 7  21583507.664
  -6083857.33547  -4678533.27443  23511541.9614                   23511543.9264
 -16247783.211 8 -12639754.230 7  21529272.406
 -11692966.065 7  -9098285.942 6  22545619.805
  -5383849.69247  -4154313.63644  23801382.8834                   23801386.9924
 -22490078.691 8 -17507363.768 8  20354563.008
 -16345891.00047 -12689046.88945  21529962.0554                   21529961.2504
 11  8 29  1 39  0.0000000  0  7G25G10G12G29G26G05G02
 -16700989.591 8 -12999317.826 7  21584196.516
  -5980137.75047  -4597712.88644  23531279.1174                   23531281.2854
 -16183486.642 8 -12589653.041 7  21541507.328
 -11774518.314 7  -9161833.074 7  22530100.430
  -5480256.26146  -4229435.50543  23783036.4454                   23783040.7934
 -22467724.733 8 -17489945.085 8  20358816.695
 -16307630.65347 -12659233.64046  21537242.8134                   21537241.9734
 11  8 29  1 39 30.0000000  0  7G25G10G12G29G26G05G02
 -16696794.155 8 -12996048.658 7  21584995.289
  -5876247.74347  -4516759.63843  23551049.0784                   23551051.4694
 -16118768.572 8 -12539223.401 7  21553822.820
 -11855983.115 7  -9225312.094 6  22514598.469
  -5576609.74747  -4304516.05443  23764701.8284                   23764704.9304
 -22444846.052 8 -17472117.533 8  20363170.375
 -16269270.52147 -12629342.63446  21544542.2734                   21544541.3524
 11  8 29  1 40  0.0000000  0  7G25G10G12G29G26G05G02
 -16692021.147 8 -12992329.446 7  21585903.266
  -5772188.69147  -4435674.70843  23570850.6024                   23570853.4454
 -16053629.890 8 -12488466.013 7  21566218.328
 -11937357.272 7  -9288720.486 6  22499112.992
  -5672905.54847  -4379551.64643  23746377.2344                   23746380.2274
 -22421442.610 8 -17453881.071 8  20367623.984
 -16230809.21347 -12599372.80045  21551861.1724                   21551860.1174
 11  8 29  1 40 30.0000000  0  7G25G10G12G29G26G05G02
 -16686671.495 8 -12988160.903 7  21586921.305
  -5667963.89447  -4354460.63243  23590684.8754                   23590686.5704
 -15988073.537 7 -12437383.171 7  21578693.547
 -12018639.459 7  -9352057.234 6  22483645.953
  -5769140.39947  -4454539.71543  23728063.4774                   23728067.0554
 -22397516.417 8 -17435237.271 8  20372176.813
 -16192247.05447 -12569324.36945  21559199.6564                   21559198.3244
 11  8 29  1 41  0.0000000  0  7G25G10G12G29G26G05G02
 -16680746.240 8 -12983543.841 7  21588048.859
  -5563576.43146  -4273119.74743  23610547.8284                   23610550.1024
 -15922102.752 8 -12385977.394 7  21591247.383
 -12099828.107 7  -9415321.086 6  22468195.828
  -5865311.29247  -4529478.00843  23709762.7194                   23709766.9844
 -22373069.514 8 -17416187.724 8  20376829.016
 -16153585.32247 -12539198.34345  21566556.5864                   21566555.3954
 11  8 29  1 41 30.0000000  0  7G25G10G12G29G26G05G02
 -16674245.236 8 -12978478.148 7  21589286.047
  -5459028.13646  -4191653.60743  23630442.4774                   23630445.7234
 -15855719.273 8 -12334250.044 7  21603879.703
 -12180920.627 7  -9478510.016 6  22452764.422
  -5961414.12447  -4604363.21843  23691475.1644                   23691478.3014
 -22348102.695 8 -17396733.052 8  20381579.961
 -16114823.06347 -12508993.99146  21573932.7504                   21573931.8244
 11  8 29  1 42  0.0000000  0  8G25G10G12G29G26G15G05G02
 -16667169.592 8 -12972964.686 7  21590632.305
  -5354322.25846  -4110064.68943  23650367.8754                   23650371.0634
 -15788925.980 8 -12282203.333 7  21616590.172
 -12261915.518 7  -9541622.896 7  22437351.609
  -6057445.61546  -4679192.85143  23673200.6954                   23673203.5904
   -176865.28816   -123881.87716  24615440.172
 -22322617.653 8 -17376874.568 8  20386429.500
 -16075960.90447 -12478711.79245  21581328.0004                   21581326.4304
 11  8 29  1 42 30.0000000  0  8G25G10G12G29G26G15G05G02
 -16659523.086 8 -12967006.410 7  21592087.727
  -5249464.40546  -4028357.36643  23670322.3054                   23670323.9694
 -15721728.840 7 -12229841.950 7  21629377.148
 -12342814.041 7  -9604660.649 7  22421957.242
  -6153405.47546  -4753966.67043  23654940.1804                   23654943.3014
   -271557.158 6   -197667.456 6  24597420.719
 -22296619.171 8 -17356616.005 8  20391376.461
 -16037001.96347 -12448354.18145  21588741.7504                   21588740.9184
 11  8 29  1 43  0.0000000  0  8G25G10G12G29G26G15G05G02
 -16651301.092 8 -12960599.695 7  21593652.133
  -5144451.81246  -3946529.42543  23690304.6414                   23690308.0164
 -15654124.984 8 -12177163.651 7  21642241.719
 -12423608.708 7  -9667617.463 7  22406582.875
  -6249284.88446  -4828677.80243  23636695.3054                   23636698.3714
   -366366.750 6   -271544.792 6  24579378.648
 -22270103.428 8 -17335954.377 8  20396422.844
 -15997941.27248 -12417917.28645  21596174.9454                   21596173.7384
 11  8 29  1 43 30.0000000  0  8G25G10G12G29G26G15G05G02
 -16642507.630 8 -12953747.692 7  21595325.570
  -5039290.26747  -3864585.41843  23710317.2974                   23710319.5514
 -15586120.442 7 -12124173.110 7  21655182.313
 -12504300.952 7  -9730494.538 7  22391228.000
  -6345083.34946  -4903325.84943  23618464.4144                   23618468.4344
   -461294.676 6   -345514.318 6  24561314.688
 -22243075.576 8 -17314893.707 8  20401565.914
 -15958782.18248 -12387403.71246  21603626.5314                   21603625.5434
 11  8 29  1 44  0.0000000  0  8G25G10G12G29G26G15G05G02
 -16633142.106 8 -12946449.898 7  21597107.742
  -4933981.62847  -3782526.82244  23730356.6254                   23730358.7894
 -15517716.212 8 -12070871.132 7  21668199.414
 -12584887.687 7  -9793289.357 7  22375892.641
  -6440796.26247  -4977907.26643  23600251.5164                   23600254.6484
   -556337.178 6   -419573.177 6  24543227.875
 -22215535.704 8 -17293434.065 8  20406806.484
 -15919523.15047 -12356812.26846  21611097.2584                   21611096.6454
 11  8 29  1 44 30.0000000  0  8G25G10G12G29G26G15G05G02
 -16623206.139 8 -12938707.627 7  21598998.344
  -4828529.17947  -3700356.15544  23750424.3754                   23750425.7194
 -15448915.968 7 -12017260.578 7  21681291.906
 -12665367.500 7  -9856000.872 7  22360577.703
  -6536420.90446  -5052419.88143  23582055.3284                   23582057.8834
   -651492.305 6   -493719.849 6  24525120.906
 -22187486.309 8 -17271577.385 8  20412144.055
 -15880165.80047 -12326144.21246  21618586.8524                   21618585.7814
 11  8 29  1 45  0.0000000  0  8G25G10G12G29G26G15G05G02
 -16612700.140 8 -12930521.175 7  21600997.609
  -4722934.96647  -3618074.97943  23770517.5004                   23770519.9804
 -15379721.911 7 -11963343.155 7  21694459.023
 -12745738.094 7  -9918627.257 7  22345282.992
  -6631953.57747  -5126860.79744  23563874.7664                   23563879.2114
   -746757.631 6   -567952.452 6  24506992.906
 -22158928.787 8 -17249324.765 8  20417578.094
 -15840709.45747 -12295399.01345  21626094.8134                   21626093.8014
 11  8 29  1 45 30.0000000  0  8G25G10G12G29G26G15G05G02
 -16601625.057 8 -12921891.285 7  21603105.047
  -4617202.04847  -3535685.72843  23790637.8524                   23790640.2344
 -15310136.872 7 -11909121.057 7  21707700.078
 -12825997.706 7  -9981167.194 7  22330010.695
  -6727390.36347  -5201227.04244  23545714.1414                   23545716.3244
   -842129.910 6   -642268.204 6  24488843.469
 -22129864.796 8 -17226677.489 8  20423109.219
 -15801154.11847 -12264576.67045  21633622.3364                   21633620.3134
 11  8 29  1 46  0.0000000  0  8G25G10G12G29G26G15G05G02
 -16589981.808 8 -12912818.657 7  21605320.680
  -4511332.88047  -3453190.33843  23810784.2034                   23810786.4344
 -15240163.565 8 -11854596.441 7  21721016.148
 -12906144.413 7 -10043619.130 7  22314759.523
  -6822727.96247  -5275515.92844  23527571.7814                   23527575.2814
   -937607.035 7   -716665.708 6  24470675.141
 -22100295.969 8 -17203636.842 8  20428735.719
 -15761500.45047 -12233677.71045  21641168.1024                   21641166.5474
 11  8 29  1 46 30.0000000  0  8G25G10G12G29G26G15G05G02
 -16577770.957 8 -12903303.734 7  21607644.461
  -4405330.03446  -3370590.75943  23830955.3364                   23830958.1724
 -15169804.251 7 -11799771.027 7  21734405.266
 -12986175.824 7 -10105981.230 7  22299529.664
  -6917962.58547  -5349724.62344  23509449.0164                   23509452.6994
  -1033186.073 6   -791142.710 6  24452485.914
 -22070223.808 8 -17180203.993 8  20434458.211
 -15721748.16347 -12202701.90845  21648732.6254                   21648731.6094
 11  8 29  1 47  0.0000000  0  8G25G10G12G29G26G15G05G02
 -16564993.620 8 -12893347.385 7  21610075.945
  -4299195.85746  -3287888.84143  23851153.4614                   23851153.8134
 -15099062.074 8 -11744647.270 7  21747867.117
 -13066090.114 7 -10168252.095 7  22284322.578
  -7013090.47247  -5423850.15044  23491347.1414                   23491349.6024
  -1128864.937 6   -865697.414 6  24434278.602
 -22039650.280 8 -17156380.455 8  20440276.617
 -15681897.08547 -12171649.12045  21656316.2274                   21656314.8404
 11  8 29  1 47 30.0000000  0  8G25G10G12G29G26G15G05G02
 -16551651.254 8 -12882950.759 7  21612615.070
  -4192933.66146  -3205087.18143  23871373.2194                   23871375.3834
 -15027940.063 7 -11689227.558 7  21761401.141
 -13145886.017 7 -10230430.673 7  22269137.023
  -7108109.00047  -5497890.43444  23473265.6094                   23473268.5594
  -1224641.126 7   -940327.987 6  24416053.297
 -22008577.700 8 -17132168.045 8  20446189.328
 -15641948.18248 -12140520.11645  21663917.8674                   21663917.2584
 11  8 29  1 48  0.0000000  0  8G25G10G12G29G26G15G05G02
 -16537744.258 8 -12872114.158 7  21615261.273
  -4086545.44146  -3122187.35343  23891618.7034                   23891620.5664
 -14956440.691 7 -11633513.773 7  21775006.766
 -13225560.866 7 -10292514.924 7  22253975.648
  -7203013.91047  -5571842.21444  23455205.7974                   23455208.9694
  -1320511.400 6  -1015031.903 5  24397808.930
 -21977006.961 8 -17107567.466 8  20452196.945
 -15601900.96348 -12109314.49946  21671538.6484                   21671537.5594
 11  8 29  1 48 30.0000000  0  8G25G10G12G29G26G15G05G02
 -16523274.022 8 -12860838.663 7  21618015.109
  -3980034.52546  -3039191.91543  23911887.5944                   23911889.8484
 -14884566.834 7 -11577508.175 7  21788683.945
 -13305112.779 7 -10354503.395 7  22238838.117
  -7297801.89247  -5645702.86744  23437168.0234                   23437171.1564
  -1416473.423 6  -1089807.328 5  24379548.281
 -21944940.325 8 -17082580.477 8  20458299.148
 -15561756.03548 -12078032.74846  21679178.1024                   21679177.5044
 11  8 29  1 49  0.0000000  0  8G25G10G12G29G26G15G05G02
 -16508241.630 8 -12849125.110 7  21620875.367
  -3873403.11746  -2956102.58743  23932179.3444                   23932181.7384
 -14812320.980 7 -11521212.741 7  21802431.938
 -13384540.040 7 -10416394.743 7  22223723.711
  -7392469.51947  -5719469.77544  23419153.5704                   23419156.3204
  -1512524.988 6  -1164652.519 6  24361271.063
 -21912379.554 8 -17057208.446 8  20464495.078
 -15521513.04847 -12046674.58045  21686835.7734                   21686835.0984
 11  8 29  1 49 30.0000000  0  8G25G10G12G29G26G15G05G02
 -16492648.548 8 -12836974.665 7  21623842.750
  -3766654.51246  -2872921.92843  23952492.2584                   23952495.0664
 -14739706.539 7 -11464630.069 7  21816250.352
 -13463840.897 8 -10478187.574 7  22208632.844
  -7487013.53747  -5793140.33744  23401161.9774                   23401164.8714
  -1608663.611 6  -1239565.586 6  24342975.641
 -21879327.188 8 -17031453.354 8  20470785.180
 -15481172.82948 -12015240.64845  21694512.6414                   21694511.8094
 11  8 29  1 50  0.0000000  0  8G25G10G12G29G26G15G05G02
 -16476495.007 8 -12824387.487 7  21626916.461
  -3659790.15046  -2789651.10643  23972827.7814                   23972830.7114
 -14666726.051 7 -11407762.177 7  21830137.828
 -13543012.669 7 -10539879.813 7  22193566.813
  -7581429.56747  -5866711.15844  23383195.0084                   23383198.6994
  -1704885.609 6  -1314543.533 5  24324665.156
 -21845783.761 8 -17005315.614 8  20477167.602
 -15440734.57148 -11983730.32445  21702207.4304                   21702206.8554
 11  8 29  1 50 30.0000000  0  8G25G10G12G29G26G15G05G02
 -16459782.244 8 -12811364.576 7  21630097.195
  -3552812.79147  -2706292.16544  23993185.0784                   23993187.2974
 -14593381.715 7 -11350610.759 7  21844094.781
 -13622053.312 7 -10601469.874 7  22178526.086
  -7675714.11547  -5940179.54344  23365253.4224                   23365256.0984
  -1801188.886 6  -1389584.897 6  24306338.680
 -21811751.528 8 -16978796.977 8  20483644.070
 -15400198.42848 -11952143.72145  21709921.6254                   21709920.4104
 11  8 29  1 51  0.0000000  0  8G25G10G12G29G26G15G05G02
 -16442511.139 8 -12797906.576 7  21633383.805
  -3445724.86046  -2622847.08243  24013563.3054                   24013565.5864
 -14519676.396 7 -11293178.054 7  21858120.344
 -13700960.575 7 -10662955.994 7  22163509.977
  -7769863.34447  -6013542.50444  23347337.6174                   23347340.0554
  -1897570.368 7  -1464687.121 6  24287997.852
 -21777231.941 8 -16951898.595 8  20490212.867
 -15359564.34547 -11920480.80745  21717654.1804                   21717653.0944
 11  8 29  1 51 30.0000000  0  8G25G10G12G29G26G15G05G02
 -16424683.792 8 -12784015.129 7  21636776.172
  -3338529.68346  -2539318.45943  24033962.2814                   24033964.3284
 -14445613.946 7 -11235467.072 7  21872214.180
 -13779733.285 7 -10724337.290 7  22148520.203
  -7863874.64847  -6086797.94944  23329446.9614                   23329450.0314
  -1994028.444 7  -1539849.042 6  24269642.813
 -21742228.072 8 -16924622.843 8  20496873.930
 -15318833.31048 -11888742.33545  21725404.9534                   21725403.7624
 11  8 29  1 52  0.0000000  0  8G25G10G12G29G26G15G05G02
 -16406301.448 8 -12769691.230 7  21640274.336
  -3231229.75646  -2455708.19144  24054380.3524                   24054382.6884
 -14371196.715 7 -11177479.635 7  21886375.320
 -13858369.485 7 -10785612.238 7  22133556.477
  -7957744.27847  -6159943.04044  23311584.3594                   23311587.4264
  -2090560.066 7  -1615068.359 6  24251272.984
 -21706741.565 8 -16896971.008 8  20503626.844
 -15278005.17448 -11856928.19945  21733174.1484                   21733173.1214
 11  8 29  1 52 30.0000000  0  8G25G10G12G29G26G15G05G02
 -16387364.851 8 -12754935.454 7  21643877.508
  -3123827.48746  -2372018.15543  24074818.5944                   24074820.5274
 -14296427.015 7 -11119217.547 7  21900603.273
 -13936866.658 7 -10846778.848 7  22118618.789
  -8051468.42647  -6232974.76644  23293749.3054                   23293752.4734
  -2187162.603 6  -1690342.984 6  24232889.461
 -21670774.088 8 -16868944.394 8  20510470.922
 -15237079.66148 -11825038.18545  21740961.8674                   21740960.5554
 11  8 29  1 53  0.0000000  0  8G25G10G12G29G26G15G05G02
 -16367874.580 8 -12739748.228 7  21647586.414
  -3016324.82246  -2288249.88843  24095275.4304                   24095277.8164
 -14221308.063 8 -11060683.318 7  21914898.039
 -14015222.086 7 -10907834.986 7  22103708.250
  -8145042.50446  -6305889.54344  23275942.7504                   23275945.5904
  -2283832.160 6  -1765669.614 6  24214494.555
 -21634326.894 8 -16840543.985 8  20517406.938
 -15196056.29548 -11793071.92345  21748768.6724                   21748767.4534
 11  8 29  1 53 30.0000000  0  8G25G10G12G29G26G15G05G02
 -16347832.171 8 -12724130.789 7  21651400.430
  -2908724.49046  -2204405.53043  24115751.2274                   24115753.9264
 -14145842.339 8 -11001878.875 7  21929258.555
 -14093433.982 7 -10968779.256 7  22088824.648
  -8238463.42247  -6378684.96744  23258165.2814                   23258167.8324
  -2380566.804 6  -1841047.042 6  24196086.531
 -21597402.242 8 -16811771.519 8  20524433.469
 -15154935.10648 -11761029.43545  21756593.6174                   21756592.6334
 11  8 29  1 54  0.0000000  0  8G25G10G12G29G26G15G05G02
 -16327239.771 8 -12708084.772 7  21655319.102
  -2801029.47046  -2120487.35642  24136245.0394                   24136247.5704
 -14070033.246 8 -10942806.879 7  21943684.742
 -14171500.959 7 -11029610.617 7  22073969.031
  -8331728.47347  -6451358.93944  23240417.2814                   23240420.6374
  -2477364.547 6  -1916473.703 6  24177666.297
 -21560002.612 8 -16782628.944 8  20531550.453
 -15113717.05948 -11728911.47945  21764437.2194                   21764436.4104
 11  8 29  1 54 30.0000000  0  8G25G10G12G29G26G15G05G02
 -16306098.108 8 -12691610.751 7  21659342.164
  -2693241.83746  -2036496.98642  24156756.6724                   24156758.7344
 -13993883.114 8 -10883469.126 7  21958175.789
 -14249420.537 8 -11090327.112 7  22059141.266
  -8424833.21047  -6523908.00944  23222700.0394                   23222702.7384
  -2574222.031 6  -1991946.865 6  24159234.695
 -21522129.536 7 -16753117.452 8  20538757.406
 -15072401.48047 -11696717.52245  21772299.0554                   21772298.1294
 11  8 29  1 55  0.0000000  0  8G25G10G12G29G26G15G05G02
 -16284408.657 8 -12674709.905 7  21663469.328
  -2585364.00145  -1952436.39942  24177283.8834                   24177287.5984
 -13917395.484 8 -10823868.391 7  21972730.852
 -14327190.672 8 -11150927.203 7  22044342.570
  -8517774.24047  -6596329.49844  23205014.0004                   23205017.0474
  -2671136.773 6  -2067464.716 6  24140791.930
 -21483785.248 8 -16723238.781 8  20546054.070
 -15030989.00548 -11664448.04845  21780179.6564                   21780178.4144
 11  8 29  1 55 30.0000000  0  8G25G10G12G29G26G15G05G02
 -16262172.713 8 -12657383.200 7  21667700.898
  -2477398.91346  -1868307.78643  24197829.5314                   24197832.9104
 -13840573.303 8 -10764006.986 7  21987349.375
 -14404809.086 7 -11211409.078 6  22029572.250
  -8610548.00447  -6668620.66744  23187360.0314                   23187362.2074
  -2768105.782 6  -2143024.811 6  24122339.320
 -21444971.545 7 -16692994.335 8  20553439.750
 -14989479.12247 -11632102.68645  21788078.9614                   21788077.8284
 11  8 29  1 56  0.0000000  0  8G25G10G12G29G26G15G05G02
 -16239391.914 8 -12639631.939 7  21672035.867
  -2369349.30246  -1784113.34142  24218390.6954                   24218394.4654
 -13763419.296 8 -10703887.000 7  22002031.805
 -14482273.836 7 -11271771.202 7  22014830.938
  -8703150.59147  -6740778.44244  23169738.3444                   23169740.7974
  -2865126.614 6  -2218625.280 6  24103877.352
 -21405690.721 8 -16662385.887 8  20560914.992
 -14947872.21747 -11599681.71845  21795996.2664                   21795994.9964
 11  8 29  1 56 30.0000000  0  8G25G10G12G29G26G15G05G02
 -16216067.451 8 -12621457.040 7  21676474.398
  -2261217.21546  -1699854.59243  24238967.7734                   24238970.9654
 -13685936.047 8 -10643510.458 7  22016775.844
 -14559583.045 7 -11332012.118 7  22000118.906
  -8795578.75647  -6812800.29344  23152149.2894                   23152152.1564
  -2962196.309 6  -2294263.851 6  24085404.102
 -21365944.625 8 -16631414.904 8  20568478.289
 -14906168.13148 -11567185.03645  21803932.6884                   21803931.3244
 11  8 29  1 57  0.0000000  0  8G25G10G12G29G26G15G05G02
 -16192200.691 8 -12602859.594 7  21681016.203
  -2153005.05246  -1615533.47843  24259559.1804                   24259563.0864
 -13608126.490 8 -10582879.657 7  22031582.992
 -14636734.335 7 -11392129.951 7  21985438.203
  -8887828.29847  -6884682.98744  23134595.1804                   23134597.1374
  -3059312.017 6  -2369938.260 6  24066924.680
 -21325734.959 8 -16600082.692 8  20576129.969
 -14864366.70448 -11534612.49145  21811887.5474                   21811886.5634
 11  8 29  1 57 30.0000000  0  8G25G10G12G29G26G15G05G02
 -16167793.047 8 -12583840.660 7  21685660.797
  -2044715.40346  -1531151.98643  24280166.2814                   24280170.1524
 -13529993.381 8 -10521996.738 7  22046451.063
 -14713725.590 8 -11452123.114 7  21970787.164
  -8979896.01247  -6956423.97844  23117074.8284                   23117077.2384
  -3156471.234 6  -2445646.594 6  24048435.289
 -21285064.199 8 -16568391.189 8  20583869.297
 -14822468.04348 -11501964.17945  21819859.7344                   21819859.1214
 11  8 29  1 58  0.0000000  0  8G25G10G12G29G26G15G05G02
 -16142846.618 8 -12564401.915 7  21690408.141
  -1936351.19746  -1446712.41843  24300787.9774                   24300790.4224
 -13451540.634 8 -10460864.766 7  22061380.109
 -14790554.995 8 -11511990.154 7  21956167.305
  -9071778.52747  -7028020.66644  23099590.4614                   23099592.4844
  -3253671.379 6  -2521386.827 5  24029938.422
 -21243934.596 8 -16536342.140 8  20591695.844
 -14780472.53548 -11469240.40645  21827851.5634                   21827850.6094
 11  8 29  1 58 30.0000000  0  8G25G10G12G29G26G15G05G02
 -16117362.022 8 -12544543.800 7  21695257.406
  -1827913.96746  -1362215.89843  24321422.7344                   24321426.2704
 -13372769.543 8 -10399484.721 7  22076370.102
 -14867219.705 7 -11571728.878 7  21941578.484
  -9163471.51547  -7099469.66644  23082141.0164                   23082143.0784
  -3350909.143 6  -2597156.375 6  24011435.258
 -21202347.350 8 -16503936.502 8  20599609.836
 -14738379.31447 -11436440.50445  21835861.8444                   21835860.6954
 11  8 29  1 59  0.0000000  0  8G25G10G12G29G26G15G05G02
 -16091341.308 8 -12524267.971 7  21700209.305
  -1719406.72946  -1277664.82543  24342071.1484                   24342073.6764
 -13293684.907 8 -10337860.369 7  22091419.398
 -14943718.262 8 -11631338.136 7  21927021.367
  -9254971.66947  -7170768.42844  23064729.8984                   23064731.9964
  -3448182.117 6  -2672953.305 6  23992924.398
 -21160305.304 8 -16471176.454 8  20607610.539
 -14696188.90247 -11403564.86445  21843889.9144                   21843889.0824
 11  8 29  1 59 30.0000000  0  8G25G10G12G29G26G15G05G02
 -16064785.864 8 -12503575.423 7  21705262.789
  -1610831.63546  -1193060.91043  24362732.0164                   24362735.4654
 -13214288.584 8 -10275993.113 7  22106527.523
 -15020048.205 8 -11690815.978 7  21912496.063
  -9346275.14646  -7241913.89144  23047354.8524                   23047358.0394
  -3545487.290 7  -2748775.388 6  23974407.813
 -21117810.379 8 -16438063.522 8  20615696.570
 -14653901.31247 -11370613.50745  21851937.0474                   21851935.9414
 11  8 29  2  0  0.0000000  0  8G25G10G12G29G26G15G05G02
 -16037697.638 8 -12482467.740 7  21710417.273
  -1502191.42546  -1108406.27643  24383406.5314                   24383408.7974
 -13134584.133 8 -10213885.780 7  22121695.008
 -15096207.513 7 -11750160.872 7  21898003.648
  -9437378.69046  -7312903.60144  23030018.3674                   23030020.4614
  -3642822.412 7  -2824620.815 6  23955884.578
 -21074864.780 8 -16404599.416 8  20623868.867
 -14611516.27447 -11337586.21045  21860002.3134                   21860001.5394
 11  8 29  2  0 30.0000000  0  8G25G10G12G29G26G15G05G02
 -16010076.134 8 -12460944.499 7  21715673.438
  -1393486.61646  -1023701.24843  24404091.9844                   24404094.1134
 -13054572.210 8 -10151538.856 7  22136921.273
 -15172192.304 8 -11809369.735 7  21883544.031
  -9528276.65147  -7383733.11844  23012720.7974                   23012723.6214
  -3740182.400 6  -2900485.616 6  23937357.961
 -21031468.716 8 -16370784.308 8  20632126.844
 -14569032.26147 -11304481.78145  21868086.9844                   21868085.9104
 11  8 29  2  1  0.0000000  0  8G25G10G12G29G26G15G05G02
 -15981925.983 8 -12439009.359 7  21721030.461
  -1284722.52346   -938950.02743  24424788.8364                   24424791.5084
 -12974258.779 8 -10088956.993 7  22152203.906
 -15248003.243 8 -11868443.166 7  21869117.445
  -9618968.18946  -7454401.76944  22995462.6254                   22995465.2854
  -3837567.544 7  -2976370.020 6  23918826.555
 -20987627.417 8 -16336622.250 7  20640469.773
 -14526451.62147 -11271302.07645  21876189.6954                   21876189.4064
 11  8 29  2  1 30.0000000  0  9G25G10G12G29G26G15G05G21G02
 -15953246.846 8 -12416661.993 7  21726487.570
  -1175899.39346   -854152.85743  24445496.5864                   24445500.2274
 -12893644.778 8 -10026140.897 7  22167544.406
 -15323636.136 8 -11927377.850 7  21854725.031
  -9709447.78847  -7524905.26644  22978245.1024                   22978248.1414
  -3934972.891 6  -3052270.155 6  23900290.313
 -20943340.795 8 -16302113.182 8  20648896.789
    467050.29115                  25180630.578
 -14483772.94748 -11238045.97445  21884311.7584                   21884310.3204
 11  8 29  2  2  0.0000000  0  9G25G10G12G29G26G15G05G21G02
 -15924041.494 8 -12393904.613 7  21732045.539
  -1067021.03446   -769312.60742  24466216.7664                   24466219.2734
 -12812734.766 8  -9963094.174 7  22182941.203
 -15399089.937 7 -11986172.960 7  21840366.008
  -9799712.68547  -7595241.52444  22961067.9384                   22961070.5234
  -4032396.825 6  -3128184.769 6  23881750.930
 -20898612.059 8 -16267259.619 8  20657408.570
    408653.308 5                  25169517.531
 -14440997.07047 -11204714.13045  21892451.4304                   21892450.5394
 11  8 29  2  2 30.0000000  0  9G25G10G12G29G26G15G05G21G02
 -15894310.421 8 -12370737.557 7  21737702.844
   -958088.38346   -684430.04142  24486944.5864                   24486947.7894
 -12731530.240 8  -9899817.932 7  22198393.531
 -15474361.431 8 -12044826.036 7  21826042.875
  -9889758.37947  -7665406.88444  22943932.7664                   22943935.8714
  -4129835.390 6  -3204110.785 6  23863209.094
 -20853442.368 8 -16232062.459 8  20666004.109
    350267.00315                  25158406.516
 -14398122.75847 -11171305.57345  21900609.9614                   21900609.0314
 11  8 29  2  3  0.0000000  0  9G25G10G12G29G26G15G05G21G02
 -15864057.109 8 -12347163.567 7  21743460.070
   -849105.50346   -599508.31742  24507683.5784                   24507686.1724
 -12650035.994 8  -9836315.954 7  22213901.414
 -15549449.648 7 -12103336.295 7  21811754.000
  -9979582.64447  -7735399.76544  22926839.8054                   22926842.2584
  -4227287.499 7  -3280047.344 6  23844665.422
 -20807835.718 8 -16196524.799 8  20674682.914
    291889.024 6                  25147297.828
 -14355151.60347 -11137821.57345  21908787.4454                   21908786.2274
 11  8 29  2  3 30.0000000  0  9G25G10G12G29G26G15G05G21G02
 -15833281.607 8 -12323182.640 7  21749316.055
   -740073.14646   -514548.02942  24528432.2974                   24528435.5124
 -12568253.350 8  -9772589.236 7  22229464.000
 -15624351.287 7 -12161701.159 7  21797500.563
 -10069180.29847  -7805216.04744  22909789.6094                   22909791.7894
  -4324748.152 6  -3355990.576 6  23826117.258
 -20761792.492 7 -16160646.961 8  20683444.523
    233520.664 6                  25136188.992
 -14312081.82347 -11104260.69445  21916982.9614                   21916981.9694
 11  8 29  2  4  0.0000000  0  9G25G10G12G29G26G15G05G21G02
 -15801987.034 8 -12298797.280 7  21755271.656
   -630994.94146   -429552.05242  24549189.2114                   24549193.0984
 -12486186.711 7  -9708641.231 7  22245080.906
 -15699065.347 8 -12219919.879 7  21783282.734
 -10158548.80647  -7874853.76944  22892783.8134                   22892786.0634
  -4422216.569 7  -3431939.868 6  23807570.898
 -20715316.249 8 -16124431.702 8  20692288.563
    175159.96945    716822.84052  25125084.5474                   25125086.6644
 -14268914.75047 -11070624.03345  21925197.4924                   21925196.3364
 11  8 29  2  4 30.0000000  0  9G25G10G12G29G26G15G05G21G02
 -15770174.168 8 -12274008.039 7  21761325.375
   -521872.39946   -344521.49842  24569954.8834                   24569958.1884
 -12403837.936 8  -9644473.366 7  22260751.281
 -15773588.602 8 -12277989.909 7  21769101.703
 -10247683.65947  -7944309.42844  22875822.0084                   22875824.2544
  -4519688.793 6  -3507892.121 6  23789021.398
 -20668408.093 8 -16087879.886 8  20701215.047
    116807.63145    671353.56942  25113979.6724                   25113983.6174
 -14225649.42147 -11036910.80345  21933431.1484                   21933430.1294
 11  8 29  2  5  0.0000000  0  9G25G10G12G29G26G15G05G21G02
 -15737840.184 8 -12248812.732 7  21767478.703
   -412703.13846   -259454.60642  24590729.2274                   24590732.2584
 -12321205.441 7  -9580084.439 7  22276475.930
 -15847914.182 7 -12335905.915 7  21754958.148
 -10336576.37047  -8013576.40144  22858906.2034                   22858908.6604
  -4617157.005 7  -3583841.246 6  23770474.555
 -20621065.822 8 -16050989.813 8  20710224.102
     58467.24245    625893.58042  25102877.7664                   25102882.9734
 -14182280.96947 -11003117.21645  21941683.7894                   21941682.8204
 11  8 29  2  5 30.0000000  0  8G25G12G29G26G15G05G21G02
 -15704996.834 8 -12223220.510 7  21773728.102
 -12238302.141 8  -9515484.463 7  22292251.703
 -15922049.850 8 -12393673.928 7  21740850.539
 -10425233.46147  -8082659.79644  22842034.9144                   22842037.6914
  -4714628.289 7  -3659792.814 6  23751926.578
 -20573301.290 8 -16013770.684 8  20719313.313
       128.64746    580434.87442  25091777.8054                   25091780.8984
 -14138819.14447 -10969250.86745  21949954.3984                   21949953.3524
 11  8 29  2  6  0.0000000  0  8G25G12G29G26G15G05G21G02
 -15671641.052 8 -12197229.012 7  21780075.367
 -12155126.301 7  -9450672.140 7  22308079.648
 -15995988.291 8 -12451288.258 7  21726780.398
 -10513646.16847  -8151552.75344  22825210.7734                   22825213.5744
  -4812094.753 7  -3735740.624 6  23733379.070
 -20525111.928 8 -15976220.531 8  20728483.172
    -58203.61546    534981.22642  25080676.4144                   25080680.5474
 -14095258.95348 -10935307.86245  21958242.8674                   21958242.4884
 11  8 29  2  6 30.0000000  0  8G25G12G29G26G15G05G21G02
 -15637774.465 8 -12170839.473 7  21786520.063
 -12071680.680 8  -9385649.607 7  22323959.000
 -16069727.261 7 -12508747.157 7  21712748.219
 -10601810.68747  -8220252.30344  22808433.5474                   22808434.9344
  -4909553.623 7  -3811682.483 6  23714832.930
 -20476499.963 8 -15938341.081 8  20737733.984
   -116530.20646    489531.94942  25069577.2274                   25069580.4264
 -14051600.13348 -10901288.00145  21966551.4534                   21966550.0744
 11  8 29  2  7  0.0000000  0  8G25G12G29G26G15G05G21G02
 -15603398.639 7 -12144053.123 7  21793061.734
 -11987968.031 8  -9320418.990 7  22339889.195
 -16143264.118 8 -12566048.562 7  21698754.391
 -10689722.84747  -8288755.19644  22791704.2504                   22791706.0904
  -5007001.712 6  -3887615.992 6  23696289.063
 -20427467.130 8 -15900133.680 7  20747064.641
   -174851.08146    444087.10142  25058479.1884                   25058482.2424
 -14007842.26347 -10867190.96445  21974878.4614                   21974877.1334
 11  8 29  2  7 30.0000000  0  8G25G12G29G26G15G05G21G02
 -15568516.111 8 -12116871.941 7  21799699.617
 -11903991.671 7  -9254982.885 7  22355869.375
 -16216597.114 7 -12623191.139 7  21684800.070
 -10777379.68647  -8357059.16344  22775023.7424                   22775026.2034
  -5104436.277 6  -3963538.970 6  23677748.203
 -20378016.346 8 -15861600.602 7  20756474.773
   -233167.50946    398645.76242  25047382.2894                   25047385.0514
 -13963985.72447 -10833017.03745  21983223.4384                   21983222.9884
 11  8 29  2  8  0.0000000  0  8G25G12G29G26G15G05G21G02
 -15533128.137 8 -12089296.919 7  21806433.750
 -11819754.480 7  -9189343.549 7  22371899.211
 -16289723.441 7 -12680172.663 7  21670884.414
 -10864776.90147  -8425160.82244  22758392.7274                   22758394.8364
  -5201854.030 6  -4039448.780 6  23659210.156
 -20328148.958 8 -15822742.890 7  20765964.188
   -291479.19846    353208.16442  25036285.0704                   25036289.1564
 -13920029.95647 -10798765.78945  21991588.1884                   21991586.8094
 11  8 29  2  8 30.0000000  0  8G25G12G29G26G15G05G21G02
 -15497237.801 8 -12061330.424 7  21813263.539
 -11735260.328 7  -9123503.962 7  22387977.750
 -16362642.104 8 -12736992.376 7  21657008.609
 -10951911.75447  -8493058.05944  22741811.2974                   22741812.9694
  -5299253.179 6  -4115344.122 6  23640675.063
 -20277868.691 8 -15783563.466 8  20775532.117
   -349787.79846    307772.91743  25025189.8984                   25025193.5234
 -13875975.74347 -10764437.83845  21999971.5394                   21999970.9884
 11  8 29  2  9  0.0000000  0  8G25G12G29G26G15G05G21G02
 -15460845.700 8 -12032972.976 7  21820188.672
 -11650510.986 7  -9057465.550 7  22404105.352
 -16435349.468 7 -12793647.438 7  21643172.906
 -11038779.50047  -8560747.14744  22725281.2504                   22725283.2704
  -5396629.285 7  -4191221.539 6  23622144.758
 -20227176.569 8 -15744063.122 7  20785178.641
   -408092.68346    262340.65342  25014095.4614                   25014097.6764
 -13831821.55447 -10730031.99345  22008373.8284                   22008372.8164
 11  8 29  2  9 30.0000000  0  8G25G12G29G26G15G05G21G02
 -15423954.967 8 -12004226.965 7  21827209.359
 -11565510.762 7  -8991231.629 7  22420280.195
 -16507844.260 8 -12850136.853 7  21629376.594
 -11125377.32847  -8628225.92144  22708801.8364                   22708803.9224
  -5493980.602 6  -4267079.635 6  23603619.188
 -20176075.732 8 -15704244.290 7  20794902.867
   -466395.30946    216910.07443  25002999.3594                   25003002.9264
 -13787568.44747 -10695549.03445  22016794.9614                   22016794.1254
 11  8 29  2 10  0.0000000  0  8G25G12G29G26G15G05G21G02
 -15386566.695 7 -11975093.279 7  21834323.641
 -11480260.962 7  -8924803.244 7  22436502.328
 -16580123.414 8 -12906458.246 7  21615622.805
 -11211700.77047  -8695490.88444  22692375.1644                   22692376.9574
  -5591303.778 6  -4342915.771 6  23585099.602
 -20124567.493 8 -15664107.993 7  20804704.664
   -524695.38646    171481.58442  24991905.1414                   24991909.1804
 -13743215.39847 -10660988.24145  22025235.3594                   22025233.7544
 11  8 29  2 10 30.0000000  0  8G25G12G29G26G15G05G21G02
 -15348683.874 8 -11945574.218 7  21841532.375
 -11394766.754 7  -8858184.399 7  22452771.594
 -16652185.527 8 -12962610.533 7  21601909.922
 -11297747.03747  -8762539.84444  22676001.3284                   22676003.1524
  -5688596.523 6  -4418728.247 6  23566585.828
 -20072655.350 8 -15623656.986 7  20814582.867
   -582994.51546    126053.69342  24980811.3984                   24980814.9924
 -13698763.45748 -10626350.35745  22033694.1094                   22033692.7274
 11  8 29  2 11  0.0000000  0  8G25G12G29G26G15G05G21G02
 -15310308.132 8 -11915671.076 7  21848835.203
 -11309030.404 8  -8791376.893 7  22469086.570
 -16724027.530 8 -13018591.289 7  21588239.273
 -11383512.11747  -8829369.70444  22659680.5944                   22659682.6094
  -5785855.049 6  -4494514.043 6  23548077.266
 -20020340.847 8 -15582892.448 8  20824538.195
   -641292.76446     80626.65142  24969718.0084                   24969721.3094
 -13654211.37547 -10591634.46345  22042172.2504                   22042171.0554
 11  8 29  2 11 30.0000000  0  8G25G12G29G26G15G05G21G02
 -15271440.893 8 -11885384.945 7  21856231.445
 -11223054.117 7  -8724382.391 7  22485447.531
 -16795647.283 8 -13074398.885 7  21574610.367
 -11468991.50847  -8895976.99644  22643414.2114                   22643416.9844
  -5883076.385 7  -4570270.829 6  23529576.719
 -19967626.034 8 -15541815.965 7  20834569.414
   -699590.08846     35200.26043  24958623.9694                   24958627.4574
 -13609558.78047 -10556840.24145  22050668.6254                   22050668.0904
 11  8 29  2 12  0.0000000  0  8G25G12G29G26G15G05G21G02
 -15232084.687 8 -11854717.809 7  21863720.820
 -11136841.455 7  -8657203.716 6  22501853.063
 -16867042.564 8 -13130031.545 7  21561023.797
 -11554182.16147  -8962359.26844  22627203.0704                   22627204.3984
  -5980257.441 7  -4645996.256 6  23511084.211
 -19914513.464 8 -15500429.560 7  20844676.484
   -757887.09646    -10225.87643  24947531.1564                   24947533.5704
 -13564805.87347 -10521967.85645  22059184.7894                   22059184.5594
 11  8 29  2 12 30.0000000  0  8G25G12G29G26G15G05G21G02
 -15192241.898 8 -11823671.502 7  21871302.555
 -11050395.778 7  -8589843.471 7  22518303.648
 -16938211.560 8 -13185487.874 7  21547480.922
 -11639080.57547  -9028513.79144  22611047.7814                   22611049.2934
  -6077395.686 7  -4721688.306 6  23492599.125
 -19861005.574 8 -15458735.107 7  20854858.820
   -816184.81446    -55652.57442  24936437.3134                   24936440.4064
 -13519952.99847 -10487017.57145  22067720.1644                   22067719.3634
 11  8 29  2 13  0.0000000  0  8G25G12G29G26G15G05G21G02
 -15151913.638 8 -11792246.916 7  21878976.875
 -10963718.935 7  -8522303.092 7  22534797.352
 -17009150.724 8 -13240765.111 7  21533981.984
 -11723682.01147  -9094436.94044  22594948.0234                   22594950.2344
  -6174487.424 7  -4797344.105 6  23474122.609
 -19807103.935 8 -15416733.828 7  20865115.703
   -874482.88346   -101079.49642  24925342.5634                   24925346.6054
 -13474998.81447 -10451988.35745  22076275.1094                   22076274.3364
 11  8 29  2 13 30.0000000  0  8G25G12G29G26G15G05G21G02
 -15111103.536 8 -11760446.852 7  21886742.641
 -10876816.159 7  -8454586.684 7  22551334.633
 -17079859.420 8 -13295862.765 7  21520526.313
 -11807984.55147  -9160127.15544  22578905.9534                   22578907.8834
  -6271530.888 7  -4872962.285 6  23455656.641
 -19752812.487 8 -15374428.804 7  20875446.852
   -932783.13146   -146508.15842  24914248.2274                   24914251.3524
 -13429944.54847 -10416881.15045  22084848.6414                   22084847.2504
 11  8 29  2 14  0.0000000  0  8G25G12G29G26G15G05G21G02
 -15069813.219 8 -11728272.630 7  21894600.125
 -10789689.375 7  -8386695.716 7  22567914.289
 -17150334.553 8 -13350778.439 7  21507115.586
 -11891983.70347  -9225580.97944  22562921.6024                   22562923.2234
  -6368522.722 7  -4948540.263 6  23437199.555
 -19698133.071 8 -15331821.481 7  20885852.266
   -991085.39045   -191938.36242  24903153.6254                   24903156.6644
 -13384789.45047 -10381695.37045  22093441.2664                   22093440.3954
 11  8 29  2 14 30.0000000  0  8G25G12G29G26G15G05G21G02
 -15028044.684 8 -11695725.734 7  21902548.203
 -10702341.769 7  -8318632.665 7  22584535.508
 -17220573.869 8 -13405510.357 7  21493749.469
 -11975675.67947  -9290795.45545  22546995.6094                   22546997.4774
  -6465459.641 7  -5024075.424 6  23418753.406
 -19643067.464 8 -15288913.212 7  20896330.891
  -1049390.17446   -237370.53042  24892058.1564                   24892061.9454
 -13339533.01047 -10346430.62445  22102053.9384                   22102052.1804
 11  8 29  2 15  0.0000000  0  8G25G12G29G26G15G05G21G02
 -14985800.450 7 -11662808.179 7  21910587.375
 -10614776.511 7  -8250400.028 7  22601199.328
 -17290575.321 8 -13460056.906 7  21480428.297
 -12059057.31147  -9355768.09444  22531128.4224                   22531129.9694
  -6562339.237 6  -5099565.950 6  23400317.438
 -19587618.659 8 -15245706.371 7  20906882.570
  -1107698.31246   -282805.33442  24880962.9924                   24880965.3914
 -13294175.47447 -10311087.09045  22110684.3134                   22110683.7664
 11  8 29  2 15 30.0000000  0  8G25G12G29G26G15G05G21G02
 -14943081.394 8 -11629520.610 7  21918716.219
 -10526995.475 7  -8181999.260 7  22617903.203
 -17360335.274 8 -13514415.278 7  21467153.039
 -12142123.38547  -9420494.83144  22515321.1094                   22515323.4614
  -6659157.041 7  -5175008.301 6  23381893.375
 -19531787.542 8 -15202201.613 7  20917506.648
  -1166008.90946   -328242.06143  24869867.1094                   24869869.7664
 -13248715.39547 -10275663.67645  22119335.2424                   22119334.1214
 11  8 29  2 16  0.0000000  0  8G25G12G29G26G15G05G21G02
 -14899891.482 8 -11595866.162 7  21926935.133
 -10439003.500 7  -8113434.100 7  22634647.516
 -17429853.052 8 -13568584.944 7  21453924.492
 -12224872.08447  -9484974.27944  22499574.5474                   22499576.9344
  -6755911.671 7  -5250401.465 6  23363481.734
 -19475578.293 8 -15158402.210 7  20928203.281
  -1224324.42046   -373682.65243  24858770.1334                   24858772.8244
 -13203154.40447 -10240161.61245  22128005.4614                   22128004.4184
 11  8 29  2 16 30.0000000  0  8G25G12G29G26G15G05G21G02
 -14856232.237 8 -11561845.972 7  21935243.383
 -10350802.766 7  -8044706.303 7  22651431.641
 -17499125.642 8 -13622563.564 7  21440742.336
 -12307298.93947  -9549202.94545  22483889.4774                   22483890.6254
  -6852599.364 7  -5325742.452 6  23345081.953
 -19418992.445 8 -15114309.348 7  20938970.859
  -1282643.96246   -419126.37343  24847671.2424                   24847674.8554
 -13157491.58947 -10204580.21945  22136694.8594                   22136693.5984
 11  8 29  2 17  0.0000000  0  8G25G12G29G26G15G05G21G02
 -14812105.948 8 -11527461.884 7  21943639.891
 -10262396.622 7  -7975818.421 7  22668254.828
 -17568150.881 8 -13676349.414 7  21427607.266
 -12389400.50547  -9613178.10845  22468265.7424                   22468268.1604
  -6949217.275 7  -5401029.054 6  23326696.594
 -19362032.503 8 -15069924.974 7  20949809.805
  -1340968.75846   -464574.20343  24836573.2194                   24836575.8204
 -13111726.34347 -10168919.01245  22145403.2974                   22145402.3714
 11  8 29  2 17 30.0000000  0  8G25G12G29G26G15G05G21G02
 -14767514.865 8 -11492715.580 7  21952125.664
 -10173787.773 7  -7906772.597 7  22685116.570
 -17636926.249 8 -13729940.577 7  21414519.531
 -12471172.72747  -9676896.67045  22452704.5474                   22452707.3914
  -7045762.142 7  -5476258.710 6  23308324.898
 -19304700.649 8 -15025250.820 7  20960719.883
  -1399299.12346   -510026.34042  24825472.9774                   24825475.6804
 -13065858.53948 -10133177.88245  22154132.0084                   22154130.7114
 11  8 29  2 18  0.0000000  0  8G25G12G29G26G15G05G21G02
 -14722461.280 8 -11457608.901 7  21960698.570
 -10084979.651 7  -7837571.500 7  22702015.977
 -17705449.711 8 -13783335.432 7  21401479.875
 -12552612.23547  -9740355.95845  22437207.3674                   22437210.0744
  -7142231.069 7  -5551429.225 6  23289967.289
 -19246999.294 8 -14980288.739 7  20971700.398
  -1457635.41646   -555483.16943  24814372.5314                   24814375.0514
 -13019888.17748 -10097356.82645  22162879.6804                   22162878.6884
 11  8 29  2 18 30.0000000  0  8G25G12G29G26G15G05G21G02
 -14676947.544 8 -11422143.668 7  21969360.031
  -9995975.127 7  -7768217.362 7  22718953.188
 -17773718.829 8 -13836532.129 7  21388488.930
 -12633715.43647  -9803553.19545  22421773.9614                   22421776.2734
  -7238621.138 7  -5626538.293 6  23271624.539
 -19188931.178 8 -14935040.867 7  20982750.242
  -1515978.18146   -600944.95643  24803270.0864                   24803272.4654
 -12973814.85348 -10061455.56045  22171647.6254                   22171646.2664
 11  8 29  2 19  0.0000000  0  8G25G12G29G26G15G05G21G02
 -14630976.306 8 -11386321.932 7  21978108.063
  -9906777.969 7  -7698713.101 7  22735926.711
 -17841731.441 8 -13889528.939 7  21375546.547
 -12714478.82847  -9866485.65845  22406405.1334                   22406407.2584
  -7334929.355 7  -5701583.575 6  23253297.586
 -19130498.675 8 -14889509.053 7  20993869.531
  -1574328.22146   -646412.47743  24792165.9774                   24792168.3014
 -12927638.66748 -10025474.12545  22180433.9924                   22180432.8324
 11  8 29  2 19 30.0000000  0  8G25G12G29G26G15G05G21G02
 -14584548.722 8 -11350144.599 7  21986943.000
  -9817389.207 7  -7629059.568 6  22752937.023
 -17909483.905 8 -13942323.054 7  21362653.219
 -12794897.70547  -9929149.67545  22391102.2274                   22391104.1884
  -7431151.636 7  -5776561.924 6  23234987.469
 -19071703.190 8 -14843694.404 7  21005057.961
  -1632684.69346   -691884.97043  24781060.7664                   24781063.6914
 -12881358.24548  -9989411.47345  22189241.5004                   22189239.9144
 11  8 29  2 20  0.0000000  0  8G25G12G29G26G15G05G21G02
 -14537669.043 8 -11313615.011 7  21995863.938
  -9727814.601 7  -7559261.199 6  22769982.578
 -17976976.105 8 -13994914.338 7  21349810.055
 -12874970.26347  -9991543.82245  22375864.7894                   22375866.3634
  -7527286.868 7  -5851472.389 6  23216693.359
 -19012548.937 8 -14797600.197 7  21016314.781
  -1691050.02146   -737364.39443  24769954.3914                   24769956.7704
 -12834975.29948  -9953268.94045  22198067.6724                   22198066.6134
 11  8 29  2 20 30.0000000  0  8G25G12G29G26G15G05G21G02
 -14490338.040 8 -11276733.700 7  22004870.477
  -9638055.251 7  -7489318.878 6  22787063.063
 -18044203.968 8 -14047299.650 7  21337017.031
 -12954691.18747 -10053663.96345  22360694.0474                   22360696.9614
  -7623330.436 7  -5926311.447 6  23198416.750
 -18953036.487 8 -14751226.866 7  21027639.734
  -1749423.19946   -782849.93643  24758846.5394                   24758848.8484
 -12788487.66647  -9917044.82645  22206914.1334                   22206913.2704
 11  8 29  2 21  0.0000000  0  8G25G12G29G26G15G05G21G02
 -14442559.070 8 -11239503.359 7  22013962.484
  -9548115.503 7  -7419235.947 7  22804178.422
 -18111165.912 8 -14099477.745 7  21324274.328
 -13034057.90147 -10115508.11545  22345591.3984                   22345592.7934
  -7719280.306 7  -6001077.494 6  23180158.398
 -18893169.322 8 -14704577.152 7  21039032.320
  -1807805.71846   -828342.73643  24747737.0474                   24747739.2384
 -12741896.34148  -9880739.90345  22215780.1254                   22215779.2384
 11  8 29  2 21 30.0000000  0  8G25G12G29G26G15G05G21G02
 -14394334.110 8 -11201925.462 7  22023139.398
  -9457997.609 7  -7349014.248 7  22821326.711
 -18177859.181 8 -14151446.503 7  21311583.492
 -13113066.50047 -10177073.20445  22330556.0004                   22330558.0314
  -7815132.623 7  -6075767.537 6  23161917.852
 -18832949.506 8 -14657652.625 7  21050491.742
  -1866197.46146   -873842.73443  24736624.0394                   24736626.8404
 -12695200.28547  -9844353.37645  22224666.2814                   22224665.1094
 11  8 29  2 22  0.0000000  0  8G25G12G29G26G15G05G21G02
 -14345665.961 8 -11164002.252 7  22032400.781
  -9367705.329 7  -7278656.624 6  22838509.320
 -18244282.139 8 -14203204.622 7  21298943.539
 -13191713.56047 -10238356.57945  22315590.0784                   22315592.0744
  -7910884.974 7  -6150379.652 6  23143697.156
 -18772379.533 8 -14610455.255 7  21062017.508
  -1924599.16246   -919350.45043  24725511.5634                   24725513.1134
 -12648399.70647  -9807885.40245  22233572.0394                   22233571.5004
 11  8 29  2 22 30.0000000  0  8G25G12G29G26G15G05G21G02
 -14296556.244 7 -11125734.922 7  22041746.070
  -9277240.859 7  -7208164.817 7  22855723.977
 -18310431.452 8 -14254749.527 7  21286356.141
 -13269994.67447 -10299354.78945  22300693.2344                   22300695.5004
  -8006533.564 7  -6224910.959 6  23125495.516
 -18711461.412 8 -14562986.605 7  21073609.836
  -1983010.66146   -964865.86543  24714396.2814                   24714396.9734
 -12601493.71047  -9771335.30345  22242497.5554                   22242497.1684
 11  8 29  2 23  0.0000000  0  8G25G12G29G26G15G05G21G02
 -14247007.920 8 -11087125.865 7  22051174.492
  -9186607.535 7  -7137541.495 6  22872971.063
 -18376304.951 8 -14306079.522 7  21273820.289
 -13347906.83047 -10360065.52045  22285867.2194                   22285868.5474
  -8102075.763 7  -6299359.328 6  23107314.023
 -18650197.864 8 -14515248.787 7  21085268.016
  -2041432.83546  -1010389.54343  24703278.9304                   24703280.0394
 -12554482.44147  -9734703.14845  22251443.3754                   22251442.8634
 11  8 29  2 23 30.0000000  0  8G25G12G29G26G15G05G21G02
 -14197024.151 7 -11048177.470 7  22060686.625
  -9095809.216 7  -7066789.531 6  22890249.422
 -18441901.398 8 -14357193.612 7  21261337.406
 -13425446.81747 -10420486.23545  22271112.3284                   22271113.9694
  -8197508.927 7  -6373722.740 6  23089153.625
 -18588591.722 8 -14467244.014 7  21096991.344
  -2099866.66446  -1055922.33543  24692159.2584                   24692159.7774
 -12507366.28247  -9697989.27145  22260409.6724                   22260408.9614
 11  8 29  2 24  0.0000000  0  8G25G12G29G26G15G05G21G02
 -14146605.891 8 -11008890.530 7  22070280.867
  -9004847.611 7  -6995910.379 7  22907557.883
 -18507216.740 8 -14408088.664 7  21248908.492
 -13502609.79147 -10480613.18545  22256428.3134                   22256430.6994
  -8292828.405 7  -6447997.581 6  23071014.859
 -18526644.396 8 -14418973.392 7  21108779.625
  -2158311.35846  -1101463.54543  24681037.5704                   24681038.6484
 -12460143.48948  -9661192.30245  22269396.0164                   22269395.0354
 11  8 29  2 24 30.0000000  0  8G25G12G29G26G15G05G21G02
 -14095756.275 8 -10969267.474 7  22079957.148
  -8913726.302 7  -6924906.771 6  22924898.523
 -18572249.203 8 -14458763.277 7  21236533.453
 -13579392.84247 -10540444.09545  22241817.3594                   22241818.9344
  -8388032.043 7  -6522182.171 6  23052898.648
 -18464358.751 8 -14370439.133 7  21120631.875
  -2216767.64146  -1147013.80943  24669912.7194                   24669914.5394
 -12412814.32147  -9624312.43445  22278402.5084                   22278400.7814
 11  8 29  2 25  0.0000000  0  8G25G12G29G26G15G05G21G02
 -14044478.957 8 -10929311.138 7  22089714.742
  -8822449.568 7  -6853782.063 6  22942267.719
 -18636997.698 8 -14509216.623 7  21224212.008
 -13655793.39048 -10599976.93545  22227278.6334                   22227280.6334
  -8483117.706 7  -6596274.796 6  23034803.648
 -18401738.622 8 -14321644.229 7  21132547.883
  -2275237.28046  -1192574.45943  24658786.3984                   24658788.4184
 -12365379.36447  -9587350.12645  22287429.3054                   22287427.7304
 11  8 29  2 25 30.0000000  0  8G25G12G29G26G15G05G21G02
 -13992775.521 8 -10889022.763 7  22099553.813
  -8731019.562 7  -6782537.937 7  22959666.484
 -18701458.689 8 -14559445.946 7  21211945.961
 -13731807.03847 -10659208.31345  22212813.5554                   22212815.5634
  -8578081.465 7  -6670272.439 6  23016732.336
 -18338784.739 8 -14272589.267 7  21144528.063
  -2333719.79546  -1238145.15143  24647657.5944                   24647659.7814
 -12317837.73247  -9550304.71645  22296475.4614                   22296475.0944
 11  8 29  2 26  0.0000000  0  9G25G18G12G29G26G15G05G21G02
 -13940648.581 7 -10848404.397 7  22109472.969
    251417.38215                  24679581.742
  -8639439.251 7  -6711176.677 7  22977093.703
 -18765630.354 8 -14609449.816 7  21199734.211
 -13807430.14947 -10718135.38045  22198423.0164                   22198424.9184
  -8672920.266 7  -6744172.742 6  22998685.492
 -18275499.836 8 -14223276.375 7  21156570.703
  -2392215.82546  -1283726.38543  24636526.6884                   24636527.5634
 -12270189.09247  -9513175.91145  22305542.7504                   22305541.8874
 11  8 29  2 26 30.0000000  0  9G25G18G12G29G26G15G05G21G02
 -13888102.301 8 -10807459.259 7  22119472.148
    161396.736 5                  24662450.438
  -8547713.304 7  -6639701.953 6  22994548.734
 -18829511.663 8 -14659227.440 7  21187577.813
 -13882660.82847 -10776756.64645  22184106.6644                   22184109.2934
  -8767632.383 7  -6817974.308 6  22980662.469
 -18211888.244 8 -14173708.910 7  21168675.430
  -2450727.25246  -1329319.58543  24625391.8204                   24625393.7934
 -12222434.79847  -9475964.77345  22314630.4384                   22314629.5124
 11  8 29  2 27  0.0000000  0  9G25G18G12G29G26G15G05G21G02
 -13835135.800 7 -10766186.700 7  22129551.617
     71537.97814                  24645351.891
  -8455841.503 7  -6568113.555 6  23012031.391
 -18893096.653 8 -14708774.155 7  21175477.867
 -13957492.12947 -10835066.72445  22169867.3524                   22169869.5314
  -8862211.649 7  -6891672.374 6  22962664.664
 -18147948.718 8 -14123885.905 7  21180842.664
  -2509250.90046  -1374922.36843  24614255.3914                   24614257.1374
 -12174571.04847  -9438668.35345  22323738.5164                   22323737.8054
 11  8 29  2 27 30.0000000  0  9G25G18G12G29G26G15G05G21G02
 -13781755.015 8 -10724591.304 7  22139709.734
    -18161.35514                  24628281.797
  -8363830.074 7  -6496416.374 6  23029540.352
 -18956386.411 8 -14758090.825 7  21163434.219
 -14031923.89247 -10893065.45845  22155703.4064                   22155705.1254
  -8956658.204 7  -6965267.025 6  22944692.523
 -18083686.982 8 -14073811.836 7  21193071.375
  -2567790.75546  -1420537.74043  24603115.3134                   24603116.7034
 -12126600.67447  -9401288.84545  22332866.9694                   22332865.7894
 11  8 29  2 28  0.0000000  0  9G25G18G12G29G26G15G05G21G02
 -13727960.586 8 -10682673.576 7  22149946.633
   -107697.84215                  24611243.859
  -8271680.178 7  -6424611.252 6  23047075.836
 -19019376.609 8 -14807174.078 7  21151447.609
 -14105950.41747 -10950748.43345  22141616.5164                   22141617.9734
  -9050966.895 7  -7038754.234 6  22926745.555
 -18019103.648 8 -14023487.164 7  21205361.359
  -2626345.24246  -1466164.53843  24591972.5084                   24591974.5984
 -12078521.47147  -9363824.52945  22342015.5704                   22342015.0864
 11  8 29  2 28 30.0000000  0  9G25G18G12G29G26G15G05G21G02
 -13673755.063 7 -10640435.537 7  22160261.172
   -197069.921 5                  24594236.703
  -8179394.892 7  -6352700.669 6  23064637.055
 -19082064.819 7 -14856022.015 7  21139518.203
 -14179568.23547 -11008112.92145  22127606.9694                   22127608.9344
  -9145134.485 6  -7112131.518 6  22908826.047
 -17954201.280 8 -13972913.890 7  21217711.711
  -2684914.70246  -1511802.97843  24580827.5474                   24580829.0904
 -12030333.20947  -9326275.23745  22351186.1804                   22351184.9414
 11  8 29  2 29  0.0000000  0  9G25G18G12G29G26G15G05G21G02
 -13619141.916 8 -10597879.869 7  22170654.125
   -286277.201 6                  24577261.320
  -8086977.997 7  -6280687.535 6  23082223.359
 -19144449.533 8 -14904633.480 7  21127647.031
 -14252774.64747 -11065156.84145  22113676.7504                   22113678.0394
  -9239158.794 7  -7185397.131 6  22890933.703
 -17888982.691 8 -13922094.209 7  21230122.109
  -2743500.47946  -1557454.18143  24569678.8054                   24569680.3714
 -11982036.39747  -9288641.37945  22360377.0164                   22360375.0554
 11  8 29  2 29 30.0000000  0  9G25G18G12G29G26G15G05G21G02
 -13564123.788 8 -10555008.631 7  22181123.328
   -375318.46746    707690.92252  24560317.5944                   24560319.3634
  -7994432.700 7  -6208574.337 6  23099834.773
 -19206528.481 7 -14953006.663 7  21115833.883
 -14325566.17947 -11121877.48045  22099824.8204                   22099826.4534
  -9333036.674 7  -7258548.661 6  22873069.109
 -17823450.743 8 -13871030.357 7  21242592.563
  -2802102.77046  -1603118.18843  24558526.9614                   24558528.6684
 -11933630.56647  -9250922.56145  22369588.1094                   22369586.6214
 11  8 29  2 30  0.0000000  0  9G25G18G12G29G26G15G05G21G02
 -13508702.859 7 -10511823.518 7  22191669.844
   -464192.10646    638438.80842  24543405.0394                   24543408.2074
  -7901761.054 7  -6136362.680 6  23117469.594
 -19268298.373 8 -15001139.035 7  21104079.234
 -14397938.96647 -11178271.82545  22086052.0634                   22086054.6604
  -9426764.567 7  -7331583.302 6  22855233.617
 -17757607.106 8 -13819723.630 7  21255122.445
  -2860721.75346  -1648795.25943  24547372.5864                   24547373.1954
 -11885115.16147  -9213118.33445  22378820.2194                   22378819.5044
 11  8 29  2 30 30.0000000  0  9G25G18G12G29G26G15G05G21G02
 -13452882.271 7 -10468326.981 7  22202292.422
   -552897.32346    569317.94042  24526526.1644                   24526528.5744
  -7808967.139 7  -6064055.745 6  23135127.250
 -19329758.060 8 -15049029.684 7  21092383.750
 -14469889.96247 -11234337.50345  22072360.6174                   22072362.5274
  -9520339.799 7  -7404498.997 7  22837426.586
 -17691454.744 8 -13768176.345 7  21267710.781
  -2919358.15746  -1694485.91743  24536213.8054                   24536215.4454
 -11836490.10847  -9175228.70645  22388073.2584                   22388072.2584
 11  8 29  2 31  0.0000000  0  9G25G18G12G29G26G15G05G21G02
 -13396664.299 8 -10424520.789 7  22212990.352
   -641432.30446    500329.74042  24509677.5234                   24509681.2424
  -7716053.617 6  -5991655.618 6  23152807.883
 -19390904.554 8 -15096676.285 7  21080748.141
 -14541415.16047 -11290071.37945  22058749.6884                   22058751.7974
  -9613758.758 7  -7477292.921 7  22819649.453
 -17624995.777 8 -13716390.131 7  21280357.648
  -2978012.09146  -1740190.20143  24525051.8594                   24525054.3094
 -11787754.70648  -9137253.04845  22397347.1804                   22397346.0394
 11  8 29  2 31 30.0000000  0  9G25G18G12G29G26G15G05G21G02
 -13340051.165 7 -10380406.680 7  22223763.102
   -729795.19745    431475.65242  24492863.1174                   24492866.6054
  -7623022.770 7  -5919164.044 6  23170511.211
 -19451734.969 8 -15144076.597 7  21069172.508
 -14612510.82047 -11345470.54645  22045220.5164                   22045222.2894
  -9707018.207 7  -7549962.547 6  22801903.195
 -17558232.064 8 -13664366.443 7  21293062.375
  -3036683.41146  -1785908.01143  24513888.0784                   24513888.6254
 -11738908.23147  -9099190.87445  22406642.2114                   22406641.1054
 11  8 29  2 32  0.0000000  0  9G25G18G12G29G26G15G05G21G02
 -13283047.558 7 -10335988.312 7  22234610.703
   -817986.47845    362755.24142  24476080.3754                   24476084.0634
  -7529879.825 7  -5846585.185 6  23188235.945
 -19512248.784 8 -15191230.191 7  21057657.281
 -14683175.18447 -11400533.65745  22031773.9064                   22031775.7854
  -9800116.468 7  -7622506.554 6  22784186.555
 -17491167.969 8 -13612108.716 7  21305824.094
  -3095374.62746  -1831641.38743  24502718.9924                   24502720.3014
 -11689952.02447  -9061043.17945  22415958.6564                   22415957.1724
 11  8 29  2 32 30.0000000  0  9G25G18G12G29G26G15G05G21G02
 -13225653.717 7 -10291265.846 7  22245532.188
   -906003.30145    294170.75642  24459331.7504                   24459335.4734
  -7436625.027 7  -5773919.109 6  23205981.242
 -19572441.084 8 -15238133.263 7  21046203.203
 -14753402.69547 -11455256.33945  22018409.6334                   22018411.5944
  -9893048.287 7  -7694920.897 7  22766502.180
 -17423803.581 8 -13559616.987 7  21318643.055
  -3154083.67346  -1877388.63143  24491546.8204                   24491548.2504
 -11640883.53247  -9022808.01245  22425295.6644                   22425294.8164
 11  8 29  2 33  0.0000000  0  9G25G18G12G29G26G15G05G21G02
 -13167873.533 7 -10246242.355 7  22256527.648
   -993845.03845    225722.76342  24442615.5704                   24442620.4304
  -7343262.988 7  -5701169.506 6  23223747.836
 -19632310.571 8 -15284784.805 7  21034810.586
 -14823190.99947 -11509636.80445  22005129.7274                   22005131.2734
  -9985811.573 7  -7767203.918 6  22748849.891
 -17356142.621 8 -13506894.157 7  21331518.930
  -3212811.90846  -1923150.83043  24480371.4614                   24480372.1024
 -11591703.62247  -8984486.01845  22434654.6564                   22434653.5594
 11  8 29  2 33 30.0000000  0  9G25G18G12G29G26G15G05G21G02
 -13109710.434 7 -10200920.490 7  22267595.867
  -1081511.36245    157411.47642  24425932.2504                   24425937.5984
  -7249797.470 7  -5628339.245 6  23241533.820
 -19691856.325 8 -15331184.076 7  21023479.125
 -14892537.19247 -11563672.74145  21991933.5474                   21991934.7194
 -10078403.985 7  -7839353.769 6  22731230.188
 -17288188.044 8 -13453942.526 7  21344449.813
  -3271560.57546  -1968928.93643  24469191.6024                   24469192.6214
 -11542412.45847  -8946077.33245  22444034.6024                   22444033.2034
 11  8 29  2 34  0.0000000  0  9G25G18G12G29G26G15G05G21G02
 -13051166.590 7 -10155301.920 7  22278735.766
  -1169000.30846     89238.39542  24409284.7584                   24409289.2464
  -7156230.531 7  -5555429.955 6  23259339.523
 -19751074.878 8 -15377328.384 7  21012210.133
 -14961437.32447 -11617361.11445  21978821.7734                   21978823.5704
 -10170821.691 7  -7911367.530 6  22713643.711
 -17219941.636 8 -13400763.515 7  21357436.563
  -3330329.10446  -2014722.51643  24458008.7894                   24458010.3674
 -11493009.23747  -8907581.31045  22453435.3834                   22453434.5784
 11  8 29  2 34 30.0000000  0  9G25G18G12G29G26G15G05G21G02
 -12992245.302 7 -10109389.263 7  22289948.766
  -1256311.37846     21203.90842  24392670.5314                   24392673.0744
  -7062565.737 7  -5482444.383 6  23277163.180
 -19809964.477 8 -15423216.359 7  21001004.109
 -15029888.69347 -11670699.79645  21965796.7194                   21965797.7114
 -10263062.090 7  -7983243.091 6  22696090.703
 -17151406.497 8 -13347359.508 7  21370478.813
  -3389118.49546  -2060532.40043  24446820.7734                   24446823.3914
 -11443493.97747  -8868998.00445  22462857.8914                   22462857.1644
 11  8 29  2 35  0.0000000  0  9G25G18G12G29G26G15G05G21G02
 -12932948.239 7 -10063183.765 7  22301232.820
  -1343442.33846    -46690.23442  24376088.7114                   24376092.3714
  -6968805.373 7  -5409384.401 6  23295005.094
 -19868521.781 8 -15468845.397 7  20989860.609
 -15097886.49047 -11723685.03945  21952856.7894                   21952858.8014
 -10355121.180 7  -8054977.393 6  22678572.797
 -17082583.784 8 -13293731.426 7  21383575.125
  -3447928.44446  -2106358.27243  24435630.2344                   24435631.5044
 -11393865.01447  -8830326.10345  22472302.1484                   22472301.3984
 11  8 29  2 35 30.0000000  0  9G25G18G12G29G26G15G05G21G02
 -12873279.119 7 -10016688.398 7  22312587.008
  -1430392.68046   -114443.64142  24359542.3754                   24359546.1334
  -6874953.212 7  -5336252.840 6  23312864.711
 -19926745.206 8 -15514214.278 7  20978780.672
 -15165428.74347 -11776315.33745  21940004.1644                   21940005.4184
 -10446996.447 7  -8126568.437 6  22661089.211
 -17013476.879 8 -13239881.886 7  21396725.688
  -3506760.03946  -2152201.04243  24424435.0704                   24424436.5234
 -11344123.24647  -8791566.31045  22481767.3054                   22481766.5234
 11  8 29  2 36  0.0000000  0  9G25G18G12G29G26G15G05G21G02
 -12813239.944 7  -9969904.656 7  22324012.484
  -1517160.42246   -182054.73143  24343032.1174                   24343034.9344
  -6781011.452 7  -5263051.481 6  23330741.000
 -19984631.722 8 -15559320.639 7  20967765.672
 -15232511.22347 -11828587.35545  21927238.2734                   21927239.8524
 -10538684.087 7  -8198013.296 6  22643641.656
 -16944087.649 8 -13185812.345 7  21409929.875
  -3565612.69846  -2198060.14843  24413235.0004                   24413237.9024
 -11294267.67047  -8752717.81945  22491255.0554                   22491254.4024
 11  8 29  2 36 30.0000000  0  9G25G18G12G29G26G15G05G21G02
 -12752833.975 7  -9922835.076 7  22335507.406
  -1603745.11146   -249523.17542  24326554.1884                   24326558.1684
  -6686983.459 7  -5189782.930 6  23348633.977
 -20042179.489 8 -15604163.033 7  20956814.781
 -15299130.64047 -11880498.54045  21914561.3674                   21914563.3794
 -10630181.410 7  -8269309.867 7  22626230.570
 -16874418.865 8 -13131524.995 7  21423187.094
  -3624487.06246  -2243936.25443  24402032.3984                   24402033.6414
 -11244298.30747  -8713780.67245  22500763.6174                   22500763.1764
 11  8 29  2 37  0.0000000  0  9G25G18G12G29G26G15G05G21G02
 -12692064.022 7  -9875481.896 7  22347071.227
  -1690145.57746   -316848.07243  24310113.9224                   24310116.4144
  -6592872.577 7  -5116449.787 6  23366542.297
 -20099386.060 8 -15648739.574 7  20945928.594
 -15365283.96047 -11932046.53945  21901973.0004                   21901974.3524
 -10721485.987 7  -8340456.238 6  22608855.672
 -16804472.910 8 -13077021.653 7  21436498.117
  -3683383.68546  -2289829.65243  24390824.4384                   24390826.4804
 -11194214.74247  -8674754.53145  22510294.3284                   22510293.4734
 11  8 29  2 37 30.0000000  0  9G25G18G12G29G26G15G05G21G02
 -12630933.414 7  -9827847.692 7  22358703.859
  -1776361.00546   -384028.78243  24293706.8984                   24293709.6724
  -6498681.907 7  -5043054.455 6  23384466.234
 -20156249.796 8 -15693048.957 7  20935107.609
 -15430968.23247 -11983229.04645  21889473.9064                   21889474.6844
 -10812593.988 7  -8411449.414 6  22591518.484
 -16734252.799 8 -13022304.677 7  21449860.609
  -3742303.41546  -2335741.07143  24379612.2584                   24379613.6484
 -11144016.79447  -8635639.27445  22519846.9534                   22519845.9104
 11  8 29  2 38  0.0000000  0  9G25G18G12G29G26G15G05G21G02
 -12569444.113 7  -9779933.973 7  22370405.031
  -1862389.28346   -451063.65343  24277336.3364                   24277338.7464
  -6404413.875 7  -4969598.874 6  23402404.570
 -20212767.267 8 -15737088.513 7  20924352.766
 -15496179.41247 -12034042.90545  21877063.9694                   21877065.4144
 -10903501.845 7  -8482286.654 7  22574218.938
 -16663760.012 8 -12967375.227 7  21463274.523
  -3801246.03546  -2381670.31043  24368395.7344                   24368396.5904
 -11093703.56747  -8596434.18345  22529420.8984                   22529419.4574
 11  8 29  2 38 30.0000000  0  9G25G18G12G29G26G15G05G21G02
 -12507599.136 7  -9731743.075 7  22382173.820
  -1948229.61346   -517952.10743  24261000.7734                   24261004.0474
  -6310071.330 7  -4896085.231 6  23420358.547
 -20268936.322 8 -15780856.591 7  20913664.055
 -15560914.34447 -12084485.67845  21864745.5474                   21864746.8364
 -10994206.722 7  -8552965.718 7  22556957.891
 -16592996.876 8 -12912235.135 7  21476740.203
  -3860211.76546  -2427617.58943  24357174.8524                   24357175.5434
 -11043274.35347  -8557138.71145  22539017.2974                   22539016.5984
 11  8 29  2 39  0.0000000  0  9G25G18G12G29G26G15G05G21G02
 -12445401.014 7  -9683277.025 7  22394009.602
  -2033880.82546   -584693.17542  24244702.0784                   24244705.2274
  -6215657.116 7  -4822515.725 6  23438324.039
 -20324754.376 8 -15824351.153 7  20903042.469
 -15625169.49848 -12134554.58145  21852517.8444                   21852519.1024
 -11084705.131 7  -8623483.889 7  22539736.906
 -16521965.933 8 -12856886.340 7  21490256.625
  -3919200.59346  -2473582.83043  24345948.8914                   24345950.3984
 -10992729.00347  -8517752.74445  22548635.6174                   22548635.1454
 11  8 29  2 39 30.0000000  0  9G25G18G12G29G26G15G05G21G02
 -12382853.890 7  -9634539.060 7  22405912.203
  -2119342.59646   -651286.65043  24228439.3054                   24228442.1214
  -6121175.565 7  -4748893.759 6  23456303.398
 -20380220.648 8 -15867571.604 7  20892487.492
 -15688942.77147 -12184248.00445  21840381.9534                   21840383.5944
 -11174995.418 7  -8693839.913 7  22522555.156
 -16450670.814 8 -12801331.711 7  21503823.922
  -3978214.27446  -2519567.44443  24334719.2034                   24334720.7114
 -10942068.30647  -8478276.91145  22558276.1024                   22558275.6214
 11  8 29  2 40  0.0000000  0  9G25G18G12G29G26G15G05G21G02
 -12319959.611 7  -9585530.538 7  22417880.602
  -2204612.92846   -717730.88343  24212213.5474                   24212215.5434
  -6026628.503 7  -4675220.751 6  23474295.148
 -20435331.380 8 -15910515.011 7  20882000.039
 -15752229.78847 -12233562.52345  21828339.3134                   21828339.9574
 -11265073.008 7  -8764030.182 7  22505413.656
 -16379112.585 8 -12745572.055 7  21517440.648
  -4037252.24546  -2565570.96043  24323483.5394                   24323486.4964
 -10891290.70947  -8438709.96945  22567938.9064                   22567937.5514
 11  8 29  2 40 30.0000000  0  9G25G18G12G29G26G15G05G21G02
 -12256721.588 7  -9536254.168 7  22429914.078
  -2289691.02846   -784025.42343  24196022.8444                   24196026.1134
  -5932019.338 7  -4601499.325 6  23492298.945
 -20490085.067 8 -15953180.190 7  20871580.813
 -15815028.12047 -12282496.23045  21816388.9844                   21816390.2114
 -11354935.636 7  -8834052.940 7  22488313.078
 -16307294.543 8 -12689609.939 7  21531107.586
  -4096315.09146  -2611593.86443  24312244.6094                   24312247.3014
 -10840396.35347  -8399052.05245  22577623.4924                   22577622.6174
 11  8 29  2 41  0.0000000  0  9G25G18G12G29G26G15G05G21G02
 -12193142.387 7  -9486711.951 7  22442013.133
  -2374576.26746   -850169.64443  24179869.4304                   24179872.6724
  -5837350.966 7  -4527731.801 6  23510314.445
 -20544479.258 8 -15995565.248 7  20861230.078
 -15877334.14747 -12331046.34245  21804532.1024                   21804533.4304
 -11444580.023 7  -8903905.657 7  22471255.203
 -16235218.297 8 -12633446.619 7  21544823.148
  -4155402.80946  -2657636.18143  24301000.8444                   24301002.7034
 -10789384.68247  -8359302.73045  22587331.0634                   22587329.8204
 11  8 29  2 41 30.0000000  0  9G25G18G12G29G26G15G05G21G02
 -12129225.514 7  -9436906.616 7  22454176.086
  -2459267.56146   -916162.80043  24163753.6414                   24163755.9614
  -5742627.109 7  -4453921.050 6  23528339.250
 -20598511.929 8 -16037668.603 8  20850948.258
 -15939145.29947 -12379210.83945  21792769.8984                   21792771.6094
 -11534003.126 7  -8973585.944 7  22454238.148
 -16162887.377 8 -12577084.868 7  21558587.164
  -4214516.24647  -2703698.50543  24289752.2114                   24289754.0704
 -10738255.82747  -8319462.06845  22597060.3054                   22597059.7194
 11  8 29  2 42  0.0000000  0  9G25G18G12G29G26G15G05G21G02
 -12064973.572 7  -9386840.182 7  22466403.188
  -2543763.20446   -982003.49643  24147673.8204                   24147676.3874
  -5647850.165 7  -4380068.910 6  23546374.688
 -20652180.563 8 -16079488.304 7  20840735.172
 -16000457.96047 -12426986.89645  21781102.6414                   21781103.8284
 -11623201.461 7  -9043091.080 7  22437264.391
 -16090303.347 8 -12520525.899 7  21572399.609
  -4273655.63146  -2749781.08843  24278498.1174                   24278499.6604
 -10687008.79947  -8279529.36045  22606812.1484                   22606811.7154
 11  8 29  2 42 30.0000000  0  9G25G18G12G29G26G15G05G21G02
 -12000388.848 7  -9336514.445 7  22478692.563
  -2628062.09946  -1047690.90943  24131633.1414                   24131634.3914
  -5553022.622 7  -4306177.340 6  23564419.867
 -20705482.197 8 -16121022.032 7  20830591.953
 -16061268.36947 -12474371.58445  21769530.7424                   21769532.3834
 -11712171.512 7  -9112418.357 6  22420333.875
 -16017468.268 8 -12463771.287 7  21586259.805
  -4332820.52346  -2795883.53643  24267239.8594                   24267240.7194
 -10635642.96547  -8239504.05445  22616586.7504                   22616586.1524
 11  8 29  2 43  0.0000000  0  9G25G18G12G29G26G15G05G21G02
 -11935475.061 7  -9285932.298 7  22491046.008
  -2712163.67346  -1113224.50343  24115628.9224                   24115630.6604
  -5458148.022 7  -4232249.103 6  23582474.391
 -20758415.357 8 -16162268.627 7  20820519.383
 -16121574.13047 -12521363.05845  21758054.7664                   21758056.2344
 -11800911.040 7  -9181565.967 7  22403447.359
 -15944385.662 8 -12406823.793 7  21600166.773
  -4392011.82046  -2842006.56643  24255976.4774                   24255977.2734
 -10584158.76447  -8199386.50545  22626383.9304                   22626382.7074
 11  8 29  2 43 30.0000000  0  9G25G18G12G29G26G15G05G21G02
 -11870234.437 7  -9235095.474 7  22503459.906
  -2796066.42046  -1178603.19943  24099663.1644                   24099664.8834
  -5363228.611 6  -4158285.969 6  23600536.680
 -20810977.052 8 -16203225.769 7  20810517.102
 -16181371.60147 -12567958.44045  21746675.9534                   21746676.6914
 -11889416.085 7  -9250530.910 7  22386605.281
 -15871056.860 8 -12349684.479 7  21614121.023
  -4451229.73446  -2888150.28843  24244707.3834                   24244708.9494
 -10532554.86447  -8159175.68645  22636204.0234                   22636203.2814
 11  8 29  2 44  0.0000000  0  9G25G18G12G29G26G15G05G21G02
 -11804670.748 7  -9184006.924 7  22515936.898
  -2879769.72546  -1243826.54443  24083734.6024                   24083737.1564
  -5268268.328 6  -4084290.973 6  23618606.336
 -20863165.819 8 -16243892.332 7  20800585.711
 -16240658.30547 -12614155.83545  21735394.2194                   21735395.2234
 -11977684.652 7  -9319311.557 7  22369808.102
 -15797485.223 8 -12292355.920 7  21628120.922
  -4510474.76546  -2934315.19143  24233433.2664                   24233434.3834
 -10480831.68647  -8118871.92345  22646046.8754                   22646045.8324
 11  8 29  2 44 30.0000000  0  9G25G18G12G29G26G15G05G21G02
 -11738786.678 7  -9132668.709 7  22528474.211
  -2963272.59646  -1308893.66043  24067844.8364                   24067845.9654
  -5173269.672 6  -4010266.108 6  23636684.367
 -20914979.240 8 -16284266.399 7  20790726.273
 -16299430.91947 -12659952.64245  21724210.2894                   21724211.5554
 -12065712.941 7  -9387904.966 7  22353057.344
 -15723672.542 8 -12234839.539 7  21642166.852
  -4569747.18046  -2980501.39343  24222153.7974                   24222155.3834
 -10428988.65947  -8078474.77945  22655912.4144                   22655911.3874
 11  8 29  2 45  0.0000000  0  9G25G18G12G29G26G15G05G21G02
 -11672584.463 7  -9081082.589 7  22541071.922
  -3046573.24946  -1373803.21243  24051993.0704                   24051994.6914
  -5078234.991 6  -3936213.108 6  23654768.695
 -20966414.098 8 -16324345.492 8  20780938.148
 -16357685.67447 -12705345.91245  21713124.5084                   21713125.1094
 -12153497.458 7  -9456308.444 7  22336351.891
 -15649620.865 8 -12177136.948 7  21656258.633
  -4629046.38847  -3026708.44843  24210869.5704                   24210870.9264
 -10377024.89547  -8037983.54345  22665800.7664                   22665799.8204
 11  8 29  2 45 30.0000000  0  9G25G18G12G29G26G15G05G21G02
 -11606067.607 7  -9029251.315 7  22553729.852
  -3129671.25146  -1438554.83443  24036179.4844                   24036182.3094
  -4983167.738 7  -3862134.764 6  23672859.742
 -21017468.971 8 -16364128.500 8  20771222.805
 -16415419.93347 -12750333.61745  21702137.8444                   21702139.2774
 -12241035.373 7  -9524519.758 7  22319694.211
 -15575332.970 8 -12119250.278 7  21670395.711
  -4688373.52246  -3072937.27243  24199578.8674                   24199580.6604
 -10324940.17847  -7997398.05945  22675711.7584                   22675711.0904
 11  8 29  2 46  0.0000000  0  9G25G18G12G29G26G15G05G21G02
 -11539239.587 7  -8977177.557 7  22566446.539
  -3212566.08746  -1503148.14843  24020404.4774                   24020407.3914
  -4888071.241 6  -3788033.624 6  23690956.039
 -21068142.049 8 -16403613.975 7  20761580.070
 -16472631.37948 -12794913.92845  21691250.6804                   21691252.5354
 -12328323.946 7  -9592536.784 7  22303083.375
 -15500811.808 8 -12061181.839 7  21684576.289
  -4747729.03046  -3119188.23643  24188284.9224                   24188286.1174
 -10272734.60447  -7956718.40945  22685646.4304                   22685644.9104
 11  8 29  2 46 30.0000000  0  9G25G18G12G29G26G15G05G21G02
 -11472102.470 7  -8924862.943 7  22579222.758
  -3295255.61946  -1567581.46543  24004669.9924                   24004671.9534
  -4792947.796 6  -3713911.455 6  23709056.594
 -21118429.889 8 -16442799.289 7  20752010.688
 -16529315.81947 -12839083.59745  21680464.0944                   21680465.1254
 -12415359.269 7  -9660356.454 7  22286520.891
 -15426058.591 8 -12002932.578 7  21698801.211
  -4807112.39446  -3165460.87544  24176984.2584                   24176985.9344
 -10220407.02747  -7915943.66845  22695603.8594                   22695602.8054
 11  8 29  2 47  0.0000000  0  9G25G18G12G29G26G15G05G21G02
 -11404659.876 7  -8872310.294 7  22592056.180
  -3377739.22446  -1631854.31343  23988973.8834                   23988976.0744
  -4697801.006 6  -3639771.113 6  23727162.023
 -21168331.160 8 -16481683.390 7  20742514.695
 -16585471.14748 -12882840.95045  21669778.4774                   21669779.2774
 -12502138.987 7  -9727976.969 7  22270007.508
 -15351076.280 8 -11944504.807 7  21713069.578
  -4866524.34247  -3211755.80344  24165678.7814                   24165680.7974
 -10167957.60447  -7875074.01444  22705584.6414                   22705583.6884
 11  8 29  2 47 30.0000000  0  9G25G18G12G29G26G15G05G21G02
 -11336914.579 7  -8819521.773 7  22604947.531
  -3460016.28246  -1695966.24343  23973316.1954                   23973319.1134
  -4602633.104 7  -3565614.351 6  23745273.141
 -21217843.121 8 -16520264.120 7  20733092.984
 -16641093.86348 -12926183.28845  21659193.5784                   21659194.4304
 -12588659.771 7  -9795395.698 6  22253543.406
 -15275867.330 8 -11885900.452 7  21727381.313
  -4925965.36646  -3258073.40244  24154367.6954                   24154368.9694
 -10115385.56047  -7834108.78944  22715588.3674                   22715587.5434
 11  8 29  2 48  0.0000000  0  9G25G18G12G29G26G15G05G21G02
 -11268869.458 7  -8766499.604 7  22617896.695
  -3542085.52746  -1759916.26843  23957699.9224                   23957701.7624
  -4507447.034 7  -3491443.378 6  23763386.148
 -21266964.027 8 -16558540.133 7  20723745.320
 -16696181.24748 -12969108.47745  21648710.7504                   21648712.0784
 -12674918.409 7  -9862610.168 7  22237128.867
 -15200433.961 8 -11827121.206 7  21741735.922
  -4985435.34047  -3304413.57043  24143050.5084                   24143052.2544
 -10062690.62147  -7793047.82444  22725616.1954                   22725615.6994
 11  8 29  2 48 30.0000000  0  9G25G18G12G29G26G15G05G21G02
 -11200528.465 7  -8713246.893 7  22630901.609
  -3623947.07646  -1823704.38743  23942121.2344                   23942123.4884
  -4412246.716 7  -3417261.311 6  23781502.711
 -21315692.121 8 -16596510.061 7  20714472.953
 -16750731.02147 -13011614.75845  21638330.6414                   21638331.5634
 -12760912.650 7  -9929618.628 7  22220764.828
 -15124779.282 8 -11768169.509 7  21756132.477
  -5044934.93946  -3350776.80544  24131728.2504                   24131729.3284
 -10009873.39347  -7751891.56244  22735666.3834                   22735666.5394
 11  8 29  2 49  0.0000000  0  9G25G18G12G29G26G15G05G21G02
 -11131893.785 7  -8659765.348 7  22643961.688
  -3705599.04746  -1887329.25643  23926583.5634                   23926586.6374
  -4317034.073 7  -3343069.656 6  23799621.000
 -21364024.309 8 -16634171.474 7  20705275.398
 -16804739.64447 -13053699.35745  21628052.4614                   21628053.8984
 -12846638.665 7  -9996418.074 7  22204451.547
 -15048904.951 8 -11709046.649 7  21770571.242
  -5104464.15247  -3397163.12243  24120400.3524                   24120401.0554
  -9956932.27347  -7710638.79344  22745740.7974                   22745740.4064
 11  8 29  2 49 30.0000000  0  9G25G18G12G29G26G15G05G21G02
 -11062968.462 7  -8606057.349 7  22657078.211
  -3787040.35546  -1950789.93443  23911085.6024                   23911088.8054
  -4221812.203 7  -3268870.851 6  23817740.977
 -21411958.400 8 -16671522.706 7  20696153.695
 -16858204.06147 -13095359.91145  21617878.8914                   21617879.6414
 -12932093.424 7 -10063006.152 7  22188189.867
 -14972813.383 8 -11649754.527 7  21785050.711
  -5164023.29847  -3443572.82243  24109066.2974                   24109066.8594
  -9903867.22247  -7669289.43344  22755839.2344                   22755838.6884
 11  8 29  2 50  0.0000000  0  9G25G18G12G29G26G15G05G21G02
 -10993756.549 7  -8552126.031 7  22670249.320
  -3868270.86646  -2014086.42143  23895628.7114                   23895630.4534
  -4126584.913 7  -3194667.792 6  23835862.063
 -21459493.895 8 -16708563.321 7  20687108.086
 -16911122.38547 -13136594.91545  21607808.7584                   21607809.8364
 -13017274.781 7 -10129381.191 7  22171980.719
 -14896507.887 8 -11590295.720 7  21799571.719
  -5223613.46747  -3490006.64443  24097726.9064                   24097727.5984
  -9850678.45247  -7627843.65844  22765961.2974                   22765960.1214
 11  8 29  2 50 30.0000000  0  9G25G18G12G29G26G15G05G21G02
 -10924259.394 7  -8497972.407 7  22683473.695
  -3949288.48046  -2077216.94643  23880210.9304                   23880213.0554
  -4031353.407 7  -3120461.482 6  23853983.844
 -21506626.367 8 -16745289.910 7  20678138.938
 -16963490.13047 -13177400.90545  21597843.7194                   21597844.7114
 -13102177.909 7 -10195539.405 7  22155824.117
 -14819989.395 8 -11530670.922 7  21814132.984
  -5283233.14847  -3536463.46744  24086380.7894                   24086382.2934
  -9797364.40347  -7586300.27044  22776106.6254                   22776105.1644
 11  8 29  2 51  0.0000000  0  9G25G18G12G29G26G15G05G21G02
 -10854480.755 7  -8443599.448 7  22696752.516
  -4030092.81246  -2140181.28343  23864834.1334                   23864835.8714
  -3936121.561 6  -3046254.841 6  23872106.508
 -21553354.489 8 -16781701.419 7  20669246.508
 -17015305.20047 -13217776.25845  21587983.2734                   21587984.4414
 -13186800.533 7 -10261479.070 7  22139720.844
 -14743260.693 8 -11470882.341 7  21828733.336
  -5342883.04247  -3582943.85643  24075029.9304                   24075031.3874
  -9743925.16747  -7544659.32544  22786275.0554                   22786274.4694
 11  8 29  2 51 30.0000000  0  9G25G18G12G29G26G15G05G21G02
 -10784423.259 7  -8389009.199 7  22710084.133
  -4110682.61747  -2202978.50443  23849498.6254                   23849500.4184
  -3840891.024 6  -2972049.276 6  23890227.719
 -21599675.493 8 -16817795.677 7  20660432.211
 -17066564.27747 -13257718.35145  21578228.7664                   21578230.1214
 -13271139.023 7 -10327197.321 7  22123671.391
 -14666323.574 8 -11410931.366 7  21843374.281
  -5402563.52847  -3629448.09443  24063673.3524                   24063674.1414
  -9690359.96547  -7502920.25044  22796468.9774                   22796467.5704
 11  8 29  2 52  0.0000000  0  9G25G18G12G29G26G15G05G21G02
 -10714090.971 7  -8334204.796 7  22723467.078
  -4191057.68347  -2265608.37443  23834203.5864                   23834204.8484
  -3745666.483 6  -2897848.331 6  23908348.328
 -21645588.450 8 -16853571.995 8  20651695.117
 -17117265.65448 -13297225.86945  21568580.3834                   21568582.0234
 -13355191.661 7 -10392692.835 7  22107676.766
 -14589181.293 8 -11350820.506 7  21858053.781
  -5462275.64047  -3675976.96444  24052310.1884                   24052311.0474
  -9636669.41047  -7461083.47644  22806685.5394                   22806685.1564
 11  8 29  2 52 30.0000000  0  9G25G18G12G29G26G15G05G21G02
 -10643486.066 7  -8279187.995 7  22736902.773
  -4271216.57747  -2328069.80643  23818950.0314                   23818951.9924
  -3650449.920 6  -2823653.679 6  23926467.117
 -21691090.116 8 -16889027.828 8  20643036.805
 -17167405.71448 -13336295.99545  21559039.3204                   21559040.4384
 -13438954.496 7 -10457962.529 7  22091737.352
 -14511835.547 8 -11290551.113 7  21872772.281
  -5522018.69247  -3722529.91743  24040941.4384                   24040942.4344
  -9582852.00147  -7419147.87544  22816927.0634                   22816926.1294
 11  8 29  2 53  0.0000000  0  9G25G18G12G29G26G15G05G21G02
 -10572612.123 7  -8223961.529 7  22750389.938
  -4351159.12147  -2390362.68943  23803737.6174                   23803738.9804
  -3555244.363 6  -2749467.556 6  23944584.727
 -21736179.145 8 -16924162.118 8  20634456.469
 -17216982.08547 -13374926.90645  21549605.2504                   21549606.4844
 -13522424.807 8 -10523004.293 7  22075853.156
 -14434289.060 7 -11230125.282 7  21887528.813
  -5581793.20746  -3769107.40043  24029567.0314                   24029567.6604
  -9528907.70247  -7377113.39444  22827192.4064                   22827191.6454
 11  8 29  2 53 30.0000000  0  9G25G18G12G29G26G15G05G21G02
 -10501471.993 7  -8168527.680 7  22763927.922
  -4430884.19346  -2452486.06643  23788566.8364                   23788567.9304
  -3460052.507 7  -2675292.064 6  23962698.891
 -21780852.895 8 -16958972.820 8  20625955.367
 -17265991.67848 -13413116.15945  21540278.8284                   21540279.8874
 -13605599.160 7 -10587815.427 7  22060025.930
 -14356544.084 7 -11169544.790 7  21902322.813
  -5641599.32247  -3815709.49043  24018185.9064                   24018186.9224
  -9474836.24247  -7334979.80844  22837481.4384                   22837480.5474
 11  8 29  2 54  0.0000000  0  9G25G18G12G29G26G15G05G21G02
 -10430068.677 7  -8112888.766 7  22777515.523
  -4510390.33647  -2514438.83643  23773437.0864                   23773437.5084
  -3364877.199 6  -2601129.530 6  23980809.914
 -21825108.978 8 -16993458.077 8  20617533.586
 -17314432.10547 -13450861.90545  21531060.6564                   21531062.0704
 -13688474.592 7 -10652393.631 7  22044254.883
 -14278602.857 8 -11108811.408 7  21917154.813
  -5701436.95847  -3862336.16644  24006799.9454                   24006800.9414
  -9420637.13347  -7292746.77944  22847795.5164                   22847794.6294
 11  8 29  2 54 30.0000000  0  9G25G18G12G29G26G15G05G21G02
 -10358405.534 7  -8057047.369 7  22791152.195
  -4589677.26046  -2576220.83343  23758348.8524                   23758350.4144
  -3269721.469 7  -2526982.208 6  23998918.242
 -21868946.093 8 -17027616.851 7  20609191.805
 -17362300.83348 -13488162.17545  21521951.8134                   21521953.1214
 -13771048.384 7 -10716736.796 7  22028541.453
 -14200467.877 7 -11047927.022 7  21932023.648
  -5761306.53347  -3908987.72643  23995406.7344                   23995407.3714
  -9366310.34047  -7250414.25544  22858133.9064                   22858132.8484
 11  8 29  2 55  0.0000000  0  9G25G18G12G29G26G15G05G21G02
 -10286485.540 7  -8001005.861 7  22804838.000
  -4668743.97346  -2637831.19143  23743303.0084                   23743304.7464
  -3174587.990 6  -2452852.248 6  24017021.078
 -21912361.720 8 -17061447.202 8  20600930.203
 -17409594.96648 -13525014.72345  21512951.6884                   21512953.5904
 -13853317.332 7 -10780842.431 7  22012886.234
 -14122141.180 7 -10986893.258 7  21946928.664
  -5821208.42347  -3955664.45444  23984007.7424                   23984008.6884
  -9311855.10247  -7207981.61144  22868495.8984                   22868495.7664
 11  8 29  2 55 30.0000000  0  9G25G18G12G29G26G15G05G21G02
 -10214311.187 7  -7944766.103 7  22818572.281
  -4747589.20746  -2699268.98243  23728298.8594                   23728301.2734
  -3079479.203 6  -2378741.558 6  24035119.516
 -21955353.030 8 -17094946.917 8  20592749.125
 -17456311.46348 -13561417.15245  21504062.2344                   21504063.4224
 -13935277.783 7 -10844707.658 7  21997289.414
 -14043624.661 8 -10925711.556 7  21961869.727
  -5881141.93547  -4002365.86644  23972602.8594                   23972603.5904
  -9257270.65947  -7165448.30744  22878883.1484                   22878882.8674
 11  8 29  2 56  0.0000000  0  9G25G18G12G29G26G15G05G21G02
 -10141885.941 7  -7888330.895 7  22832354.711
  -4826212.41646  -2760533.75343  23713337.4224                   23713339.6134
  -2984398.052 7  -2304652.336 6  24053213.094
 -21997918.830 8 -17128115.064 8  20584648.859
 -17502447.88147 -13597367.56145  21495282.8204                   21495284.0554
 -14016927.148 7 -10908330.498 7  21981752.305
 -13964920.912 7 -10864383.966 7  21976846.781
  -5941107.97247  -4049092.58344  23961191.1724                   23961192.4884
  -9202556.87047  -7122814.19544  22889294.7974                   22889294.1254
 11  8 29  2 56 30.0000000  0  9G25G18G12G29G26G15G05G21G02
 -10069213.458 7  -7831703.012 7  22846183.117
  -4904613.30646  -2821625.34143  23698418.5004                   23698419.8444
  -2889347.685 7  -2230587.120 6  24071300.586
 -22040057.750 8 -17160950.585 8  20576630.516
 -17548002.27747 -13632864.47245  21486613.8834                   21486615.1884
 -14098263.152 7 -10971709.172 7  21966274.695
 -13886032.971 7 -10802912.883 7  21991858.359
  -6001107.01847  -4095845.05743  23949773.7034                   23949775.1454
  -9147713.70447  -7080079.29944  22899730.7814                   22899729.5314
 11  8 29  2 57  0.0000000  0  9G25G18G12G29G26G15G05G21G02
  -9996296.438 7  -7774884.585 7  22860059.016
  -4982790.74846  -2882542.73943  23683541.5394                   23683543.6604
  -2794331.138 7  -2156548.233 6  24089381.648
 -22081766.830 8 -17193451.161 8  20568693.891
 -17592971.74947 -13667905.59645  21478056.4844                   21478057.6914
 -14179282.103 7 -11034840.774 7  21950857.313
 -13806962.504 8 -10741299.540 7  22006905.438
  -6061138.84147  -4142623.04544  23938349.7344                   23938351.0004
  -9092740.56447  -7037243.10744  22910191.8984                   22910190.7154
 11  8 29  2 57 30.0000000  0  9G25G18G12G29G26G15G05G21G02
  -9923137.294 7  -7717877.481 7  22873981.281
  -5060743.30646  -2943284.91743  23668707.7274                   23668709.0314
  -2699350.273 7  -2082537.162 6  24107455.969
 -22123043.347 8 -17225614.677 8  20560838.625
 -17637353.03048 -13702488.36845  21469611.0784                   21469612.4844
 -14259980.487 8 -11097722.582 7  21935500.633
 -13727711.176 7 -10679545.277 7  22021985.930
  -6121203.24047  -4189426.37643  23926920.2274                   23926921.2734
  -9037636.35447  -6994304.78844  22920677.8984                   22920677.1804
 11  8 29  2 58  0.0000000  0  9G25G18G12G29G26G15G05G21G02
  -9849739.656 7  -7660684.535 7  22887947.836
  -5138470.88146  -3003851.80043  23653917.1254                   23653918.5084
  -2604408.188 7  -2008556.310 6  24125523.164
 -22163885.802 8 -17257439.964 8  20553066.609
 -17681144.03347 -13736611.20945  21461277.9534                   21461279.0594
 -14340355.876 8 -11160352.720 7  21920205.672
 -13648281.823 7 -10617652.291 7  22037101.125
  -6181300.66847  -4236255.49944  23915483.2734                   23915484.4734
  -8982401.11747  -6951264.35144  22931189.2664                   22931188.6454
 11  8 29  2 58 30.0000000  0  9G25G18G12G29G26G15G05G21G02
  -9776106.982 7  -7603308.462 7  22901959.984
  -5215972.71947  -3064242.77543  23639167.8524                   23639170.1724
  -2509508.437 7  -1934608.410 6  24143581.984
 -22204292.527 8 -17288925.697 8  20545377.586
 -17724342.69447 -13770272.47345  21453057.6644                   21453058.6454
 -14420405.556 8 -11222729.059 7  21904972.430
 -13568677.038 7 -10555622.588 7  22052249.531
  -6241431.63047  -4283110.71244  23904041.2034                   23904041.9614
  -8927034.72047  -6908121.71844  22941725.6414                   22941723.9844
 11  8 29  2 59  0.0000000  0  9G25G18G12G29G26G15G05G21G02
  -9702241.920 7  -7545751.308 7  22916016.422
  -5293247.93847  -3124457.16844  23624463.1174                   23624465.6254
  -2414652.949 6  -1860695.034 6  24161631.625
 -22244260.975 8 -17320069.934 8  20537771.688
 -17766946.20848 -13803469.98545  21444949.9924                   21444951.4774
 -14500126.031 8 -11284848.846 7  21889802.023
 -13488898.596 7 -10493457.579 7  22067430.875
  -6301595.32747  -4329991.46944  23892593.0634                   23892593.2814
  -8871536.44947  -6864876.37644  22952285.6174                   22952285.4304
 11  8 29  2 59 30.0000000  0  9G25G18G12G29G26G15G05G21G02
  -9628147.973 7  -7488015.827 7  22930115.961
  -5370295.52047  -3184494.20544  23609801.7114                   23609803.6844
  -2319844.936 6  -1786818.672 6  24179673.289
 -22283789.666 8 -17350871.499 8  20530249.797
 -17808952.31147 -13836201.98745  21436956.4534                   21436957.9184
 -14579514.760 8 -11346710.162 7  21874695.500
 -13408948.880 7 -10431159.121 7  22082645.109
  -6361792.73947  -4376898.47144  23881137.8754                   23881138.2344
  -8815906.41047  -6821528.28144  22962871.8834                   22962871.3284
 11  8 29  3  0  0.0000000  0  9G25G18G12G29G26G15G05G21G02
  -9553828.102 7  -7430104.289 7  22944258.625
  -5447115.17347  -3244353.60844  23595183.5634                   23595184.7854
  -2225087.241 6  -1712981.486 6  24197705.391
 -22322876.399 8 -17381328.700 8  20522811.813
 -17850358.44648 -13868466.46145  21429077.2344                   21429078.3634
 -14658568.586 8 -11408310.493 7  21859651.906
 -13328830.195 7 -10368729.009 7  22097890.938
  -6422023.78047  -4423831.67144  23869675.6024                   23869676.4384
  -8760143.58746  -6778076.76144  22973482.9304                   22973482.3984
 11  8 29  3  0 30.0000000  0  9G25G18G12G29G26G15G05G21G02
  -9479285.568 7  -7372019.238 7  22958443.695
  -5523706.14247  -3304034.80844  23580608.5234                   23580610.1764
  -2130382.458 6  -1639185.573 6  24215727.266
 -22361519.492 7 -17411440.195 8  20515457.977
 -17891162.46347 -13900261.78445  21421312.5234                   21421313.5704
 -14737284.793 8 -11469647.749 7  21844672.719
 -13248545.116 7 -10306169.208 7  22113168.602
  -6482288.67647  -4470791.26944  23858207.3674                   23858207.7814
  -8704248.23847  -6734521.99644  22984119.7894                   22984119.3554
 11  8 29  3  1  0.0000000  0  9G25G18G12G29G26G15G05G21G02
  -9404523.304 7  -7313762.953 7  22972669.898
  -5600067.60847  -3363537.18243  23566077.8204                   23566078.6804
  -2035733.446 6  -1565433.100 6  24233737.945
 -22399716.669 8 -17441204.205 8  20508189.203
 -17931361.79548 -13931585.90945  21413662.4384                   21413664.1334
 -14815660.429 8 -11530719.623 7  21829758.242
 -13168095.467 7 -10243481.188 7  22128477.234
  -6542587.13247  -4517777.02944  23846733.4064                   23846734.5664
  -8648219.57147  -6690863.33444  22994781.7734                   22994781.2854
 11  8 29  3  1 30.0000000  0  9G25G18G12G29G26G15G05G21G02
  -9329544.184 7  -7255337.671 7  22986938.242
  -5676198.66247  -3422860.02544  23551590.3204                   23551590.9734
  -1941142.538 6  -1491725.894 6  24251738.148
 -22437465.558 8 -17470618.919 8  20501006.172
 -17970953.90247 -13962436.87145  21406129.0084                   21406129.7544
 -14893691.987 8 -11591523.401 7  21814909.266
 -13087483.361 7 -10180666.569 7  22143817.695
  -6602919.34647  -4564789.08044  23835252.7344                   23835253.1804
  -8592056.99247  -6647100.30944  23005468.9924                   23005468.7154
 11  8 29  3  2  0.0000000  0  9G25G18G12G29G26G15G05G21G02
  -9254351.637 7  -7196746.101 7  23001247.563
  -5752098.79846  -3482002.91343  23537146.4924                   23537148.5594
  -1846612.977 7  -1418066.490 6  24269726.195
 -22474764.782 8 -17499683.224 8  20493908.281
 -18009936.79448 -13992813.12145  21398710.6804                   21398711.6804
 -14971377.060 7 -11652057.179 7  21800126.117
 -13006711.226 7 -10117727.258 7  22159187.492
  -6663285.50147  -4611827.59144  23823764.8524                   23823765.6374
  -8535760.65147  -6603233.08744  23016182.0554                   23016181.6804
 11  8 29  3  2 30.0000000  0  9G25G18G12G29G26G15G05G21G02
  -9178948.373 7  -7137990.323 7  23015596.102
  -5827766.96947  -3540965.07444  23522747.6564                   23522749.4654
  -1752146.801 6  -1344456.473 6  24287702.469
 -22511611.855 8 -17528395.223 8  20486896.617
 -18048307.56848 -14022712.40045  21391408.5704                   21391409.8094
 -15048711.923 8 -11712318.065 7  21785409.703
 -12925780.666 7 -10054664.508 7  22174588.992
  -6723685.58147  -4658892.54544  23812271.5634                   23812272.0164
  -8479329.47647  -6559260.76644  23026921.0234                   23026920.4844
 11  8 29  3  3  0.0000000  0  9G25G18G12G29G26G15G05G21G02
  -9103337.643 7  -7079072.892 6  23029983.750
  -5903202.66547  -3599746.09343  23508392.3284                   23508393.9924
  -1657746.763 6  -1270898.038 6  24305666.953
 -22548004.645 8 -17556753.230 8  20479971.258
 -18086064.11348 -14052133.06545  21384223.8054                   21384224.8874
 -15125694.017 8 -11772304.058 7  21770760.859
 -12844694.133 7  -9991480.206 7  22190018.961
  -6784119.78147  -4705984.08744  23800770.9774                   23800771.9104
  -8422763.16247  -6515183.15244  23037685.4534                   23037684.6134
 11  8 29  3  3 30.0000000  0  9G25G18G12G29G26G15G05G21G02
  -9027522.576 7  -7019996.238 6  23044410.719
  -5978404.82347  -3658345.12244  23494081.9534                   23494083.6644
  -1563415.968 7  -1197393.523 6  24323616.477
 -22583941.758 8 -17584756.158 8  20473132.273
 -18123204.34647 -14081073.47845  21377155.9224                   21377157.3404
 -15202320.422 8 -11832012.916 7  21756178.805
 -12763454.101 7  -9928176.295 7  22205478.195
  -6844587.92547  -4753102.08644  23789264.4144                   23789265.2734
  -8366061.34747  -6470999.94544  23048474.7504                   23048474.1724
 11  8 29  3  4  0.0000000  0  9G25G18G12G29G26G15G05G21G02
  -8951506.560 7  -6960763.031 7  23058876.078
  -6053373.48946  -3716762.19044  23479815.3524                   23479817.7774
  -1469157.030 7  -1123945.020 6  24341554.023
 -22619421.449 8 -17612402.657 8  20466381.070
 -18159726.21648 -14109532.05445  21370206.5394                   21370207.7074
 -15278588.349 7 -11891442.423 7  21741665.805
 -12682062.691 7  -9864754.440 7  22220967.211
  -6905090.50447  -4800246.89844  23777751.3364                   23777751.1334
  -8309223.79047  -6426710.99044  23059291.5554                   23059290.4304
 11  8 29  3  4 30.0000000  0  9G25G18G12G29G26G15G05G21G02
  -8875292.764 7  -6901375.687 6  23073379.219
  -6128107.91047  -3774996.77343  23465594.5474                   23465595.5594
  -1374972.715 6  -1050554.642 6  24359476.250
 -22654441.748 8 -17639691.187 8  20459716.727
 -18195627.70448 -14137507.21045  21363374.7114                   21363375.7814
 -15354495.508 8 -11950590.820 7  21727220.938
 -12600521.971 7  -9801216.235 7  22236483.961
  -6965627.50147  -4847418.55644  23766230.8674                   23766231.0634
  -8252250.33547  -6382316.09544  23070132.2734                   23070132.1994
 11  8 29  3  5  0.0000000  0  9G25G18G12G29G26G15G05G21G02
  -8798883.934 7  -6841836.359 7  23087919.883
  -6202607.00647  -3833047.95443  23451417.0394                   23451419.4454
  -1280865.744 6   -977224.558 6  24377384.477
 -22689000.378 8 -17666619.986 8  20453140.531
 -18230906.26748 -14164996.97945  21356661.2894                   21356662.2034
 -15430038.132 8 -12009455.163 7  21712845.891
 -12518834.148 7  -9737563.391 7  22252028.023
  -7026198.56447  -4894616.75144  23754704.8054                   23754705.2734
  -8195140.20746  -6337814.72244  23081000.4774                   23080999.7584
 11  8 29  3  5 30.0000000  0  9G25G18G12G29G26G15G05G21G02
  -8722282.673 7  -6782147.111 7  23102496.398
  -6276869.51047  -3890914.80143  23437285.4144                   23437287.4654
  -1186837.755 6   -903956.001 6  24395277.828
 -22723094.896 8 -17693187.134 8  20446652.703
 -18265558.98548 -14191999.07245  21350067.1024                   21350068.4104
 -15505212.726 8 -12068032.732 7  21698540.422
 -12437001.003 7  -9673797.333 7  22267600.594
  -7086803.27447  -4941841.15244  23743171.3914                   23743172.1684
  -8137892.17546  -6293205.93044  23091894.0394                   23091893.6644
 11  8 29  3  6  0.0000000  0  9G25G18G12G29G26G15G05G21G02
  -8645493.308 7  -6722311.272 7  23117108.797
  -6350896.16646  -3948597.82444  23423198.6954                   23423200.4344
  -1092892.781 6   -830752.161 6  24413154.469
 -22756724.854 8 -17719392.298 8  20440253.172
 -18299585.33148 -14218513.08045  21343592.1024                   21343592.8324
 -15580017.883 8 -12126322.421 7  21684305.758
 -12355025.299 7  -9609920.165 7  22283199.906
  -7147442.72947  -4989092.66444  23731632.8444                   23731632.9774
  -8080507.38647  -6248490.53344  23102813.7814                   23102813.8054
 11  8 29  3  6 30.0000000  0  9G25G18G12G29G26G15G05G21G02
  -8568518.757 7  -6662331.109 7  23131756.828
  -6424686.03546  -4006096.38344  23409157.0784                   23409158.7034
   -999033.181 6   -757614.812 6  24431015.602
 -22789888.062 8 -17745233.747 8  20433942.352
 -18332982.66048 -14244536.94846  21337236.2814                   21337237.6954
 -15654450.746 7 -12184322.031 7  21670141.109
 -12272909.405 8  -9545933.787 7  22298826.375
  -7208116.89247  -5036371.19343  23720086.0864                   23720087.4344
  -8022985.13347  -6203668.01644  23113760.5314                   23113760.1294
 11  8 29  3  7  0.0000000  0  9G25G18G12G29G26G15G05G21G02
  -8491361.755 7  -6602208.789 7  23146439.109
  -6498238.25647  -4063409.74444  23395161.1024                   23395162.5314
   -905261.349 6   -684545.883 6  24448860.313
 -22822582.231 8 -17770709.716 8  20427720.391
 -18365748.85648 -14270069.02145  21331001.8594                   21331002.5164
 -15728507.793 8 -12242028.778 7  21656048.906
 -12190654.856 8  -9481839.351 7  22314478.273
  -7268825.03947  -5083676.21244  23708534.3444                   23708534.7304
  -7965324.47347  -6158737.65144  23124732.6804                   23124732.4494
 11  8 29  3  7 30.0000000  0  9G25G18G12G29G26G15G05G21G02
  -8414025.645 7  -6541946.905 7  23161155.906
  -6571552.19047  -4120537.44843  23381209.7274                   23381210.4454
   -811580.160 6   -611547.524 6  24466686.391
 -22854805.859 8 -17795819.041 8  20421588.773
 -18397881.79748 -14295107.65845  21324886.9304                   21324887.8594
 -15802186.126 8 -12299440.422 7  21642028.070
 -12108263.806 7  -9417638.548 7  22330157.102
  -7329567.84246  -5131008.27544  23696975.1094                   23696976.0704
  -7907525.29747  -6113699.37444  23135731.0474                   23135731.7854
 11  8 29  3  8  0.0000000  0  9G25G18G12G29G26G15G05G21G02
  -8336513.238 7  -6481547.649 7  23175906.203
  -6644626.92447  -4177478.73244  23367303.8984                   23367304.8094
   -717991.931 6   -538621.658 6  24484495.344
 -22886556.806 8 -17820560.049 8  20415546.945
 -18429379.48048 -14319651.28945  21318893.0474                   21318894.1454
 -15875482.997 8 -12356554.845 7  21628080.359
 -12025738.454 8  -9353333.116 7  22345861.219
  -7390345.07847  -5178367.12844  23685409.9924                   23685410.5314
  -7849587.11547  -6068552.77244  23146757.1094                   23146756.4104
 11  8 29  3  8 30.0000000  0  9G25G18G12G29G26G15G05G21G02
  -8258828.282 7  -6421013.945 7  23190688.852
  -6717462.82247  -4234233.95544  23353444.0944                   23353445.3244
   -624499.714 6   -465770.565 6  24502286.719
 -22917833.769 8 -17844931.706 8  20409595.156
 -18460240.31648 -14343698.67245  21313020.5394                   21313021.4614
 -15948395.996 8 -12413370.135 7  21614205.445
 -11943081.217 8  -9288924.875 7  22361589.953
  -7451156.61647  -5225752.68944  23673837.6094                   23673838.3284
  -7791509.97246  -6023297.89344  23157808.6644                   23157807.4184
 11  8 29  3  9  0.0000000  0  9G25G18G12G29G26G15G05G21G02
  -8180973.443 7  -6360347.881 7  23205504.797
  -6790058.76247  -4290802.19744  23339628.5004                   23339630.1994
   -531105.648 6   -392995.937 6  24520059.180
 -22948634.778 8 -17868932.483 8  20403733.820
 -18490462.12847 -14367248.11245  21307269.3674                   21307270.1994
 -16020921.890 8 -12469883.769 7  21600404.336
 -11860293.673 7  -9224415.117 7  22377344.469
  -7512002.78947  -5273165.25544  23662259.0474                   23662259.6374
  -7733293.11246  -5977934.12244  23168887.1564                   23168886.3554
 11  8 29  3  9 30.0000000  0  9G25G18G12G29G26G15G05G21G02
  -8102952.153 7  -6299552.108 7  23220350.852
  -6862414.41247  -4347183.16644  23325860.1724                   23325861.1644
   -437812.805 6   -320300.260 6  24537812.539
 -22978958.299 8 -17892561.195 8  20397963.281
 -18520043.04747 -14390298.15845  21301640.2894                   21301641.3404
 -16093058.150 8 -12526093.820 7  21586676.969
 -11777378.680 8  -9159806.044 7  22393122.492
  -7572883.31446  -5320604.58044  23650673.7114                   23650674.3834
  -7674936.20946  -5932461.25444  23179992.1174                   23179991.4024
 11  8 29  3 10  0.0000000  0  9G25G18G12G29G26G15G05G21G02
  -8024766.899 7  -6238628.592 7  23235229.391
  -6934528.56647  -4403375.95244  23312137.3524                   23312138.7584
   -344623.306 6   -247685.107 6  24555546.234
 -23008801.795 8 -17915815.863 8  20392284.508
 -18548980.68348 -14412846.94845  21296133.5704                   21296134.3914
 -16164801.397 8 -12581997.610 7  21573024.820
 -11694337.217 7  -9095098.418 7  22408924.391
  -7633797.97246  -5368070.49944  23639082.2274                   23639082.9224
  -7616438.39946  -5886878.56344  23191123.2974                   23191123.0634
 11  8 29  3 10 30.0000000  0  9G25G18G12G29G26G15G05G21G02
  -7946420.890 7  -6177579.833 7  23250138.219
  -7006401.01447  -4459380.40844  23298460.5474                   23298460.8484
   -251539.551 6   -175152.323 6  24573259.172
 -23038163.667 8 -17938695.235 8  20386697.078
 -18577273.42447 -14434893.21645  21290749.6954                   21290750.7344
 -16236149.041 8 -12637593.150 7  21559447.852
 -11611171.803 7  -9030294.237 7  22424750.945
  -7694747.02247  -5415563.20344  23627483.4064                   23627484.3874
  -7557799.50046  -5841185.95644  23202282.2274                   23202282.2774
 11  8 29  3 11  0.0000000  0  9G25G18G12G29G26G15G05G21G02
  -7867918.201 7  -6116408.981 6  23265076.906
  -7078031.81547  -4515196.57644  23284829.5784                   23284831.0474
   -158565.260 6   -102704.873 6  24590951.461
 -23067043.003 8 -17961198.614 8  20381201.453
 -18604920.17848 -14456436.12545  21285488.5084                   21285489.3834
 -16307099.037 8 -12692878.829 7  21545946.164
 -11527885.164 7  -8965395.593 7  22440599.789
  -7755730.63646  -5463082.87244  23615878.2894                   23615879.6294
  -7499019.99946  -5795383.76944  23213467.4064                   23213467.2034
 11  8 29  3 11 30.0000000  0  9G25G18G12G29G26G15G05G21G02
  -7789260.448 7  -6055117.274 7  23280044.641
  -7149418.93147  -4570822.87644  23271244.8594                   23271245.7894
    -65701.258 6    -30343.366 6  24608623.469
 -23095436.830 8 -17983323.674 8  20375798.094
 -18631917.80848 -14477473.22745  21280351.3284                   21280352.1954
 -16377647.342 8 -12747851.495 7  21532521.008
 -11444478.126 7  -8900403.113 7  22456471.672
  -7816747.90147  -5510628.71844  23604268.3204                   23604268.2854
  -7440098.05946  -5749470.60044  23224679.6024                   23224679.5704
 11  8 29  3 12  0.0000000  0  9G25G18G12G29G26G15G05G21G02
  -7710452.179 7  -5993708.274 6  23295041.211
  -7220563.28447  -4626260.00844  23257706.2664                   23257708.1994
     27048.356 6     41929.055 6  24626272.664
 -23123344.881 8 -18005070.201 8  20370487.563
 -18658265.94448 -14498004.22045  21275337.1254                   21275337.8134
 -16447792.638 8 -12802510.141 7  21519173.297
 -11360954.271 7  -8835319.621 7  22472365.602
  -7877799.67047  -5558201.48944  23592649.7814                   23592651.0474
  -7381034.78246  -5703447.31144  23235919.6414                   23235919.4384
 11  8 29  3 12 30.0000000  0  9G25G18G12G29G26G15G05G21G02
  -7631495.829 7  -5932183.885 6  23310066.719
  -7291463.82047  -4681507.13344  23244214.6484                   23244215.8834
    119681.622 6    114110.800 6  24643899.648
 -23150764.843 8 -18026436.391 8  20365269.523
 -18683962.16847 -14518027.23345  21270447.3914                   21270447.9614
 -16517531.685 8 -12856852.212 7  21505902.125
 -11277314.519 7  -8770145.790 7  22488281.742
  -7938885.50647  -5605800.80244  23581025.5864                   23581026.5234
  -7321828.96046  -5657312.95544  23247186.1804                   23247186.0354
 11  8 29  3 13  0.0000000  0  9G25G18G12G29G26G15G05G21G02
  -7552394.557 7  -5870546.565 7  23325119.227
  -7362120.15646  -4736563.95344  23230769.2974                   23230771.0824
    212196.026 6    186200.004 6  24661504.328
 -23177694.821 8 -18047420.787 8  20360145.070
 -18709004.94348 -14537541.07845  21265682.0634                   21265682.4654
 -16586861.250 7 -12910875.229 7  21492708.664
 -11193561.123 7  -8704883.426 7  22504219.805
  -8000005.16247  -5653426.45444  23569395.1804                   23569395.8834
  -7262480.34646  -5611067.31544  23258480.0164                   23258479.4964
 11  8 29  3 13 30.0000000  0  9G25G18G12G29G26G15G05G21G02
  -7473151.549 7  -5808798.790 6  23340198.180
  -7432531.61747  -4791429.99944  23217370.2974                   23217371.5554
    304588.763 6    258194.317 6  24679087.094
 -23204133.614 8 -18068022.424 8  20355113.695
 -18733392.53247 -14556544.36445  21261041.1024                   21261041.6454
 -16655778.897 7 -12964577.249 7  21479594.602
 -11109696.172 7  -8639534.122 7  22520178.375
  -8061158.87347  -5701078.61444  23557758.1884                   23557758.3324
  -7202988.62846  -5564710.19344  23269800.6564                   23269800.3364
 11  8 29  3 14  0.0000000  0  9G25G18G12G29G26G15G05G21G02
  -7393769.754 7  -5746942.881 6  23355304.234
  -7502698.00447  -4846105.07444  23204018.1954                   23204019.1804
    396857.929 6    330092.381 6  24696645.352
 -23230079.193 8 -18088239.746 8  20350176.609
 -18757123.45048 -14575035.97645  21256524.8594                   21256525.6954
 -16724281.908 8 -13017956.192 7  21466558.992
 -11025721.538 7  -8574099.342 7  22536158.117
  -8122346.46847  -5748757.20244  23546114.2814                   23546114.2154
  -7143353.19946  -5518241.05144  23281148.4844                   23281148.8204
 11  8 29  3 14 30.0000000  0  9G25G18G12G29G26G15G05G21G02
  -7314252.576 7  -5684981.491 6  23370436.453
  -7572618.60247  -4900588.62544  23190712.3284                   23190713.5554
    489000.386 6    401891.763 5  24714179.898
 -23255530.199 8 -18108071.689 8  20345333.500
 -18780195.99848 -14593014.55645  21252134.6884                   21252135.9304
 -16792368.131 8 -13071010.353 7  21453602.492
 -10941639.301 7  -8508580.744 7  22552158.258
  -8183567.95747  -5796462.18744  23534464.0164                   23534463.9494
  -7083574.07647  -5471659.91744  23292524.3364                   23292524.3554
 11  8 29  3 15  0.0000000  0  9G25G18G12G29G26G15G05G21G02
  -7234602.432 7  -5622916.472 6  23385593.180
  -7642292.72347  -4954880.11244  23177453.6024                   23177455.3914
    581014.495 5    473591.073 5  24731688.547
 -23280484.438 8 -18127516.546 8  20340584.633
 -18802607.90748 -14610478.35845  21247869.5314                   21247870.5554
 -16860033.638 8 -13123736.691 7  21440725.844
 -10857451.409 7  -8442979.815 7  22568179.305
  -8244822.68247  -5844193.07144  23522806.9924                   23522808.3444
  -7023650.03546  -5424965.93044  23303927.0784                   23303927.9454
 11  8 29  3 15 30.0000000  0  9G25G18G12G29G26G15G05G21G02
  -7154825.328 7  -5560752.538 6  23400774.766
  -7711722.55547  -5008981.24344  23164241.3984                   23164243.0984
    672894.673 6    545186.103 5  24749172.734
 -23304943.285 8 -18146575.374 8  20335930.320
 -18824360.63748 -14627428.50845  21243730.1334                   21243731.0434
 -16927278.943 8 -13176135.601 7  21427929.406
 -10773162.044 7  -8377299.803 7  22584219.211
  -8306113.25847  -5891951.90344  23511144.6334                   23511145.0984
  -6963583.74347  -5378161.06644  23315357.8914                   23315357.4224
 11  8 29  3 16  0.0000000  0  8G25G18G29G26G15G05G21G02
  -7074920.289 7  -5498488.869 6  23415979.695
  -7780903.57847  -5062888.51244  23151076.5864                   23151078.1254
 -23328901.074 8 -18165243.781 8  20331371.344
 -18845448.73947 -14643860.78045  21239717.0864                   21239718.0044
 -16994097.217 8 -13228201.760 7  21415214.742
 -10688769.603 7  -8311539.460 7  22600278.109
  -8367435.58247  -5939735.48644  23499474.6094                   23499475.5354
  -6903370.79847  -5331241.92044  23326815.8834                   23326815.8444
 11  8 29  3 16 30.0000000  0  8G25G18G29G26G15G05G21G02
  -6994891.774 7  -5436129.031 6  23431208.617
  -7849836.89147  -5116602.74544  23137959.4694                   23137960.6024
 -23352357.448 8 -18183521.475 8  20326907.758
 -18865871.91248 -14659774.91545  21235831.0554                   21235831.8014
 -17060487.319 8 -13279934.267 7  21402581.109
 -10604277.280 7  -8245701.290 7  22616356.422
  -8428791.07547  -5987544.89044  23487799.4694                   23487800.1764
  -6843011.98947  -5284209.11244  23338302.8754                   23338302.1764
 11  8 29  3 17  0.0000000  0  8G25G18G29G26G15G05G21G02
  -6914743.456 7  -5373675.793 6  23446460.461
  -7918522.32247  -5170123.84544  23124888.7894                   23124890.0664
 -23375311.733 8 -18201407.927 8  20322539.852
 -18885629.37948 -14675170.31345  21232071.2974                   21232071.7464
 -17126447.554 8 -13331331.826 7  21390029.070
 -10519687.331 7  -8179787.055 7  22632453.383
  -8490179.85147  -6035380.24944  23476117.0234                   23476118.3054
  -6782507.84847  -5237063.03344  23349815.7974                   23349815.0234
 11  8 29  3 17 30.0000000  0  8G25G18G29G26G15G05G21G02
  -6834478.108 7  -5311131.400 6  23461734.461
  -7986959.53547  -5223451.50244  23111865.5314                   23111866.5474
 -23397761.959 8 -18218901.587 8  20318267.625
 -18904719.30548 -14690045.55845  21228438.7584                   21228439.1564
 -17191974.318 8 -13382391.616 7  21377559.898
 -10435001.465 7  -8113798.067 6  22648568.523
  -8551601.17447  -6083240.97944  23464429.5784                   23464430.0704
  -6721857.53747  -5189803.06243  23361356.6254                   23361356.3674
 11  8 29  3 18  0.0000000  0  8G25G18G29G26G15G05G21G02
  -6754098.796 7  -5248498.209 6  23477030.188
  -8055147.85647  -5276585.22044  23098889.9534                   23098890.9224
 -23419706.544 8 -18236001.258 8  20314091.648
 -18923140.61248 -14704399.79845  21224932.7814                   21224933.9454
 -17257065.042 8 -13433111.633 7  21365173.328
 -10350221.965 7  -8047736.119 7  22664701.211
  -8613055.53047  -6131127.41944  23452734.5394                   23452735.5474
  -6661060.31347  -5142428.61444  23372926.8284                   23372925.6454
 11  8 29  3 18 30.0000000  0  8G25G18G29G26G15G05G21G02
  -6673609.089 7  -5185778.960 6  23492347.477
  -8123087.38347  -5329525.09344  23085961.5234                   23085962.4924
 -23441144.236 8 -18252705.960 8  20310012.313
 -18940891.85848 -14718231.90945  21221554.7814                   21221555.6054
 -17321717.919 7 -13483490.468 7  21352870.414
 -10265351.446 7  -7981603.224 6  22680851.961
  -8674542.92547  -6179039.66544  23441034.5704                   23441034.7584
  -6600116.65447  -5094940.06143  23384523.1484                   23384522.5164
 11  8 29  3 19  0.0000000  0  8G25G18G29G26G15G05G21G02
  -6593011.313 7  -5122975.545 6  23507684.016
  -8190776.99147  -5382270.19144  23073080.6884                   23073081.4384
 -23462073.332 8 -18269014.342 8  20306029.609
 -18957971.36248 -14731540.59345  21218305.3284                   21218305.5784
 -17385929.523 8 -13533525.442 7  21340651.156
 -10180390.327 7  -7915399.768 7  22697019.633
  -8736062.54447  -6226977.00144  23429327.8364                   23429328.1884
  -6539025.65947  -5047336.71643  23396148.5704                   23396148.0474
 11  8 29  3 19 30.0000000  0  8G25G18G29G26G15G05G21G02
  -6512309.620 7  -5060091.137 7  23523041.266
  -8258217.27047  -5434821.04344  23060246.7894                   23060248.3404
 -23482493.321 8 -18284926.023 8  20302143.781
 -18974378.66648 -14744325.47145  21215182.5394                   21215183.4064
 -17449698.464 7 -13583215.497 7  21328516.695
 -10095341.565 7  -7849127.988 7  22713203.641
  -8797614.98147  -6274939.92844  23417614.4384                   23417614.9144
  -6477787.77747  -4999618.89044  23407801.8054                   23407801.1844
 11  8 29  3 20  0.0000000  0  8G25G18G29G26G15G05G21G02
  -6431506.160 7  -4997127.451 7  23538417.547
  -8325407.02247  -5487176.65544  23047461.6174                   23047462.3284
 -23502401.622 8 -18300438.979 8  20298355.305
 -18990111.71948 -14756584.97845  21212188.8054                   21212189.1804
 -17513021.185 8 -13632557.840 7  21316466.531
 -10010206.569 7  -7782789.031 7  22729404.344
  -8859199.52647  -6322927.83644  23405895.4454                   23405895.2734
  -6416401.75846  -4951785.60243  23419483.1644                   23419482.6484
 11  8 29  3 20 30.0000000  0  8G25G18G29G26G15G05G21G02
  -6350604.071 7  -4934086.913 6  23553813.039
  -8392346.07347  -5539336.92344  23034723.3204                   23034724.1804
 -23521796.962 8 -18315552.239 8  20294664.164
 -19005169.34548 -14768318.16045  21209323.2734                   21209323.9654
 -17575895.243 7 -13681550.578 7  21304501.844
  -9924987.122 7  -7716384.273 7  22745620.828
  -8920815.82947  -6370940.51544  23394169.9454                   23394169.9144
  -6354867.33147  -4903836.72543  23431193.0704                   23431191.5704
 11  8 29  3 21  0.0000000  0  8G25G18G29G26G15G05G21G02
  -6269606.612 7  -4870972.058 6  23569225.953
  -8459034.37447  -5591301.79444  23022032.6484                   23022034.0944
 -23540678.211 8 -18330264.899 8  20291071.344
 -19019550.50948 -14779524.23245  21206586.1094                   21206587.4774
 -17638318.018 8 -13730191.666 7  21292623.508
  -9839685.332 7  -7649915.351 6  22761853.211
  -8982463.90347  -6418977.95944  23382439.0234                   23382438.7894
  -6293184.42746  -4855772.09443  23442930.5314                   23442929.8054
 11  8 29  3 21 30.0000000  0  8G25G18G29G26G15G05G21G02
  -6188516.703 7  -4807785.145 7  23584657.195
  -8525471.22447  -5643070.72044  23009390.6804                   23009391.2074
 -23559043.904 8 -18344575.827 8  20287576.797
 -19033254.16448 -14790202.38145  21203979.3364                   21203979.9224
 -17700287.086 8 -13778479.227 7  21280830.859
  -9754302.874 7  -7583383.549 7  22778101.164
  -9044143.62547  -6467040.05944  23370701.2424                   23370701.5944
  -6231352.61246  -4807591.47643  23454697.4304                   23454696.1454
 11  8 29  3 22  0.0000000  0  8G25G18G29G26G15G05G21G02
  -6107338.217 7  -4744529.183 6  23600104.773
  -8591657.01047  -5694644.00044  22996795.2344                   22996796.5004
 -23576893.405 8 -18358484.531 8  20284180.031
 -19046279.68148 -14800352.11445  21201500.2664                   21201500.9414
 -17761801.082 8 -13826412.177 7  21269125.180
  -9668842.670 7  -7516791.170 6  22794363.578
  -9105855.27747  -6515127.01644  23358957.4924                   23358958.1414
  -6169372.15146  -4759295.02443  23466491.8754                   23466491.2274
 11  8 29  3 22 30.0000000  0  8G25G18G29G26G15G05G21G02
  -6026073.380 6  -4681205.995 6  23615568.617
  -8657590.62647  -5746020.80144  22984248.5234                   22984250.0274
 -23594224.326 8 -18371989.150 8  20280882.102
 -19058625.19548 -14809971.97145  21199150.9924                   21199151.6454
 -17822856.486 8 -13873987.770 7  21257506.320
  -9583305.753 7  -7450139.042 7  22810641.188
  -9167597.65447  -6563237.92544  23347208.8054                   23347209.4454
  -6107241.78146  -4710881.71943  23478314.6724                   23478313.8954
 11  8 29  3 23  0.0000000  0  8G25G18G29G26G15G05G21G02
  -5944725.646 6  -4617818.157 6  23631048.703
  -8723272.13747  -5797201.13044  22971749.8984                   22971751.1414
 -23611035.850 8 -18385089.044 8  20277682.820
 -19070290.11248 -14819061.49846  21196931.1334                   21196932.0744
 -17883451.181 8 -13921204.387 7  21245975.977
  -9497694.056 7  -7383428.605 7  22826932.414
  -9229370.88447  -6611372.86844  23335453.7584                   23335454.0984
  -6044961.90546  -4662351.94343  23490166.1024                   23490165.7624
 11  8 29  3 23 30.0000000  0  8G25G18G29G26G15G05G21G02
  -5863298.336 7  -4554368.366 6  23646544.023
  -8788701.51447  -5848185.02244  22959298.8204                   22959300.3284
 -23627327.229 8 -18397783.632 8  20274582.789
 -19081273.74248 -14827620.14245  21194841.1254                   21194841.9184
 -17943582.903 8 -13968060.225 7  21234532.930
  -9412009.580 7  -7316661.470 7  22843237.844
  -9291175.26047  -6659532.08444  23323693.0164                   23323693.5234
  -5982532.47446  -4613705.62643  23502046.2194                   23502045.7664
 11  8 29  3 24  0.0000000  0  8G25G18G29G26G15G05G21G02
  -5781793.777 7  -4490858.319 6  23662053.781
  -8853878.04447  -5898971.88444  22946896.2424                   22946897.7344
 -23643096.081 8 -18410071.056 8  20271582.133
 -19091574.16148 -14835646.42945  21192880.7344                   21192881.6524
 -18003248.726 8 -14014553.037 7  21223178.984
  -9326253.737 7  -7249838.754 7  22859556.414
  -9353009.99247  -6707714.92144  23311925.1414                   23311926.4064
  -5919952.04546  -4564941.65543  23513954.0554                   23513953.9924
 11  8 29  3 24 30.0000000  0  8G25G18G29G26G15G05G21G02
  -5700215.126 7  -4427290.581 6  23677577.758
  -8918800.92747  -5949561.11044  22934541.9534                   22934543.4614
 -23658341.619 8 -18421950.699 8  20268681.227
 -19101190.58448 -14843139.73045  21191050.8444                   21191051.8324
 -18062446.249 8 -14060680.952 7  21211913.664
  -9240428.497 7  -7182961.945 7  22875888.297
  -9414874.56647  -6755921.04644  23300153.9144                   23300154.0864
  -5857220.66346  -4516060.06343  23525891.6564                   23525891.4104
 11  8 29  3 25  0.0000000  0  8G25G18G29G26G15G05G21G02
  -5618565.986 7  -4363667.866 6  23693114.930
  -8983471.01747  -5999953.31244  22922235.1254                   22922236.7894
 -23673062.968 8 -18433421.893 8  20265879.570
 -19110122.64848 -14850099.76045  21189351.2114                   21189352.1524
 -18121173.583 8 -14106442.468 7  21200738.453
  -9154535.944 7  -7116032.695 7  22892232.602
  -9476769.43247  -6804150.76244  23288375.5164                   23288376.2504
  -5794338.74046  -4467061.15844  23537858.5314                   23537857.7894
 11  8 29  3 25 30.0000000  0  8G25G18G29G26G15G05G21G02
  -5536848.863 7  -4299992.217 6  23708665.828
  -9047887.40047  -6050147.83044  22909977.4144                   22909979.0394
 -23687258.217 8 -18444483.126 8  20263177.883
 -19118369.05148 -14856525.51145  21187782.0474                   21187782.6214
 -18179427.813 8 -14151835.352 7  21189653.289
  -9068577.632 7  -7049052.209 7  22908589.977
  -9538693.88047  -6852403.54744  23276591.7974                   23276591.2934
  -5731305.34646  -4417944.24844  23549853.0004                   23549852.2274
 11  8 29  3 26  0.0000000  0  8G25G18G29G26G15G05G21G02
  -5455066.933 7  -4236266.066 6  23724228.086
  -9112049.88047  -6100144.53344  22897768.0314                   22897768.3954
 -23700926.571 8 -18455133.792 8  20260577.320
 -19125929.10848 -14862416.44845  21186343.1174                   21186344.4884
 -18237206.788 8 -14196857.886 7  21178657.977
  -8982555.762 7  -6982022.175 6  22924960.141
  -9600647.61847  -6900679.15644  23264802.1564                   23264801.7934
  -5668120.00546  -4368708.89744  23561876.4224                   23561877.0744
 11  8 29  3 26 30.0000000  0  8G25G18G29G26G15G05G21G02
  -5373223.615 7  -4172492.078 6  23739802.867
  -9175958.69347  -6149943.56144  22885605.2734                   22885606.9454
 -23714066.747 8 -18465372.895 8  20258076.953
 -19132802.06147 -14867771.97345  21185035.4224                   21185036.5514
 -18294508.554 8 -14241508.569 7  21167753.938
  -8896471.636 7  -6914943.672 6  22941341.063
  -9662630.78947  -6948977.71244  23253007.1884                   23253006.5044
  -5604782.88347  -4319355.29744  23573929.8914                   23573929.0634
 11  8 29  3 27  0.0000000  0  8G25G18G29G26G15G05G21G02
  -5291321.523 7  -4108672.302 6  23755388.195
  -9239613.41846  -6199544.58044  22873492.7424                   22873494.4844
 -23726677.980 8 -18475199.823 8  20255677.086
 -19138987.03148 -14872591.42045  21183858.9304                   21183859.3594
 -18351330.685 8 -14285785.515 7  21156940.945
  -8810327.235 7  -6847818.158 6  22957734.102
  -9724642.45647  -6997298.46544  23241206.4224                   23241205.7814
  -5541293.51547  -4269883.05244  23586011.2734                   23586010.2504
 11  8 29  3 27 30.0000000  0  8G25G18G29G26G15G05G21G02
  -5209364.365 7  -4044809.559 6  23770984.203
  -9303014.15547  -6248947.69844  22861428.0474                   22861429.2934
 -23738759.481 8 -18484613.979 8  20253378.156
 -19144483.74948 -14876874.55545  21182812.3594                   21182813.4184
 -18407671.168 8 -14329687.164 7  21146219.883
  -8724124.746 7  -6780647.375 6  22974138.141
  -9786683.18847  -7045641.85344  23229400.3594                   23229400.7814
  -5477652.09747  -4220292.37944  23598121.5314                   23598121.3674
 11  8 29  3 28  0.0000000  0  8G25G18G29G26G15G05G21G02
  -5127354.010 7  -3980905.414 6  23786589.508
  -9366159.35147  -6298151.69044  22849412.1334                   22849413.1054
 -23750308.949 8 -18493613.552 8  20251180.047
 -19149290.57448 -14880620.11645  21181897.8754                   21181898.8754
 -18463526.895 8 -14373211.067 7  21135590.414
  -8637864.800 7  -6713431.835 6  22990552.547
  -9848751.78247  -7094006.93844  23217589.8524                   23217589.4224
  -5413857.21046  -4170582.06744  23610260.8834                   23610260.3674
 11  8 29  3 28 30.0000000  0  8G25G18G29G26G15G05G21G02
  -5045294.266 7  -3916962.774 6  23802205.313
  -9429050.03947  -6347157.35844  22837444.4774                   22837444.9774
 -23761325.832 8 -18502198.139 8  20249083.742
 -19153407.44248 -14883828.04745  21181114.2894                   21181115.4104
 -18518895.973 8 -14416355.767 7  21125054.352
  -8551549.926 7  -6646173.505 6  23006977.383
  -9910847.83347  -7142393.44644  23205772.5554                   23205773.0664
  -5349909.68946  -4120752.81944  23622429.6804                   23622429.7424
 11  8 29  3 29  0.0000000  0  8G25G18G29G26G15G05G21G02
  -4963187.596 7  -3852983.585 6  23817829.898
  -9491685.47947  -6395964.14944  22825525.4614                   22825526.3874
 -23771808.557 8 -18510366.488 8  20247088.914
 -19156833.23547 -14886497.48245  21180462.1174                   21180463.1414
 -18573775.941 8 -14459119.338 7  21114611.102
  -8465181.618 7  -6578873.549 7  23023412.961
  -9972971.26047  -7190801.25244  23193950.9534                   23193951.8914
  -5285808.43546  -4070803.81644  23634628.0164                   23634627.8914
 11  8 29  3 29 30.0000000  0  8G25G18G29G26G15G05G21G02
  -4881037.364 7  -3788970.458 6  23833462.477
  -9554065.70047  -6444572.06344  22813654.1414                   22813655.3094
 -23781756.637 8 -18518118.230 8  20245195.742
 -19159567.58847 -14888628.13645  21179941.7344                   21179942.6174
 -18628164.902 8 -14501500.312 7  21104261.359
  -8378761.741 7  -6511533.393 6  23039857.930
 -10035122.45547  -7239230.72344  23182124.4614                   23182124.9414
  -5221553.48446  -4020735.02344  23646855.5314                   23646855.8134
 11  8 29  3 30  0.0000000  0  8G25G18G29G26G15G05G21G02
  -4798846.580 7  -3724925.721 6  23849102.727
  -9616190.43747  -6492980.89644  22801832.4614                   22801833.6844
 -23791168.958 8 -18525452.506 8  20243404.766
 -19161610.03847 -14890219.64245  21179553.4304                   21179554.5234
 -18682060.525 8 -14543496.870 7  21094004.727
  -8292291.958 7  -6444154.360 7  23056313.352
 -10097300.44447  -7287681.06244  23170292.0474                   23170292.3794
  -5157144.63446  -3970546.29144  23659111.8364                   23659111.8714
 11  8 29  3 30 30.0000000  0  8G25G18G29G26G15G05G21G02
  -4716617.926 7  -3660851.471 6  23864750.977
  -9678059.58547  -6541190.56244  22790058.9694                   22790059.8794
 -23800044.111 8 -18532368.199 8  20241715.891
 -19162959.78447 -14891271.37445  21179296.2734                   21179297.0434
 -18735460.451 8 -14585107.165 7  21083843.719
  -8205773.842 7  -6376737.695 6  23072776.625
 -10159504.48347  -7336151.68044  23158455.2974                   23158454.8874
  -5092581.34647  -3920237.24544  23671398.4774                   23671397.7814
 11  8 29  3 31  0.0000000  0  8G25G18G29G26G15G05G21G02
  -4634355.402 7  -3596750.788 6  23880404.938
  -9739673.79847  -6589201.57644  22778334.4064                   22778335.3794
 -23808382.320 8 -18538865.500 8  20240129.273
 -19163617.10847 -14891783.56145  21179171.0394                   21179172.5554
 -18788363.391 8 -14626330.198 7  21073776.156
  -8119210.084 7  -6309285.419 6  23089249.484
 -10221735.10447  -7384643.03344  23146612.7814                   23146612.1174
  -5027864.28146  -3869808.38544  23683713.4924                   23683712.6334
 11  8 29  3 31 30.0000000  0  8G25G18G29G26G15G05G21G02
  -4552061.093 7  -3532625.379 6  23896064.250
  -9801032.00247  -6637013.09044  22766657.8364                   22766658.8364
 -23816181.499 8 -18544942.780 8  20238645.102
 -19163580.87747 -14891755.31946  21179178.2814                   21179179.1334
 -18840766.579 8 -14667163.831 7  21063804.398
  -8032601.169 7  -6241797.929 6  23105729.969
 -10283991.38647  -7433154.36344  23134765.8444                   23134765.8984
  -4962992.30147  -3819258.78244  23696057.9454                   23696058.1174
 11  8 29  3 32  0.0000000  0  8G25G18G29G26G15G05G21G02
  -4469738.040 7  -3468477.557 6  23911730.414
  -9862133.98747  -6684624.95044  22755030.6094                   22755032.0394
 -23823441.010 8 -18550599.541 8  20237263.602
 -19162850.81247 -14891186.41745  21179317.2344                   21179318.2464
 -18892667.673 8 -14707606.189 7  21053927.711
  -7945949.080 7  -6174276.850 6  23122219.609
 -10346272.87547  -7481685.33344  23122914.3284                   23122913.5904
  -4897965.21347  -3768588.29444  23708432.0234                   23708431.5554
 11  8 29  3 32 30.0000000  0  8G25G18G29G26G15G05G21G02
  -4387389.321 7  -3404309.694 6  23927400.609
  -9922980.22447  -6732037.54444  22743451.5944                   22743453.0864
 -23830159.803 8 -18555834.964 8  20235985.031
 -19161426.40348 -14890076.47545  21179588.0554                   21179589.5004
 -18944064.600 8 -14747655.713 7  21044146.922
  -7859255.610 7  -6106723.525 6  23138716.398
 -10408579.35047  -7530235.78444  23111057.7114                   23111056.5044
  -4832782.81646  -3717796.80344  23720836.6334                   23720835.6844
 11  8 29  3 33  0.0000000  0  8G25G18G29G26G15G05G21G02
  -4305018.247 6  -3340124.440 6  23943075.172
  -9983570.51347  -6779250.68944  22731921.8204                   22731922.5314
 -23836337.367 8 -18560648.649 8  20234809.492
 -19159307.50248 -14888425.37945  21179991.4694                   21179992.3834
 -18994955.710 8 -14787311.103 7  21034462.680
  -7772522.459 7  -6039139.247 6  23155221.891
 -10470910.57247  -7578805.50444  23099195.6804                   23099196.1134
  -4767445.27446  -3666884.40844  23733269.6564                   23733268.4924
 11  8 29  3 33 30.0000000  0  8G25G18G29G26G15G05G21G02
  -4222627.015 7  -3275923.532 6  23958754.086
 -10043903.89647  -6826263.65644  22720441.1094                   22720441.4184
 -23841971.942 8 -18565039.228 8  20233736.969
 -19156493.17948 -14886232.37745  21180527.0944                   21180527.7504
 -19045338.431 8 -14826570.313 7  21024874.961
  -7685750.888 6  -5971525.055 6  23171733.422
 -10533265.64447  -7627393.81444  23087330.0084                   23087330.0234
  -4701951.74246  -3615850.52643  23745732.6024                   23745731.9454
 11  8 29  3 34  0.0000000  0  8G25G18G29G26G15G05G21G02
  -4140218.863 7  -3211709.370 6  23974435.211
 -10103980.76847  -6873076.72944  22709009.0864                   22709009.5784
 -23847062.651 8 -18569006.026 8  20232768.594
 -19152983.36647 -14883497.43745  21181194.4774                   21181195.6724
 -19095210.702 8 -14865431.797 7  21015385.195
  -7598942.710 7  -5903882.340 6  23188252.469
 -10595644.52647  -7676000.66944  23075460.0554                   23075460.0474
  -4636302.00246  -3564694.86943  23758225.1094                   23758224.3404
 11  8 29  3 34 30.0000000  0  8G25G18G29G26G15G05G21G02
  -4057797.097 7  -3147484.567 6  23990120.195
 -10163801.44047  -6919690.16944  22697625.2034                   22697626.0704
 -23851609.705 8 -18572549.184 8  20231903.414
 -19148778.29448 -14880220.74145  21181994.8444                   21181996.0554
 -19144571.043 8 -14903894.369 7  21005991.773
  -7512099.735 7  -5836212.511 6  23204778.727
 -10658046.53847  -7724625.53344  23063585.0474                   23063585.8874
  -4570496.16646  -3513417.62443  23770747.0864                   23770746.9144
 11  8 29  3 35  0.0000000  0  8G25G18G29G26G15G05G21G02
  -3975364.654 7  -3083251.520 6  24005806.992
 -10223365.94047  -6966103.98744  22686290.1094                   22686290.7934
 -23855612.214 8 -18575668.026 8  20231141.609
 -19143877.50148 -14876401.93145  21182927.6334                   21182928.5434
 -19193417.256 8 -14941956.326 7  20996696.586
  -7425223.865 7  -5768517.022 6  23221310.375
 -10720471.65847  -7773268.41045  23051705.4384                   23051706.8134
  -4504534.29346  -3462018.75643  23783300.1724                   23783298.8244
 11  8 29  3 35 30.0000000  0  8G25G18G29G26G15G05G21G02
  -3892924.333 7  -3019012.290 6  24021494.219
 -10282673.87447  -7012317.91944  22675004.3674                   22675005.3714
 -23859068.849 8 -18578361.517 8  20230483.797
 -19138280.71748 -14872040.78645  21183992.2894                   21183993.5124
 -19241747.280 8 -14979616.057 7  20987499.875
  -7338316.504 7  -5700796.994 7  23237848.648
 -10782919.45547  -7821928.96545  23039822.6644                   23039823.0044
  -4438415.49946  -3410497.66643  23795881.7274                   23795881.0664
 11  8 29  3 36  0.0000000  0  8G25G18G29G26G15G05G21G02
  -3810478.978 7  -2954769.154 6  24037183.203
 -10341725.16547  -7058331.83444  22663767.2344                   22663768.2194
 -23861978.747 8 -18580628.972 8  20229930.055
 -19131987.87148 -14867137.25245  21185190.2584                   21185190.9924
 -19289558.954 8 -15016871.873 7  20978401.758
  -7251378.645 7  -5633053.236 6  23254392.273
 -10845388.51247  -7870606.10345  23027935.0474                   23027935.3284
  -4372139.95647  -3358854.36443  23808493.8984                   23808492.5314
 11  8 29  3 36 30.0000000  0  8G25G18G29G26G15G05G21G02
  -3728031.572 7  -2890524.370 6  24052872.117
 -10400519.64247  -7104145.65144  22652579.0314                   22652579.8404
 -23864341.375 8 -18582469.977 8  20229480.672
 -19124998.87748 -14861691.27745  21186520.1024                   21186521.0664
 -19336850.455 8 -15053722.362 7  20969402.445
  -7164412.613 7  -5565287.503 6  23270940.844
 -10907879.43347  -7919300.28844  23016043.5314                   23016043.1254
  -4305707.48046  -3307088.80443  23821135.1954                   23821134.7114
 11  8 29  3 37  0.0000000  0  8G25G18G29G26G15G05G21G02
  -3645584.936 7  -2826280.216 6  24068561.383
 -10459057.33447  -7149759.35644  22641439.4384                   22641440.4384
 -23866155.898 8 -18583883.905 8  20229135.180
 -19117313.25948 -14855702.46445  21187982.5234                   21187983.2344
 -19383620.023 8 -15090166.142 7  20960502.711
  -7077419.563 7  -5497500.730 7  23287495.680
 -10970391.70947  -7968011.10844  23004147.5554                   23004146.9654
  -4239117.64547  -3255200.66743  23833806.9384                   23833806.3674
 11  8 29  3 37 30.0000000  0  8G25G18G29G26G15G05G21G02
  -3563142.081 7  -2762038.996 6  24084249.453
 -10517338.34247  -7195173.07544  22630348.9224                   22630349.7234
 -23867421.539 8 -18584870.124 8  20228894.859
 -19108931.30548 -14849171.05445  21189577.5234                   21189578.2114
 -19429865.476 8 -15126201.538 7  20951702.328
  -6990401.151 7  -5429694.189 6  23304054.039
 -11032924.48947  -8016737.89944  22992248.1094                   22992247.3674
  -4172370.26746  -3203189.75743  23846509.2814                   23846508.1914
 11  8 29  3 38  0.0000000  0  8G25G18G29G26G15G05G21G02
  -3480705.544 7  -2697802.726 6  24099936.781
 -10575362.37747  -7240386.53644  22619307.2274                   22619307.3594
 -23868137.218 8 -18585427.789 8  20228758.047
 -19099852.62848 -14842096.74945  21191305.2734                   21191306.0274
 -19475584.717 8 -15161826.890 7  20943001.969
  -6903358.783 6  -5361868.960 6  23320617.953
 -11095476.75147  -8065479.87244  22980344.6174                   22980343.7074
  -4105464.88047  -3151055.73143  23859240.4924                   23859239.5314
 11  8 29  3 38 30.0000000  0  8G25G18G29G26G15G05G21G02
  -3398278.489 7  -2633573.831 6  24115622.398
 -10633129.68947  -7285399.95345  22608314.6884                   22608315.2504
 -23868302.678 8 -18585556.731 8  20228726.750
 -19090077.32848 -14834479.62945  21193165.5314                   21193165.9264
 -19520775.980 8 -15197040.831 7  20934402.391
  -6816294.095 7  -5294026.346 6  23337186.281
 -11158048.28147  -8114236.86144  22968437.8204                   22968437.1024
  -4038401.61646  -3098798.71643  23872002.2814                   23872001.5824
 11  8 29  3 39  0.0000000  0  8G25G18G29G26G15G05G21G02
  -3315863.858 6  -2569354.597 6  24131304.422
 -10690640.05647  -7330213.17244  22597371.1644                   22597370.9494
 -23867917.509 8 -18585256.602 8  20228799.945
 -19079605.59848 -14826319.83345  21195158.1254                   21195158.6134
 -19565437.682 8 -15231842.131 7  20925903.469
  -6729208.698 6  -5226167.586 6  23353757.742
 -11220638.76047  -8163008.61345  22956526.9774                   22956526.6884
  -3971179.90246  -3046418.19343  23884793.5164                   23884792.6914
 11  8 29  3 39 30.0000000  0  8G25G18G29G26G15G05G21G02
  -3233464.595 7  -2505147.403 6  24146984.945
 -10747893.86347  -7374826.45645  22586476.1644                   22586476.0634
 -23866981.016 8 -18584526.859 8  20228978.281
 -19068437.85748 -14817617.67345  21197283.1644                   21197283.4494
 -19609568.163 8 -15266229.492 7  20917505.727
  -6642104.017 7  -5158293.821 6  23370332.133
 -11283247.98447  -8211794.98345  22944612.5394                   22944613.2504
  -3903800.25247  -2993914.60143  23897615.6804                   23897615.5434
 11  8 29  3 40  0.0000000  0  8G25G18G29G26G15G05G21G02
  -3151083.946 6  -2440954.658 6  24162661.086
 -10804891.28647  -7419239.97244  22575629.3364                   22575629.7464
 -23865492.794 8 -18583367.213 8  20229261.742
 -19056574.01448 -14808373.10645  21199540.8204                   21199541.8134
 -19653165.532 8 -15300201.434 7  20909209.484
  -6554982.044 6  -5090406.580 6  23386911.219
 -11345875.37547  -8260595.52945  22932695.5394                   22932696.0004
  -3836262.54546  -2941287.88243  23910467.8524                   23910467.3204
 11  8 29  3 40 30.0000000  0  8G25G18G29G26G15G05G21G02
  -3068724.434 6  -2376778.434 6  24178333.789
 -10861632.44047  -7463453.78644  22564831.6254                   22564831.6564
 -23863452.140 8 -18581777.077 8  20229649.641
 -19044014.37148 -14798586.36845  21201930.9384                   21201931.7384
 -19696228.188 8 -15333756.714 7  20901014.992
  -6467844.199 7  -5022506.931 6  23403493.742
 -11408519.90547  -8309409.40645  22920774.7424                   22920775.1994
  -3768566.28947  -2888537.59443  23923349.5164                   23923349.7234
 11  8 29  3 41  0.0000000  0  8G25G18G29G26G15G05G21G02
  -2986388.478 6  -2312620.561 6  24194002.023
 -10918116.45247  -7507467.22944  22554082.8594                   22554083.6644
 -23860857.544 8 -18579755.310 8  20230143.305
 -19030758.33148 -14788256.96845  21204453.3444                   21204454.1374
 -19738753.569 8 -15366893.357 7  20892922.742
  -6380691.352 7  -4954595.632 6  23420077.945
 -11471181.21547  -8358236.34645  22908850.4384                   22908850.6054
  -3700710.74447  -2835663.17943  23936262.5394                   23936262.3284
 11  8 29  3 41 30.0000000  0  8G25G18G29G26G15G05G21G02
  -2904079.127 6  -2248483.396 6  24209663.914
 -10974343.65547  -7551280.56345  22543383.4064                   22543384.3094
 -23857709.240 8 -18577302.093 8  20230742.508
 -19016806.53748 -14777385.42545  21207107.9924                   21207109.1254
 -19780740.348 8 -15399610.298 7  20884932.164
  -6293524.717 7  -4886673.567 6  23436665.055
 -11533858.58747  -8407075.82044  22896922.9064                   22896922.5004
  -3632696.04346  -2782664.73243  23949205.6724                   23949204.9734
 11  8 29  3 42  0.0000000  0  8G25G18G29G26G15G05G21G02
  -2821800.341 7  -2184370.031 6  24225321.930
 -11030315.21447  -7594894.71744  22532732.4924                   22532733.3554
 -23854007.866 8 -18574417.897 8  20231447.000
 -19002160.21848 -14765972.70245  21209895.4144                   21209896.1094
 -19822188.051 8 -15431907.175 7  20877045.531
  -6206347.371 7  -4818743.169 6  23453254.508
 -11596552.63547  -8455928.28744  22884992.4064                   22884992.8014
  -3564522.89347  -2729542.80243  23962178.6954                   23962177.8984
 11  8 29  3 42 30.0000000  0  8G25G18G29G26G15G05G21G02
  -2739553.599 7  -2120281.608 6  24240973.367
 -11086029.76347  -7638308.59845  22522130.5864                   22522130.8014
 -23849751.316 8 -18571101.107 8  20232257.086
 -18986818.48148 -14754018.08645  21212814.6334                   21212815.5164
 -19863093.274 8 -15463781.345 7  20869261.297
  -6119159.413 7  -4750804.509 6  23469845.984
 -11659261.51347  -8504792.30444  22873059.4774                   22873059.0354
  -3496189.97547  -2676296.42743  23975181.3524                   23975181.4494
 11  8 29  3 43  0.0000000  0  8G25G18G29G26G15G05G21G02
  -2657342.512 6  -2056220.969 6  24256616.883
 -11141488.18847  -7681522.90945  22511576.4844                   22511577.2504
 -23844939.730 8 -18567351.813 8  20233172.664
 -18970782.28448 -14741522.34345  21215866.3364                   21215867.2464
 -19903455.112 8 -15495232.092 7  20861580.570
  -6031962.879 7  -4682859.146 6  23486439.945
 -11721985.11647  -8553667.78745  22861124.0634                   22861123.3524
  -3427698.17046  -2622926.20843  23988215.3524                   23988214.6954
 11  8 29  3 43 30.0000000  0  8G25G18G29G26G15G05G21G02
  -2575169.498 7  -1992189.959 6  24272254.305
 -11196690.26247  -7724537.46244  22501071.4144                   22501072.1414
 -23839572.489 8 -18563169.539 8  20234193.641
 -18954051.68247 -14728485.48445  21219050.2424                   21219050.9224
 -19943271.405 8 -15526257.742 7  20854004.148
  -5944758.985 7  -4614908.040 6  23503033.727
 -11784722.68047  -8602554.15945  22849185.1724                   22849185.0554
  -3359046.55447  -2569431.48843  24001279.3444                   24001278.2704
 11  8 29  3 44  0.0000000  0  8G25G18G29G26G15G05G21G02
  -2493037.678 7  -1928191.112 6  24287883.695
 -11251636.09047  -7767352.34544  22490616.0004                   22490617.0944
 -23833649.418 8 -18558554.161 8  20235320.672
 -18936627.06447 -14714907.85345  21222365.8444                   21222366.9534
 -19982541.256 8 -15556857.596 7  20846531.109
  -5857549.349 7  -4546952.445 6  23519629.117
 -11847473.70347  -8651451.03145  22837244.2504                   22837243.1994
  -3290235.26646  -2515812.33543  24014373.7034                   24014373.0354
 11  8 29  3 44 30.0000000  0  8G25G18G29G26G15G05G21G02
  -2410949.104 6  -1864225.934 6  24303503.711
 -11306325.53447  -7809967.42945  22480208.8524                   22480209.9964
 -23827169.502 8 -18553504.869 8  20236554.141
 -18918508.43648 -14700789.43845  21225813.8914                   21225814.6214
 -20021262.269 8 -15587029.780 7  20839162.789
  -5770334.730 7  -4478992.995 6  23536226.008
 -11910236.95347  -8700357.44444  22825300.3594                   22825299.9264
  -3221263.70646  -2462068.33043  24027499.1174                   24027498.7704
 11  8 29  3 45  0.0000000  0  8G25G18G29G26G15G05G21G02
  -2328907.398 7  -1800297.340 6  24319116.703
 -11360759.09347  -7852383.10145  22469850.0554                   22469851.5594
 -23820132.792 8 -18548021.726 8  20237892.891
 -18899696.89048 -14686131.06645  21229393.5554                   21229394.1454
 -20059433.149 8 -15616773.299 7  20831899.031
  -5683117.072 7  -4411031.174 6  23552822.742
 -11973012.45947  -8749273.39045  22813354.4924                   22813354.7074
  -3152132.25946  -2408199.72143  24040653.5704                   24040653.3524
 11  8 29  3 45 30.0000000  0  8G25G18G29G26G15G05G21G02
  -2246915.129 6  -1736407.310 6  24334718.688
 -11414936.62447  -7894599.29545  22459540.6174                   22459541.6174
 -23812538.813 8 -18542104.335 8  20239338.133
 -18880192.71848 -14670932.99345  21233105.2584                   21233105.6414
 -20097052.618 8 -15646087.143 7  20824740.711
  -5595897.607 7  -4343067.954 6  23569420.156
 -12035799.62347  -8798198.44145  22801406.9454                   22801406.5124
  -3082840.67646  -2354206.31643  24053839.6884                   24053839.4304
 11  8 29  3 46  0.0000000  0  8G25G18G29G26G15G05G21G02
  -2164974.600 6  -1672557.555 6  24350311.148
 -11468857.98647  -7936615.85645  22449279.8134                   22449280.8634
 -23804386.949 8 -18535752.226 8  20240889.281
 -18859995.76848 -14655195.10445  21236948.6254                   21236949.0084
 -20134118.447 8 -15674969.577 7  20817686.922
  -5508677.696 7  -4275104.383 6  23586017.117
 -12098596.98547  -8847131.42745  22789456.3984                   22789457.0864
  -3013388.41646  -2300087.70543  24067055.4694                   24067055.7114
 11  8 29  3 46 30.0000000  0  8G25G18G29G26G15G05G21G02
  -2083089.025 6  -1608750.617 6  24365894.133
 -11522523.81847  -7978433.33645  22439067.8914                   22439068.4574
 -23795677.037 8 -18528965.281 8  20242546.516
 -18839107.53647 -14638918.54145  21240923.5474                   21240923.7384
 -20170630.034 7 -15703420.140 7  20810738.813
  -5421458.930 7  -4207141.705 6  23602613.633
 -12161404.64347  -8896072.42345  22777505.0634                   22777504.8484
  -2943775.77246  -2245844.07043  24080302.7114                   24080302.9454
 11  8 29  3 47  0.0000000  0  8G25G18G29G26G15G05G21G02
  -2001261.890 6  -1544989.247 6  24381465.664
 -11575934.91547  -8020052.29645  22428903.2894                   22428904.5594
 -23786410.134 8 -18521744.322 8  20244310.445
 -18817529.15947 -14622104.20045  21245029.5164                   21245030.4384
 -20206586.477 8 -15731438.120 7  20803896.469
  -5334243.125 6  -4139181.355 6  23619210.805
 -12224222.48847  -8945021.38445  22765550.5234                   22765550.6024
  -2874003.14046  -2191475.84643  24093579.8594                   24093579.4574
 11  8 29  3 47 30.0000000  0  8G25G18G29G26G15G05G21G02
  -1919495.085 6  -1481274.855 6  24397025.617
 -11629090.25847  -8061471.99845  22418788.8754                   22418789.6254
 -23776584.666 8 -18514088.115 8  20246180.023
 -18795260.11947 -14604751.68245  21249267.1564                   21249267.9184
 -20241984.751 8 -15759021.155 7  20797160.492
  -5247030.658 6  -4071223.587 6  23635807.102
 -12287048.97647  -8993977.04545  22753595.2894                   22753594.4774
  -2804069.98346  -2136982.54143  24106887.8284                   24106887.9534
 11  8 29  3 48  0.0000000  0  8G25G18G29G26G15G05G21G02
  -1837791.653 6  -1417609.865 6  24412572.883
 -11681990.61647  -8102692.97845  22408722.0164                   22408722.6684
 -23766200.758 8 -18505996.756 8  20248156.078
 -18772301.52348 -14586861.85445  21253635.8204                   21253636.7814
 -20276824.187 8 -15786168.732 7  20790530.750
  -5159823.590 6  -4003270.041 6  23652400.930
 -12349883.62647  -9042939.09045  22741638.8054                   22741637.4384
  -2733976.16746  -2082363.99643  24120226.3834                   24120226.0044
 11  8 29  3 48 30.0000000  0  8G25G18G29G26G15G05G21G02
  -1756154.107 6  -1353996.138 6  24428107.281
 -11734635.85147  -8143715.15045  22398703.8984                   22398704.8284
 -23755258.135 8 -18497470.027 8  20250238.164
 -18748653.86647 -14568435.09445  21258135.8364                   21258136.8484
 -20311103.062 8 -15812879.517 7  20784007.930
  -5072622.799 6  -3935321.358 6  23668994.891
 -12412725.59247  -9091906.80045  22729680.3134                   22729679.4224
  -2663721.37846  -2027620.03843  24133595.9534                   24133595.3524
 11  8 29  3 49  0.0000000  0  8G25G18G29G26G15G05G21G02
  -1674585.163 6  -1290435.978 6  24443628.969
 -11787026.10447  -8184538.66045  22388734.0234                   22388734.8674
 -23743756.201 8 -18488507.481 8  20252426.773
 -18724317.88947 -14549471.97145  21262766.9924                   21262767.7424
 -20344819.891 8 -15839152.332 7  20777591.492
  -4985429.965 6  -3867378.884 6  23685588.039
 -12475574.17147  -9140879.68545  22717720.1334                   22717719.8554
  -2593305.45846  -1972750.53943  24146995.0004                   24146995.2894
 11  8 29  3 49 30.0000000  0  8G25G18G29G26G15G05G21G02
  -1593087.972 6  -1226931.617 6  24459138.305
 -11839161.94247  -8225163.91045  22378813.1024                   22378814.5004
 -23731695.558 8 -18479109.562 8  20254722.266
 -18699294.74247 -14529973.39945  21267528.1804                   21267529.4064
 -20377973.972 8 -15864986.651 7  20771282.414
  -4898246.360 6  -3799443.577 6  23702177.539
 -12538428.91647  -9189857.35845  22705759.5084                   22705759.3554
  -2522728.85246  -1917755.81643  24160425.1414                   24160425.4534
 11  8 29  3 50  0.0000000  0  8G25G18G29G26G15G05G21G02
  -1511664.822 6  -1163485.056 6  24474632.102
 -11891043.47547  -8265590.99145  22368940.4534                   22368941.2234
 -23719075.609 8 -18469275.844 8  20257123.656
 -18673584.77947 -14509939.65145  21272420.9534                   21272421.8714
 -20410563.448 8 -15890381.014 7  20765080.961
  -4811072.962 7  -3731516.234 6  23718767.031
 -12601288.75747  -9238839.00245  22693797.3754                   22693798.1054
  -2451991.57846  -1862635.90843  24173885.8524                   24173885.9654
 11  8 29  3 50 30.0000000  0  8G25G18G29G26G15G05G21G02
  -1430318.918 7  -1100098.621 6  24490111.938
 -11942671.23747  -8305820.35145  22359115.7034                   22359115.9804
 -23705896.684 8 -18459006.539 8  20259631.406
 -18647189.26647 -14489371.69545  21277444.1644                   21277444.6024
 -20442587.460 8 -15915334.759 7  20758986.781
  -4723911.653 7  -3663598.294 6  23735353.344
 -12664153.74547  -9287824.66445  22681834.1564                   22681834.9494
  -2381093.15846  -1807390.40743  24187378.3204                   24187378.2384
 11  8 29  3 51  0.0000000  0  8G25G18G29G26G15G05G21G02
  -1349052.675 7  -1036774.234 6  24505576.672
 -11994044.65348  -8345851.51145  22349339.9774                   22349340.3714
 -23692158.269 8 -18448301.276 8  20262245.914
 -18620108.76947 -14468269.98245  21282597.1804                   21282597.7114
 -20474044.217 8 -15939846.487 8  20753000.859
  -4636763.294 7  -3595690.439 6  23751936.711
 -12727022.47747  -9336813.24845  22669871.0234                   22669871.5824
  -2310033.55746  -1752019.34743  24200900.0704                   24200899.9144
 11  8 29  3 51 30.0000000  0  8G25G18G29G26G15G05G21G02
  -1267868.855 7   -973514.106 6  24521025.164
 -12045164.56548  -8385685.13545  22339612.0784                   22339612.6174
 -23677860.589 8 -18437160.220 8  20264966.719
 -18592344.37747 -14446635.37645  21287880.6724                   21287881.7234
 -20504933.096 8 -15963915.712 7  20747122.914
  -4549629.461 6  -3527793.940 6  23768518.086
 -12789894.48847  -9385804.38745  22657906.9774                   22657906.8014
  -2238812.92846  -1696522.75743  24214453.0314                   24214452.7734
 11  8 29  3 52  0.0000000  0  8G25G18G29G26G15G05G21G02
  -1186770.203 7   -910320.301 6  24536457.797
 -12096031.02148  -8425321.24145  22329932.1564                   22329932.8164
 -23663003.515 8 -18425583.276 8  20267793.547
 -18563897.07147 -14424468.61845  21293293.5164                   21293294.7114
 -20535252.535 8 -15987541.217 7  20741353.305
  -4462511.267 7  -3459909.648 6  23785095.945
 -12852768.92147  -9434797.40545  22645942.6094                   22645942.0234
  -2167431.08446  -1640900.58343  24228036.7814                   24228036.7624
 11  8 29  3 52 30.0000000  0  8G25G18G29G26G15G05G21G02
  -1105759.065 7   -847194.706 6  24551873.961
 -12146643.85547  -8464759.74745  22320301.3364                   22320301.4534
 -23647586.609 8 -18413570.101 8  20270727.563
 -18534767.29747 -14401770.08045  21298836.8204                   21298838.0394
 -20565000.872 8 -16010721.706 7  20735692.391
  -4375409.523 6  -3392038.151 6  23801671.711
 -12915644.67747  -9483791.43645  22633976.9144                   22633975.9304
  -2095887.73846  -1585152.55543  24241651.3284                   24241651.0664
 11  8 29  3 53  0.0000000  0  8G25G18G29G26G15G05G21G02
  -1024838.095 7   -784139.358 6  24567272.523
 -12197003.24547  -8504000.75045  22310717.6564                   22310718.2704
 -23631609.760 8 -18401120.602 8  20273767.711
 -18504955.99647 -14378540.47245  21304509.9614                   21304510.5984
 -20594177.015 8 -16033456.333 7  20730140.406
  -4288325.703 7  -3324180.610 6  23818242.469
 -12978521.05047  -9532785.91845  22622012.2664                   22622010.7464
  -2024182.77546  -1529278.61343  24255295.4384                   24255296.0044
 11  8 29  3 53 30.0000000  0  8G25G18G29G26G15G05G21G02
   -944010.114 7   -721156.463 6  24582653.734
 -12247109.91348  -8543044.84245  22301183.1174                   22301182.8014
 -23615073.449 8 -18388235.157 8  20276914.586
 -18474464.61147 -14354780.94845  21310311.8524                   21310313.3404
 -20622779.926 8 -16055744.279 7  20724697.383
  -4201261.453 7  -3256338.346 6  23834810.539
 -13041397.28347  -9581780.31245  22610046.6564                   22610046.2774
  -1952316.37046  -1473278.87442  24268971.5394                   24268971.9064
 11  8 29  3 54  0.0000000  0  8G25G18G29G26G15G05G21G02
   -863277.741 7   -658248.026 6  24598015.969
 -12296963.83647  -8581892.00345  22291696.0554                   22291696.5984
 -23597977.434 8 -18374913.585 8  20280167.914
 -18443293.96947 -14330492.11045  21316243.6564                   21316245.0634
 -20650808.628 8 -16077584.794 7  20719363.758
  -4114217.168 7  -3188511.579 6  23851373.633
 -13104272.61847  -9630774.01145  22598082.5634                   22598082.3324
  -1880288.66046  -1417153.37243  24282678.7814                   24282678.2974
 11  8 29  3 54 30.0000000  0  8G25G18G29G26G15G05G21G02
   -782643.988 6   -595416.541 6  24613360.367
 -12346565.77948  -8620542.82445  22282257.0164                   22282257.1174
 -23580322.099 8 -18361156.178 8  20283527.617
 -18411445.64047 -14305675.22245  21322304.2424                   21322305.0084
 -20678261.945 8 -16098976.956 7  20714139.570
  -4027194.771 6  -3120701.938 6  23867933.805
 -13167146.45647  -9679766.55745  22586117.9924                   22586117.5274
  -1808099.54246  -1360902.14343  24296414.9774                   24296415.4414
 11  8 29  3 55  0.0000000  0  8G25G18G29G26G15G05G21G02
   -702111.231 6   -532663.676 6  24628684.898
 -12395915.59947  -8658997.21645  22272865.8524                   22272866.3164
 -23562107.773 8 -18346963.192 8  20286993.727
 -18378920.35648 -14280330.83845  21328493.5394                   21328494.5704
 -20705138.666 8 -16119919.823 7  20709024.953
  -3940195.250 6  -3052910.100 6  23884488.820
 -13230017.79547  -9728757.18645  22574154.0474                   22574153.5434
  -1735748.74946  -1304524.93342  24310183.5164                   24310183.1454
 11  8 29  3 55 30.0000000  0  8G25G18G29G26G15G05G21G02
   -621679.014 6   -469989.274 6  24643989.727
 -12445010.68548  -8697253.08445  22263523.3834                   22263524.2814
 -23543331.235 8 -18332332.119 8  20290566.898
 -18345716.17048 -14254457.44245  21334812.2734                   21334812.9924
 -20731434.673 8 -16140410.187 8  20704021.000
  -3853216.545 6  -2985134.466 6  23901040.555
 -13292882.82247  -9777742.88745  22562191.0314                   22562190.5084
  -1663233.40846  -1248019.51643  24323981.8984                   24323981.8714
 11  8 29  3 56  0.0000000  0  7G25G18G29G26G15G05G21
   -541355.971 6   -407399.935 6  24659276.125
 -12493857.26947  -8735315.31945  22254228.4224                   22254229.0394
 -23523998.640 8 -18317267.753 8  20294245.211
 -18311840.37648 -14228060.70545  21341258.7274                   21341259.5234
 -20757154.931 8 -16160451.916 7  20699126.898
  -3766266.272 6  -2917380.988 6  23917586.391
 -13355746.61647  -9826727.62345  22550228.4304                   22550227.2114
 11  8 29  3 56 30.0000000  0  7G25G18G29G26G15G05G21
   -461142.115 6   -344895.669 6  24674539.273
 -12542452.91747  -8773181.98545  22244980.2734                   22244981.0864
 -23504107.692 8 -18301768.294 8  20298030.578
 -18277291.54148 -14201139.51945  21347832.9694                   21347834.2974
 -20782296.197 8 -16180042.487 7  20694342.586
  -3679342.692 6  -2849648.322 6  23934127.602
 -13418605.78147  -9875708.75745  22538266.7504                   22538265.0984
 11  8 29  3 57  0.0000000  0  7G25G18G29G26G15G05G21
   -381039.849 6   -282478.317 6  24689782.852
 -12590797.61447  -8810853.15145  22235780.6334                   22235781.5474
 -23483658.306 8 -18285833.704 8  20301921.688
 -18242070.63548 -14173694.64545  21354535.0784                   21354535.9574
 -20806856.860 8 -16199180.634 7  20689668.500
  -3592446.978 6  -2781937.374 6  23950663.156
 -13481459.18747  -9924685.41845  22526306.0394                   22526304.7234
 11  8 29  3 57 30.0000000  0  7G25G18G29G26G15G05G21
   -301052.579 6   -220150.610 6  24705004.875
 -12638892.72147  -8848329.79745  22226628.5784                   22226629.2734
 -23462651.525 8 -18269464.773 8  20305919.734
 -18206179.95648 -14145727.87145  21361365.1094                   21361365.5234
 -20830837.232 8 -16217866.611 7  20685105.414
  -3505580.834 7  -2714249.494 6  23967194.039
 -13544306.88047  -9973657.59945  22514346.6174                   22514345.2584
 11  8 29  3 58  0.0000000  0  7G25G18G29G26G15G05G21
   -221179.830 6   -157912.138 6  24720203.406
 -12686735.63547  -8885609.95145  22217524.5164                   22217524.8634
 -23441084.284 8 -18252659.130 8  20310023.320
 -18169617.69148 -14117237.78745  21368322.1884                   21368323.0824
 -20854232.900 8 -16236096.966 7  20680653.281
  -3418742.400 7  -2646583.131 6  23983717.898
 -13607144.72147 -10022622.10545  22502388.3524                   22502387.5394
 11  8 29  3 58 30.0000000  0  6G18G29G26G15G05G21
 -12734330.65547  -8922696.93545  22208467.5084                   22208467.3754
 -23418960.984 8 -18235420.181 8  20314233.547
 -18132389.13248 -14088228.51645  21375407.0784                   21375408.0634
 -20877047.004 8 -16253874.167 7  20676311.656
  -3331936.732 7  -2578942.319 6  24000237.047
 -13669976.11447 -10071581.57545  22490431.9774                   22490431.8484
 11  8 29  3 59  0.0000000  0  6G18G29G26G15G05G21
 -12781675.53647  -8959588.98245  22199457.7504                   22199458.0634
 -23396279.461 8 -18217746.259 8  20318549.648
 -18094493.07548 -14058699.09545  21382618.3674                   21382618.4774
 -20899276.256 8 -16271195.628 7  20672081.469
  -3245162.666 7  -2511326.129 6  24016749.945
 -13732797.40747 -10120533.18545  22478477.5784                   22478477.5004
 11  8 29  3 59 30.0000000  0  6G18G29G26G15G05G21
 -12828772.37547  -8996287.74845  22190495.3984                   22190496.2624
 -23373042.140 8 -18199639.254 8  20322971.477
 -18055933.13848 -14028652.37945  21389956.3834                   21389957.0594
 -20920921.725 8 -16288062.207 8  20667962.875
  -3158423.276 6  -2443736.947 6  24033255.117
 -13795609.82747 -10169477.87845  22466525.4844                   22466524.7034
 11  8 29  4  0  0.0000000  0  6G18G29G26G15G05G21
 -12875619.11147  -9032791.61645  22181580.5784                   22181581.1994
 -23349246.438 8 -18181097.144 8  20327499.836
 -18016707.68948 -13998087.09045  21397420.0084                   21397421.4344
 -20941979.786 8 -16304471.045 8  20663955.750
  -3071716.763 7  -2376173.420 6  24049755.250
 -13858409.56547 -10218412.68845  22454574.8674                   22454574.1214
 11  8 29  4  0 30.0000000  0  6G18G29G26G15G05G21
 -12922220.98147  -9069104.67545  22172712.8754                   22172713.6604
 -23324898.157 8 -18162124.462 8  20332133.148
 -17976823.34048 -13967008.37745  21405010.3594                   21405011.1134
 -20962455.151 8 -16320425.841 7  20660058.969
  -2985049.366 7  -2308640.392 6  24066247.859
 -13921200.88547 -10267340.96545  22442625.5864                   22442625.7814
 11  8 29  4  1  0.0000000  0  6G18G29G26G15G05G21
 -12968570.42747  -9105221.04845  22163892.2974                   22163892.4694
 -23299989.207 8 -18142714.887 8  20336873.344
 -17936273.87347 -13935411.36845  21412726.5314                   21412727.2704
 -20982338.414 8 -16335919.268 7  20656275.203
  -2898414.218 6  -2241132.475 6  24082733.727
 -13983974.42747 -10316255.35945  22430680.3754                   22430679.9614
 11  8 29  4  1 30.0000000  0  6G18G29G26G15G05G21
 -13014672.08247  -9141144.33645  22155119.9304                   22155119.9964
 -23274524.564 8 -18122872.309 8  20341718.656
 -17895064.72047 -13903300.33845  21420568.6884                   21420569.2154
 -21001633.052 8 -16350954.019 7  20652603.609
  -2811816.734 6  -2173653.873 6  24099211.875
 -14046734.34447 -10365159.14445  22418737.2194                   22418736.9734
 11  8 29  4  2  0.0000000  0  6G18G29G26G15G05G21
 -13060527.11847  -9176875.45045  22146393.5634                   22146394.2424
 -23248505.365 8 -18102597.607 8  20346670.164
 -17853198.39047 -13870677.20745  21428535.5314                   21428535.8524
 -21020339.224 8 -16365530.223 8  20649044.148
  -2725258.277 6  -2106205.709 6  24115684.305
 -14109479.91548 -10414051.72345  22406797.8444                   22406797.0784
 11  8 29  4  2 30.0000000  0  6G18G29G26G15G05G21
 -13106135.29047  -9212414.24145  22137715.1644                   22137714.9774
 -23221931.469 8 -18081890.667 8  20351727.188
 -17810676.01847 -13837542.88345  21436626.8054                   21436627.7304
 -21038456.128 8 -16379647.250 7  20645596.563
  -2638739.840 6  -2038788.740 6  24132147.516
 -14172209.83048 -10462932.12345  22394860.2664                   22394859.6094
 11  8 29  4  3  0.0000000  0  6G18G29G26G15G05G21
 -13151496.05647  -9247760.23845  22129082.9614                   22129083.4184
 -23194802.284 8 -18060751.030 8  20356889.438
 -17767497.52547 -13803897.29045  21444843.4144                   21444843.8164
 -21055981.535 8 -16393303.392 8  20642261.461
  -2552261.032 6  -1971402.668 6  24148603.734
 -14234921.20548 -10511798.07245  22382927.0474                   22382926.3054
 11  8 29  4  3 30.0000000  0  6G18G29G26G15G05G21
 -13196610.79947  -9282914.52845  22120498.0944                   22120498.2934
 -23167119.446 8 -18039179.991 8  20362157.336
 -17723666.21948 -13769743.01245  21453184.2034                   21453184.7384
 -21072916.569 8 -16406499.484 7  20639038.750
  -2465824.065 6  -1904049.187 6  24165051.648
 -14297615.10947 -10560650.42845  22370996.4924                   22370995.6644
 11  8 29  4  4  0.0000000  0  6G18G29G26G15G05G21
 -13241481.17847  -9317878.39845  22111959.4304                   22111959.6994
 -23138885.057 8 -18017179.163 8  20367530.172
 -17679185.13547 -13735082.42245  21461648.5704                   21461649.2114
 -21089261.624 8 -16419235.867 8  20635928.523
  -2379431.422 6  -1836730.259 6  24181492.516
 -14360291.86947 -10609489.42145  22359069.0314                   22359068.8164
 11  8 29  4  4 30.0000000  0  6G18G29G26G15G05G21
 -13286106.86047  -9352651.59745  22103466.9924                   22103467.2194
 -23110097.957 8 -17994747.651 8  20373008.070
 -17634054.83447 -13699915.94145  21470237.0634                   21470237.2814
 -21105014.418 8 -16431510.742 8  20632930.813
  -2293083.016 6  -1769445.784 6  24197924.070
 -14422948.90147 -10658313.03245  22347145.7194                   22347145.4454
 11  8 29  4  5  0.0000000  0  6G18G29G26G15G05G21
 -13330487.50748  -9387233.87445  22095021.8204                   22095022.2664
 -23080758.963 8 -17971886.101 8  20378591.133
 -17588276.29647 -13664244.34245  21478947.8594                   21478948.6454
 -21120174.444 8 -16443323.720 7  20630045.438
  -2206779.112 6  -1702195.995 6  24214347.000
 -14485584.94147 -10707120.29545  22335226.3444                   22335226.0824
 11  8 29  4  5 30.0000000  0  6G18G29G26G15G05G21
 -13374623.57148  -9421625.59345  22086622.8754                   22086623.1844
 -23050868.374 8 -17948594.722 8  20384279.211
 -17541851.43448 -13628069.11645  21487782.4614                   21487782.7504
 -21134741.152 8 -16454674.375 7  20627273.867
  -2120521.032 6  -1634981.867 6  24230760.898
 -14548198.99947 -10755910.41145  22323311.4694                   22323310.8444
 11  8 29  4  6  0.0000000  0  6G18G29G26G15G05G21
 -13418514.82548  -9455826.50245  22078270.8524                   22078270.8054
 -23020425.965 8 -17924873.354 8  20390072.094
 -17494781.29547 -13591391.06745  21496739.7734                   21496739.9414
 -21148713.153 8 -16465561.613 8  20624615.109
  -2034308.803 6  -1567803.469 6  24247166.766
 -14610789.13047 -10804681.88645  22311401.2814                   22311400.1644
 11  8 29  4  6 30.0000000  0  6G18G29G26G15G05G21
 -13462162.03348  -9489837.22445  22069964.9614                   22069965.2114
 -22989433.048 8 -17900723.016 8  20395969.672
 -17447068.01347 -13554211.87745  21505819.3594                   21505819.5744
 -21162090.547 8 -16475985.530 8  20622069.570
  -1948143.872 6  -1500661.948 6  24263563.570
 -14673354.74748 -10853434.27945  22299495.2814                   22299493.7734
 11  8 29  4  7  0.0000000  0  6G18G29G26G15G05G21
 -13505567.20647  -9523659.35545  22061705.4454                   22061705.4144
 -22957891.705 8 -17876145.356 8  20401971.828
 -17398714.91047 -13516534.13345  21515020.5474                   21515020.9924
 -21174874.288 8 -16485946.862 8  20619636.500
  -1862028.679 6  -1433559.196 6  24279950.469
 -14735896.28248 -10902167.90345  22287593.7734                   22287592.7344
 11  8 29  4  7 30.0000000  0  6G18G29G26G15G05G21
 -13548730.20948  -9557292.78145  22053491.5944                   22053491.5164
 -22925802.445 8 -17851140.717 8  20408078.531
 -17349723.61247 -13478359.07145  21524342.9304                   21524343.6484
 -21187063.629 8 -16495445.029 8  20617317.094
  -1775963.812 6  -1366495.671 6  24296328.938
 -14798412.48347 -10950881.78645  22275697.2734                   22275696.6094
 11  8 29  4  8  0.0000000  0  6G18G29G26G15G05G21
 -13591650.71847  -9590737.27345  22045324.0394                   22045324.1174
 -22893164.509 8 -17825708.559 8  20414289.227
 -17300094.58147 -13439687.08745  21533787.2504                   21533787.5204
 -21198656.601 8 -16504478.482 8  20615111.023
  -1689949.012 7  -1299471.129 6  24312696.469
 -14860900.71047 -10999573.88645  22263806.4304                   22263805.9144
 11  8 29  4  8 30.0000000  0  6G18G29G26G15G05G21
 -13634328.98547  -9623993.00845  22037202.3284                   22037202.6174
 -22859978.542 8 -17799849.363 8  20420604.211
 -17249829.77147 -13400519.69645  21543352.2274                   21543352.6764
 -21209652.993 8 -16513047.076 7  20613018.352
  -1603984.887 6  -1232486.045 6  24329054.883
 -14923359.92948 -11048243.38445  22251920.4304                   22251919.9104
 11  8 29  4  9  0.0000000  0  6G18G29G26G15G05G21
 -13676766.52947  -9657061.13445  22029126.6484                   22029126.7624
 -22826246.303 8 -17773564.492 8  20427023.742
 -17198932.49747 -13360859.47445  21553038.1024                   21553038.1684
 -21220053.740 8 -16521151.530 8  20611039.195
  -1518073.831 6  -1165542.366 6  24345403.789
 -14985790.22948 -11096890.32845  22240040.8284                   22240040.5864
 11  8 29  4  9 30.0000000  0  6G18G29G26G15G05G21
 -13718962.24647  -9689940.82545  22021097.0234                   22021097.4884
 -22791967.763 8 -17746853.936 8  20433546.445
 -17147402.94947 -13320706.56245  21562843.1094                   21562843.7894
 -21229857.064 8 -16528790.451 8  20609173.727
  -1432215.250 6  -1098639.560 6  24361741.773
 -15048189.10548 -11145512.78845  22228166.5474                   22228166.3134
 11  8 29  4 10  0.0000000  0  6G18G29G26G15G05G21
 -13760918.60847  -9722634.00145  22013112.9614                   22013113.1174
 -22757145.236 8 -17719719.490 8  20440172.820
 -17095245.18147 -13280064.11545  21572768.1884                   21572769.5164
 -21239064.360 8 -16535964.937 8  20607421.773
  -1346411.546 6  -1031779.542 6  24378069.227
 -15110557.12247 -11194111.18245  22216298.0004                   22216297.8914
 11  8 29  4 10 30.0000000  0  6G18G29G26G15G05G21
 -13802635.21048  -9755140.37945  22005174.5784                   22005174.6094
 -22721778.141 8 -17692160.717 8  20446902.852
 -17042459.83347 -13238932.66845  21582812.9064                   21582814.1684
 -21247674.277 8 -16542673.938 8  20605783.000
  -1260662.586 6   -964962.143 6  24394387.258
 -15172892.12747 -11242683.84445  22204436.0314                   22204435.2274
 11  8 29  4 11  0.0000000  0  6G18G29G26G15G05G21
 -13844112.96648  -9787460.66145  21997281.7194                   21997281.8954
 -22685868.449 8 -17664179.137 8  20453736.188
 -16989049.83147 -13197314.46845  21592976.5234                   21592977.6524
 -21255687.462 8 -16548917.953 7  20604257.984
  -1174970.060 6   -898188.740 6  24410693.164
 -15235193.88447 -11291230.61145  22192580.4144                   22192579.2464
 11  8 29  4 11 30.0000000  0  6G18G29G26G15G05G21
 -13885351.04148  -9819594.19745  21989434.0164                   21989434.6764
 -22649415.429 8 -17635774.188 7  20460673.164
 -16935015.36747 -13155209.68445  21603259.6334                   21603260.2974
 -21263101.699 8 -16554695.252 8  20602847.414
  -1089333.234 5   -831458.786 6  24426989.305
 -15297459.20847 -11339748.99845  22180731.3524                   22180730.7734
 11  8 29  4 12  0.0000000  0  6G18G29G26G15G05G21
 -13926351.52248  -9851542.56545  21981632.1094                   21981632.0004
 -22612421.739 8 -17606947.932 8  20467712.875
 -16880360.69047 -13112621.61845  21613659.7274                   21613660.1804
 -21269918.857 8 -16560007.308 8  20601549.867
  -1003754.927 6   -764774.378 6  24443274.734
 -15359689.16248 -11388239.83545  22168889.9454                   22168888.4414
 11  8 29  4 12 30.0000000  0  6G18G29G26G15G05G21
 -13967113.45348  -9883305.05545  21973875.3594                   21973875.0164
 -22574886.690 8 -17577699.833 8  20474855.594
 -16825086.23247 -13069550.60345  21624178.3054                   21624178.8484
 -21276137.153 8 -16564852.697 8  20600366.641
   -918234.129 6   -698134.800 6  24459548.883
 -15421880.79947 -11436700.81445  22157055.1724                   22157054.1954
 11  8 29  4 13  0.0000000  0  6G18G29G26G15G05G21
 -14007640.96948  -9914884.87545  21966163.2814                   21966162.6054
 -22536814.842 8 -17548033.470 8  20482100.305
 -16769197.93147 -13026001.25645  21634813.3834                   21634814.0594
 -21281760.065 8 -16569234.165 8  20599296.656
   -832775.452 6   -631543.632 6  24475811.219
 -15484036.68948 -11485133.93945  22145227.6094                   22145226.3954
 11  8 29  4 13 30.0000000  0  6G18G29G26G15G05G21
 -14047930.44148  -9946279.20545  21958496.2734                   21958495.6724
 -22498203.218 8 -17517946.485 7  20489447.563
 -16712693.65047 -12981971.93545  21645565.5474                   21645566.5354
 -21286783.522 8 -16573148.528 8  20598340.898
   -747375.832 6   -564998.470 6  24492061.805
 -15546151.38547 -11533534.95245  22133407.2424                   22133406.7114
 11  8 29  4 14  0.0000000  0  6G18G29G26G15G05G21
 -14087984.84448  -9977490.35545  21950873.9224                   21950873.6174
 -22459054.913 8 -17487441.313 8  20496897.297
 -16655577.86847 -12937466.13545  21656434.6484                   21656435.2154
 -21291209.827 8 -16576597.570 8  20597498.516
   -662037.927 6   -498501.367 6  24508302.297
 -15608225.80847 -11581904.59345  22121594.5004                   22121593.7664
 11  8 29  4 14 30.0000000  0  6G18G29G26G15G05G21
 -14127802.86148 -10008517.31545  21943296.8674                   21943296.4574
 -22419369.554 8 -17456517.656 8  20504449.461
 -16597851.20547 -12892484.31145  21667419.2344                   21667420.2114
 -21295036.936 8 -16579579.705 8  20596770.328
   -576761.200 6   -432051.976 6  24524528.547
 -15670257.74247 -11630241.13245  22109790.3594                   22109789.1294
 11  8 29  4 15  0.0000000  0  6G18G29G26G15G05G21
 -14167385.72148 -10039361.07045  21935764.5944                   21935763.5234
 -22379148.700 8 -17425176.740 7  20512102.828
 -16539516.58447 -12847028.73945  21678520.1334                   21678521.3364
 -21298265.506 8 -16582095.452 7  20596155.875
   -491546.810 6   -365651.123 6  24540744.883
 -15732246.04948 -11678543.69145  22097994.3914                   22097993.1644
 11  8 29  4 15 30.0000000  0  6G18G29G26G15G05G21
 -14206734.53548 -10070022.45345  21928276.7424                   21928276.4574
 -22338393.537 8 -17393419.464 7  20519858.406
 -16480576.78847 -12801101.61245  21689735.7344                   21689737.2194
 -21300896.401 8 -16584145.478 8  20595655.086
   -406396.354 6   -299300.137 6  24556948.430
 -15794190.16547 -11726811.78145  22086206.6334                   22086205.8444
 11  8 29  4 16  0.0000000  0  7G22G18G29G26G15G05G21
    654412.84156    542093.25053  24680421.1644                   24680419.9384
 -14245849.50148 -10100501.61445  21920832.8444                   21920832.7734
 -22297105.034 8 -17361246.612 7  20527715.664
 -16421033.57547 -12754704.28145  21701066.8984                   21701067.5234
 -21302929.083 8 -16585729.368 8  20595268.297
   -321310.056 6   -232999.116 6  24573140.547
 -15856088.36047 -11775044.09045  22074428.1954                   22074427.3754
 11  8 29  4 16 30.0000000  0  7G22G18G29G26G15G05G21
    580536.66646    484527.45743  24666362.4144                   24666362.9024
 -14284742.27148 -10130807.66245  21913432.5234                   21913431.7894
 -22255295.898 8 -17328668.066 8  20535671.305
 -16360900.25847 -12707847.14345  21712509.7894                   21712510.4264
 -21304374.219 8 -16586855.426 8  20594993.367
   -236299.621 6   -166757.191 6  24589316.625
 -15917950.20548 -11823248.10145  22062656.2424                   22062655.3554
 11  8 29  4 17  0.0000000  0  7G22G18G29G26G15G05G21
    506828.62546    427092.65143  24652336.6884                   24652336.2894
 -14323390.43148 -10160923.05445  21906077.8524                   21906077.0274
 -22212944.220 8 -17295666.755 8  20543730.703
 -16300156.47947 -12660514.29645  21724068.9384                   21724069.8204
 -21305209.503 8 -16587506.274 7  20594834.547
   -151343.107 6   -100557.308 6  24605483.391
 -15979752.20047 -11871405.44845  22050895.4304                   22050894.8284
 11  8 29  4 17 30.0000000  0  7G22G18G29G26G15G05G21
    433276.52246    369779.45843  24638340.8594                   24638340.1054
 -14361807.29048 -10190858.21845  21898767.1724                   21898766.8524
 -22170063.181 8 -17262252.969 8  20551890.945
 -16238817.12747 -12612717.38645  21735741.0004                   21735742.0354
 -21305447.522 8 -16587691.723 8  20594789.180
    -66453.736 6    -34409.754 6  24621637.367
 -16041504.98347 -11919524.45645  22039143.7894                   22039143.8984
 11  8 29  4 18  0.0000000  0  7G22G18G29G26G15G05G21
    359881.25446    312588.42643  24624373.1644                   24624373.3404
 -14399992.50948 -10220612.86945  21891500.7894                   21891500.4494
 -22126653.426 8 -17228427.180 8  20560151.484
 -16176883.81547 -12564457.66045  21747526.6254                   21747527.7584
 -21305087.557 8 -16587411.206 8  20594857.539
     18368.333 6     31685.381 6  24637778.734
 -16103207.09947 -11967603.96345  22027402.5864                   22027401.8754
 11  8 29  4 18 30.0000000  0  7G22G18G29G26G15G05G21
    286642.63646    255519.42943  24610435.8204                   24610436.3914
 -14437947.08348 -10250187.81145  21884278.3914                   21884277.7344
 -22082716.603 8 -17194190.701 8  20568512.328
 -16114359.23647 -12515737.19245  21759424.8134                   21759425.5394
 -21304130.344 8 -16586665.310 8  20595039.500
    103122.379 6     97727.508 6  24653906.727
 -16164857.53447 -12015643.24645  22015670.9384                   22015669.8204
 11  8 29  4 19  0.0000000  0  7G22G18G29G26G15G05G21
    213560.96547    198572.73643  24596530.1174                   24596529.2194
 -14475671.46648 -10279583.40745  21877099.7114                   21877098.8914
 -22038253.687 8 -17159544.272 8  20576973.258
 -16051245.74547 -12466557.83245  21771434.6094                   21771435.6884
 -21302575.969 8 -16585454.085 7  20595335.453
    187807.520 6    163715.899 5  24670021.594
 -16226454.81148 -12063641.09545  22003949.6804                   22003947.9384
 11  8 29  4 19 30.0000000  0  7G22G18G29G26G15G05G21
    140636.76947    141748.77744  24582652.0944                   24582652.3674
 -14513165.84248 -10308799.75845  21869964.5314                   21869964.3404
 -21993265.615 8 -17124488.639 8  20585534.250
 -15987545.25347 -12416921.08045  21783556.8834                   21783557.1174
 -21300423.891 8 -16583777.120 7  20595745.180
    272423.611 6    229650.510 6  24686123.359
 -16287996.98248 -12111596.01245  21992238.2194                   21992236.6564
 11  8 29  4 20  0.0000000  0  7G22G18G29G26G15G05G21
     67869.96647     85047.46744  24568805.5474                   24568805.1914
 -14550431.27648 -10337837.71845  21862873.1644                   21862872.8404
 -21947753.993 8 -17089025.033 7  20594194.734
 -15923260.57647 -12366829.11445  21795789.9454                   21795790.6564
 -21297674.509 8 -16581634.724 7  20596268.344
    356969.740 6    295530.612 6  24702212.398
 -16349482.82648 -12159507.02545  21980537.8444                   21980536.4384
 11  8 29  4 20 30.0000000  0  7G22G18G29G26G15G05G21
     -4739.65547     28468.62943  24554988.7194                   24554987.6914
 -14587468.41548 -10366697.78345  21855825.0314                   21855825.2234
 -21901720.613 8 -17053154.873 8  20602954.859
 -15858394.58247 -12316284.17945  21808133.5554                   21808134.1604
 -21294329.005 8 -16579027.814 7  20596904.844
    441444.641 6    361355.202 6  24718286.859
 -16410911.72148 -12207373.65445  21968848.2734                   21968846.6094
 11  8 29  4 21  0.0000000  0  7G22G18G29G26G15G05G21
    -77191.30346    -27987.11743  24541201.3674                   24541200.6094
 -14624277.20448 -10395379.93545  21848820.3674                   21848820.6604
 -21855165.513 8 -17016878.175 8  20611813.398
 -15792948.92647 -12265287.55445  21820587.3834                   21820587.6294
 -21290386.632 8 -16575955.820 8  20597655.172
    525848.212 6    427124.228 6  24734348.383
 -16472281.18148 -12255193.96445  21957169.8054                   21957168.9804
 11  8 29  4 21 30.0000000  0  7G22G18G29G26G15G05G21
   -149485.20346    -84319.90843  24527444.9384                   24527443.2424
 -14660858.73348 -10423885.00545  21841859.3914                   21841858.7934
 -21808090.901 8 -16980196.660 7  20620771.906
 -15726926.76047 -12213841.69945  21833150.8364                   21833151.9574
 -21285848.120 8 -16572419.292 8  20598518.234
    610179.602 6    492836.994 6  24750397.016
 -16533591.19048 -12302967.97445  21945503.4694                   21945502.3984
 11  8 29  4 22  0.0000000  0  7G22G18G29G26G15G05G21
   -221621.40447   -140529.90043  24513717.2344                   24513715.9454
 -14697213.62848 -10452213.45445  21834941.0004                   21834940.7384
 -21760498.199 8 -16943111.441 7  20629828.109
 -15660330.56547 -12161948.56345  21845823.8834                   21845824.1724
 -21280713.732 8 -16568418.456 8  20599495.602
    694438.192 6    558493.039 6  24766430.836
 -16594839.72748 -12350694.08545  21933847.8524                   21933846.7074
 11  8 29  4 22 30.0000000  0  7G22G18G29G26G15G05G21
   -293599.48746   -196616.60143  24500019.6484                   24500018.6524
 -14733342.53148 -10480365.79345  21828065.8364                   21828065.3794
 -21712387.935 8 -16905622.921 7  20638983.266
 -15593162.88047 -12109610.07645  21858605.5164                   21858605.4264
 -21274984.259 8 -16563953.904 8  20600585.867
    778623.442 6    624091.923 5  24782450.922
 -16656025.59248 -12398371.35945  21922204.2344                   21922203.4804
 11  8 29  4 23  0.0000000  0  7G22G18G29G26G15G05G21
   -365419.89946   -252580.50543  24486352.3444                   24486350.9384
 -14769246.56848 -10508342.91445  21821233.3204                   21821233.2704
 -21663762.956 8 -16867733.333 8  20648236.563
 -15525426.49847 -12056828.47044  21871494.7974                   21871495.1024
 -21268660.149 8 -16559026.010 8  20601789.047
    862734.378 6    689632.929 6  24798455.422
 -16717147.61448 -12445998.87745  21910573.3284                   21910572.0044
 11  8 29  4 23 30.0000000  0  7G22G18G29G26G15G05G21
   -437085.78746   -308423.93243  24472715.0474                   24472713.3594
 -14804929.50148 -10536147.73845  21814443.2814                   21814442.8364
 -21614627.943 8 -16829446.309 7  20657586.727
 -15457127.44347 -12003608.42544  21884491.9844                   21884492.3094
 -21261745.164 8 -16553637.693 7  20603105.047
    946766.924 6    755112.842 6  24814446.102
 -16778207.85248 -12493578.25745  21898953.9064                   21898952.9184
 11  8 29  4 24  0.0000000  0  6G22G18G29G26G15G21
   -508588.74946   -364140.41343  24459108.0864                   24459107.3164
 -14840383.81848 -10563774.42145  21807696.4614                   21807696.3244
 -21564975.767 8 -16790756.302 7  20667035.219
 -15388260.22347 -11949945.64744  21897596.8754                   21897596.8164
 -21254231.449 8 -16547782.825 8  20604534.742
 -16839196.48748 -12541101.83745  21887348.5004                   21887346.7034
 11  8 29  4 24 30.0000000  0  6G22G18G29G26G15G21
   -579933.18446   -419733.42043  24445531.5784                   24445530.3324
 -14875614.39548 -10591226.76145  21800992.4924                   21800992.0274
 -21514812.222 8 -16751667.831 8  20676581.203
 -15318831.62047 -11895845.43545  21910808.8134                   21910809.1454
 -21246123.959 8 -16541465.290 8  20606077.508
 -16900116.41748 -12588571.87946  21875755.6174                   21875754.2544
 11  8 29  4 25  0.0000000  0  6G22G18G29G26G15G21
   -651119.25646   -475202.97243  24431985.7814                   24431984.6954
 -14910622.17648 -10618505.51145  21794330.6174                   21794329.6454
 -21464139.005 8 -16712182.216 8  20686223.813
 -15248844.73647 -11841310.19344  21924126.6564                   21924127.0594
 -21237423.352 8 -16534685.583 8  20607733.367
 -16960966.65748 -12635987.60545  21864176.1254                   21864174.7854
 11  8 29  4 25 30.0000000  0  6G22G18G29G26G15G21
   -722147.13846   -530549.34843  24418469.6024                   24418468.6214
 -14945408.45548 -10645611.65845  21787710.9064                   21787710.6724
 -21412958.074 8 -16672300.965 7  20695963.078
 -15178302.43347 -11786342.15944  21937550.2814                   21937550.7934
 -21228130.987 8 -16527444.750 8  20609501.438
 -17021746.16048 -12683348.20245  21852609.8284                   21852608.9804
 11  8 29  4 26  0.0000000  0  6G22G18G29G26G15G21
   -793016.08746   -585771.81842  24404982.3204                   24404982.1214
 -14979972.56848 -10672544.70245  21781133.5164                   21781133.2854
 -21361269.979 8 -16632024.541 7  20705799.078
 -15107206.80047 -11730942.97745  21951079.4534                   21951079.9264
 -21218246.134 8 -16519742.253 8  20611382.719
 -17082453.05647 -12730652.24745  21841057.8524                   21841057.1294
 11  8 29  4 26 30.0000000  0  6G22G18G29G26G15G21
   -863726.13946   -640870.47742  24391526.9384                   24391526.2974
 -15014315.80148 -10699305.64545  21774598.5864                   21774597.8404
 -21309076.633 8 -16591354.395 7  20715731.320
 -15035560.69847 -11675114.84945  21964713.1804                   21964713.9884
 -21207769.470 8 -16511578.591 8  20613376.125
 -17143085.80548 -12777898.51945  21829519.8284                   21829518.8444
 11  8 29  4 27  0.0000000  0  6G22G18G29G26G15G21
   -934279.12946   -695846.79943  24378102.2114                   24378101.0004
 -15048440.69248 -10725896.46245  21768104.7894                   21768104.0864
 -21256381.464 8 -16550293.231 8  20725758.656
 -14963368.74447 -11618861.38045  21978451.1254                   21978451.6994
 -21196704.003 8 -16502956.142 8  20615481.781
 -17203644.80948 -12825087.33245  21817995.8674                   21817995.0664
 11  8 29  4 27 30.0000000  0  6G22G18G29G26G15G21
  -1004672.18846   -750698.49043  24364706.0234                   24364705.9304
 -15082344.65047 -10752315.08645  21761652.9304                   21761652.2464
 -21203183.346 8 -16508840.163 7  20735881.836
 -14890631.01647 -11562182.62845  21992292.6954                   21992293.1844
 -21185047.217 8 -16493872.915 8  20617700.367
 -17264125.95247 -12872215.46146  21806486.1884                   21806485.9414
 11  8 29  4 28  0.0000000  0  6G22G18G29G26G15G21
  -1074906.13946   -805426.12543  24351341.6024                   24351341.1414
 -15116029.34047 -10778562.84745  21755242.9844                   21755242.0904
 -21149484.440 8 -16466996.863 7  20746100.430
 -14817350.57347 -11505080.98845  22006237.3444                   22006237.5784
 -21172800.130 8 -16484329.718 8  20620030.656
 -17324527.92048 -12919281.88845  21794992.4064                   21794991.6334
 11  8 29  4 28 30.0000000  0  6G22G18G29G26G15G21
  -1144981.70247   -860030.42544  24338006.2114                   24338006.4844
 -15149496.64847 -10804641.23045  21748874.0864                   21748873.8984
 -21095287.287 8 -16424765.322 7  20756413.617
 -14743531.43347 -11447559.58345  22020284.9144                   22020285.2734
 -21159964.973 8 -16474328.283 7  20622473.039
 -17384850.81248 -12966286.70446  21783513.2894                   21783512.8404
 11  8 29  4 29  0.0000000  0  6G22G18G29G26G15G21
  -1214898.17446   -914510.79843  24324702.1414                   24324701.4694
 -15182746.32348 -10830550.03945  21742546.9454                   21742545.8094
 -21040592.850 8 -16382146.292 8  20766821.789
 -14669175.61547 -11389619.98144  22034433.9454                   22034434.8754
 -21146541.455 8 -16463868.382 8  20625027.727
 -17445092.17748 -13013227.98846  21772049.4454                   21772048.5274
 11  8 29  4 29 30.0000000  0  6G22G18G29G26G15G21
  -1284655.45046   -968867.06243  24311427.2114                   24311427.0354
 -15215779.27047 -10856289.97546  21736261.1174                   21736260.3914
 -20985403.186 8 -16339141.372 7  20777324.352
 -14594286.21847 -11331264.60944  22048684.8204                   22048685.3134
 -21132530.763 8 -16452950.941 7  20627693.898
 -17505250.48748 -13060104.56346  21760602.1644                   21760601.0394
 11  8 29  4 30  0.0000000  0  6G22G18G29G26G15G21
  -1354253.17947  -1023099.00243  24298182.8914                   24298183.0984
 -15248594.95847 -10881860.60945  21730016.4534                   21730015.8244
 -20929718.866 8 -16295750.983 7  20787920.688
 -14518865.05047 -11272494.87844  22063037.3754                   22063037.6884
 -21117932.706 8 -16441575.803 7  20630471.883
 -17565323.79348 -13106914.91346  21749170.4844                   21749169.4964
 11  8 29  4 30 30.0000000  0  6G22G18G29G26G15G21
  -1423692.84547  -1077207.75943  24284969.2584                   24284968.7074
 -15281196.32648 -10907264.26445  21723812.9694                   21723811.5554
 -20873543.036 8 -16251977.630 7  20798610.570
 -14442916.65047 -11213314.33044  22077489.6954                   22077490.7934
 -21102749.605 8 -16429744.806 7  20633360.922
 -17625311.99448 -13153658.94046  21737754.9774                   21737754.1684
 11  8 29  4 31  0.0000000  0  6G22G18G29G26G15G21
  -1492973.24946  -1131192.46743  24271785.0944                   24271784.8484
 -15313582.63747 -10932500.32845  21717649.5784                   21717648.9964
 -20816876.905 8 -16207822.209 7  20809393.758
 -14366442.89047 -11153724.38044  22092042.5784                   22092042.5864
 -21086981.066 8 -16417457.629 8  20636361.523
 -17685212.34348 -13200334.50246  21726356.3834                   21726355.5434
 11  8 29  4 31 30.0000000  0  6G22G18G29G26G15G21
  -1562094.60446  -1185053.21244  24258631.6094                   24258631.6524
 -15345755.15448 -10957569.79946  21711527.3204                   21711526.6484
 -20759722.233 7 -16163286.108 7  20820269.664
 -14289447.11647 -11093727.66944  22106694.0554                   22106694.8794
 -21070628.476 8 -16404715.334 7  20639473.023
 -17745023.63647 -13246940.65446  21714974.5784                   21714973.7304
 11  8 29  4 32  0.0000000  0  6G22G18G29G26G15G21
  -1631056.39446  -1238789.59144  24245509.0234                   24245509.0004
 -15377713.67647 -10982472.53645  21705446.1564                   21705445.1524
 -20702080.487 7 -16118370.464 7  20831238.531
 -14211931.51047 -11033325.90644  22121444.4304                   22121445.9534
 -21053692.141 8 -16391518.178 7  20642696.031
 -17804744.40947 -13293476.28846  21703610.0554                   21703609.4064
 11  8 29  4 32 30.0000000  0  7G22G18G09G29G26G15G21
  -1699859.79346  -1292402.58443  24232415.9304                   24232415.6994
 -15409459.94648 -11007209.89045  21699404.9144                   21699403.6684
    330100.93616                  24887470.695
 -20643954.196 8 -16073077.277 7  20842299.805
 -14133899.91147 -10972522.06544  22136294.2344                   22136294.1954
 -21036174.098 8 -16377867.734 7  20646029.430
 -17864373.49048 -13339940.47846  21692263.2504                   21692261.8554
 11  8 29  4 33  0.0000000  0  7G22G18G09G29G26G15G21
  -1768505.74946  -1345892.88143  24219353.3134                   24219352.3014
 -15440995.61847 -11031783.11246  21693403.5314                   21693403.5394
    244278.03046    299552.15052  24871139.4774                   24871142.3794
 -20585346.099 8 -16027408.629 7  20853452.414
 -14055355.93847 -10911318.95044  22151239.8984                   22151240.2974
 -21018075.798 8 -16363765.158 8  20649473.664
 -17923910.33348 -13386332.80946  21680933.7584                   21680932.1484
 11  8 29  4 33 30.0000000  0  7G22G18G09G29G26G15G21
  -1836992.17147  -1399258.85543  24206320.8834                   24206320.0004
 -15472319.33048 -11056191.19046  21687443.1724                   21687442.0474
    158354.15046    232598.55742  24854789.3204                   24854791.2304
 -20526255.638 8 -15981364.122 7  20864697.258
 -13976300.53047 -10849717.34644  22166284.2274                   22166284.7034
 -20999395.831 8 -16349209.309 8  20653028.063
 -17983351.05748 -13432650.23846  21669622.1564                   21669621.0664
 11  8 29  4 34  0.0000000  0  7G22G18G09G29G26G15G21
  -1905319.44046  -1452500.83143  24193319.0394                   24193318.3754
 -15503432.44347 -11080435.14846  21681522.2114                   21681521.8014
     72331.86746    165568.31142  24838418.6954                   24838421.7854
 -20466685.520 8 -15934945.867 7  20876033.109
 -13896737.32447 -10787720.05844  22181424.7734                   22181425.0084
 -20980136.124 8 -16334201.735 8  20656693.430
 -18042694.98647 -13478892.24146  21658329.6254                   21658328.7504
 11  8 29  4 34 30.0000000  0  7G22G18G09G29G26G15G21
  -1973487.57246  -1505618.75443  24180345.8284                   24180345.1334
 -15534335.60747 -11104515.52546  21675641.8984                   21675640.9574
    -13786.24546     98463.38243  24822032.1884                   24822033.8834
 -20406637.511 8 -15888155.213 7  20887460.055
 -13816669.25747 -10725329.34144  22196661.3524                   22196661.5354
 -20960297.668 8 -16318743.188 7  20660468.195
 -18101940.12948 -13525057.26746  21647055.5944                   21647055.1724
 11  8 29  4 35  0.0000000  0  7G22G18G09G29G26G15G21
  -2041497.59647  -1558613.56843  24167404.2504                   24167403.1524
 -15565030.35148 -11128433.45846  21669800.5314                   21669800.2894
    -99997.67046     31285.75043  24805624.7664                   24805628.1844
 -20346114.119 8 -15840994.148 7  20898977.086
 -13736099.91447 -10662548.04944  22211993.0634                   22211993.4924
 -20939882.246 8 -16302835.060 7  20664353.039
 -18161086.16648 -13571145.06946  21635800.5164                   21635799.4614
 11  8 29  4 35 30.0000000  0  7G22G18G09G29G26G15G21
  -2109348.81147  -1611484.58243  24154492.8594                   24154491.4804
 -15595516.75747 -11152189.09145  21663999.1094                   21663998.6644
   -186299.32146    -35962.13243  24789203.3984                   24789206.0824
 -20285116.758 8 -15793463.746 7  20910584.477
 -13655032.03147 -10599378.26544  22227419.2034                   22227419.7664
 -20918890.419 8 -16286477.770 7  20668347.695
 -18220130.45048 -13617153.58446  21624564.8134                   21624563.5204
 11  8 29  4 36  0.0000000  0  7G22G18G09G29G26G15G21
  -2177041.06847  -1664231.73344  24141611.0704                   24141610.8204
 -15625795.14647 -11175782.61546  21658237.2814                   21658236.8634
   -272687.89146   -103277.73743  24772764.2424                   24772765.7734
 -20223647.113 8 -15745565.328 7  20922281.727
 -13573468.05947 -10535821.94244  22242939.2734                   22242940.7664
 -20897322.504 8 -16269671.593 8  20672452.227
 -18279071.30348 -13663081.50346  21613348.6804                   21613347.2584
 11  8 29  4 36 30.0000000  0  7G22G18G09G29G26G15G21
  -2244574.76147  -1716855.28143  24128759.5704                   24128759.1254
 -15655866.74048 -11199215.01046  21652514.6414                   21652514.0084
   -359161.04646   -170659.30543  24756308.7894                   24756310.7344
 -20161707.482 8 -15697300.686 7  20934068.688
 -13491411.58347 -10471881.84245  22258555.5084                   22258555.7664
 -20875180.572 8 -16252418.125 7  20676665.445
 -18337907.85048 -13708928.14446  21602152.0704                   21602151.3524
 11  8 29  4 37  0.0000000  0  7G22G18G09G29G26G15G21
  -2311950.25347  -1769355.61043  24115938.7114                   24115937.6844
 -15685732.71348 -11222487.16646  21646831.3364                   21646831.0314
   -445715.85246   -238104.47143  24739837.8444                   24739839.2114
 -20099300.303 8 -15648671.743 7  20945944.094
 -13408865.74147 -10407560.42044  22274263.1724                   22274264.1024
 -20852465.577 8 -16234718.094 7  20680988.063
 -18396638.51547 -13754692.27446  21590976.3054                   21590974.9384
 11  8 29  4 37 30.0000000  0  7G22G18G09G29G26G15G21
  -2379167.44747  -1821732.57043  24103147.9454                   24103146.6254
 -15715393.05647 -11245599.09746  21641187.1804                   21641186.7154
   -532349.06146   -305610.73943  24723351.8984                   24723353.8714
 -20036426.705 8 -15599679.340 7  20957908.883
 -13325833.08047 -10342859.64644  22290063.5164                   22290064.0394
 -20829178.132 8 -16216572.026 7  20685419.867
 -18455260.82647 -13800371.99346  21579820.7664                   21579819.5784
 11  8 29  4 38  0.0000000  0  7G22G18G09G29G26G15G21
  -2446226.13647  -1873985.99743  24090386.9844                   24090385.9384
 -15744848.77048 -11268551.59646  21635581.9694                   21635581.4344
   -619057.66346   -373175.73443  24706851.5944                   24706853.3404
 -19973088.550 8 -15550324.930 7  20969961.289
 -13242316.76847 -10277782.01644  22305956.3134                   22305956.8324
 -20805319.685 8 -16197981.021 7  20689959.508
 -18513773.20747 -13845966.02146  21568686.2974                   21568685.5664
 11  8 29  4 38 30.0000000  0  7G22G18G09G29G26G15G21
  -2513126.51147  -1926116.09844  24077656.5164                   24077655.1604
 -15774100.50547 -11291345.14046  21630015.5864                   21630015.1024
   -705838.96746   -440797.39043  24690337.0864                   24690339.6374
 -19909288.144 8 -15500610.343 7  20982102.258
 -13158319.76047 -10212329.80444  22321940.1484                   22321941.1564
 -20780891.235 8 -16178945.846 7  20694608.273
 -18572174.32248 -13891473.35646  21557572.8134                   21557571.5824
